<?xml version="1.0" encoding="UTF-8" standalone="no" ?>
<gpx xmlns="http://www.topografix.com/GPX/1/1" xmlns:xsi="http://www.w3.org/2001/XMLSchema-instance" xsi:schemaLocation="http://www.topografix.com/GPX/1/1 http://www.topografix.com/GPX/1/1/gpx.xsd" version="1.1" creator="VisuGPX - https://www.visugpx.com">
  <metadata>
    <name>Moissac</name>
    <desc><![CDATA[Randonnée sur les hauteurs de Moissac. De beaux points de vue.]]></desc>
  </metadata>
  <wpt lat="43.66432" lon="6.20088">
    <ele>781.016235</ele>
    <name><![CDATA[Ptv]]></name>
    <type><![CDATA[vue]]></type>
  </wpt>
  <wpt lat="43.66684" lon="6.19841">
    <ele>802.7</ele>
    <name><![CDATA[Ptv]]></name>
    <type><![CDATA[vue]]></type>
  </wpt>
  <trk>
    <name><![CDATA[Moissac]]></name>
    <extensions>
      <line xmlns="http://www.topografix.com/GPX/gpx_style/0/2">
        <color>ff0000</color>
        <opacity>1</opacity>
        <width>4</width>
      </line>
    </extensions>
    <trkseg>
      <trkpt lat="43.66061" lon="6.17442">
        <ele>616.9</ele>
        <time>2025-01-15T12:28:40.000Z</time>
      </trkpt>
      <trkpt lat="43.66058" lon="6.17436">
        <ele>616.7</ele>
        <time>2025-01-15T12:28:45.427Z</time>
      </trkpt>
      <trkpt lat="43.66054" lon="6.1743">
        <ele>616.5</ele>
        <time>2025-01-15T12:28:50.855Z</time>
      </trkpt>
      <trkpt lat="43.66049" lon="6.17421">
        <ele>616.1</ele>
        <time>2025-01-15T12:28:58.644Z</time>
      </trkpt>
      <trkpt lat="43.66046" lon="6.17415">
        <ele>616</ele>
        <time>2025-01-15T12:29:04.519Z</time>
      </trkpt>
      <trkpt lat="43.66042" lon="6.17408">
        <ele>616</ele>
        <time>2025-01-15T12:29:10.716Z</time>
      </trkpt>
      <trkpt lat="43.66039" lon="6.17402">
        <ele>616</ele>
        <time>2025-01-15T12:29:16.913Z</time>
      </trkpt>
      <trkpt lat="43.66036" lon="6.17396">
        <ele>616</ele>
        <time>2025-01-15T12:29:23.110Z</time>
      </trkpt>
      <trkpt lat="43.66032" lon="6.17389">
        <ele>616</ele>
        <time>2025-01-15T12:29:29.307Z</time>
      </trkpt>
      <trkpt lat="43.66029" lon="6.17383">
        <ele>616</ele>
        <time>2025-01-15T12:29:35.504Z</time>
      </trkpt>
      <trkpt lat="43.66025" lon="6.17376">
        <ele>616</ele>
        <time>2025-01-15T12:29:41.701Z</time>
      </trkpt>
      <trkpt lat="43.66022" lon="6.1737">
        <ele>616</ele>
        <time>2025-01-15T12:29:47.898Z</time>
      </trkpt>
      <trkpt lat="43.66018" lon="6.17362">
        <ele>616</ele>
        <time>2025-01-15T12:29:55.376Z</time>
      </trkpt>
      <trkpt lat="43.66015" lon="6.17354">
        <ele>616</ele>
        <time>2025-01-15T12:30:02.854Z</time>
      </trkpt>
      <trkpt lat="43.66011" lon="6.17346">
        <ele>616</ele>
        <time>2025-01-15T12:30:10.332Z</time>
      </trkpt>
      <trkpt lat="43.66007" lon="6.17338">
        <ele>616</ele>
        <time>2025-01-15T12:30:17.810Z</time>
      </trkpt>
      <trkpt lat="43.66004" lon="6.1733">
        <ele>616.1</ele>
        <time>2025-01-15T12:30:25.489Z</time>
      </trkpt>
      <trkpt lat="43.66" lon="6.17322">
        <ele>616.4</ele>
        <time>2025-01-15T12:30:33.928Z</time>
      </trkpt>
      <trkpt lat="43.65999" lon="6.17316">
        <ele>616.7</ele>
        <time>2025-01-15T12:30:39.925Z</time>
      </trkpt>
      <trkpt lat="43.65998" lon="6.17313">
        <ele>616.8</ele>
        <time>2025-01-15T12:30:42.882Z</time>
      </trkpt>
      <trkpt lat="43.65992" lon="6.17309">
        <ele>617.2</ele>
        <time>2025-01-15T12:30:51.634Z</time>
      </trkpt>
      <trkpt lat="43.65986" lon="6.17305">
        <ele>617.5</ele>
        <time>2025-01-15T12:30:59.964Z</time>
      </trkpt>
      <trkpt lat="43.65982" lon="6.17302">
        <ele>618</ele>
        <time>2025-01-15T12:31:07.651Z</time>
      </trkpt>
      <trkpt lat="43.65977" lon="6.17298">
        <ele>618.4</ele>
        <time>2025-01-15T12:31:14.843Z</time>
      </trkpt>
      <trkpt lat="43.65972" lon="6.17294">
        <ele>618.8</ele>
        <time>2025-01-15T12:31:22.669Z</time>
      </trkpt>
      <trkpt lat="43.65967" lon="6.1729">
        <ele>619</ele>
        <time>2025-01-15T12:31:29.654Z</time>
      </trkpt>
      <trkpt lat="43.65959" lon="6.17285">
        <ele>619.1</ele>
        <time>2025-01-15T12:31:39.516Z</time>
      </trkpt>
      <trkpt lat="43.65953" lon="6.17281">
        <ele>619.2</ele>
        <time>2025-01-15T12:31:47.085Z</time>
      </trkpt>
      <trkpt lat="43.65945" lon="6.17276">
        <ele>619.1</ele>
        <time>2025-01-15T12:31:56.279Z</time>
      </trkpt>
      <trkpt lat="43.65939" lon="6.17271">
        <ele>619.2</ele>
        <time>2025-01-15T12:32:04.221Z</time>
      </trkpt>
      <trkpt lat="43.65935" lon="6.17265">
        <ele>619.4</ele>
        <time>2025-01-15T12:32:11.341Z</time>
      </trkpt>
      <trkpt lat="43.6593" lon="6.17257">
        <ele>619.6</ele>
        <time>2025-01-15T12:32:20.341Z</time>
      </trkpt>
      <trkpt lat="43.65926" lon="6.17248">
        <ele>619.8</ele>
        <time>2025-01-15T12:32:29.335Z</time>
      </trkpt>
      <trkpt lat="43.65923" lon="6.17243">
        <ele>620</ele>
        <time>2025-01-15T12:32:35.468Z</time>
      </trkpt>
      <trkpt lat="43.6592" lon="6.17237">
        <ele>620.2</ele>
        <time>2025-01-15T12:32:41.601Z</time>
      </trkpt>
      <trkpt lat="43.65918" lon="6.17231">
        <ele>620.5</ele>
        <time>2025-01-15T12:32:48.513Z</time>
      </trkpt>
      <trkpt lat="43.65915" lon="6.17224">
        <ele>620.9</ele>
        <time>2025-01-15T12:32:55.872Z</time>
      </trkpt>
      <trkpt lat="43.65912" lon="6.17218">
        <ele>621.2</ele>
        <time>2025-01-15T12:33:03.048Z</time>
      </trkpt>
      <trkpt lat="43.65908" lon="6.17212">
        <ele>621.4</ele>
        <time>2025-01-15T12:33:09.817Z</time>
      </trkpt>
      <trkpt lat="43.65905" lon="6.17206">
        <ele>621.6</ele>
        <time>2025-01-15T12:33:16.586Z</time>
      </trkpt>
      <trkpt lat="43.65901" lon="6.172">
        <ele>621.8</ele>
        <time>2025-01-15T12:33:23.355Z</time>
        <extensions>
          <visugpx:TrkExtension xmlns:visugpx="https://www.visugpx.com/editgpx/">
            <visugpx:node>1</visugpx:node>
            </visugpx:TrkExtension>
        </extensions>
      </trkpt>
      <trkpt lat="43.65898" lon="6.17195">
        <ele>622</ele>
        <time>2025-01-15T12:33:29.185Z</time>
      </trkpt>
      <trkpt lat="43.65893" lon="6.1719">
        <ele>622.2</ele>
        <time>2025-01-15T12:33:36.594Z</time>
      </trkpt>
      <trkpt lat="43.65891" lon="6.17185">
        <ele>622.4</ele>
        <time>2025-01-15T12:33:41.820Z</time>
      </trkpt>
      <trkpt lat="43.65888" lon="6.17176">
        <ele>622.7</ele>
        <time>2025-01-15T12:33:50.692Z</time>
      </trkpt>
      <trkpt lat="43.65885" lon="6.17172">
        <ele>622.8</ele>
        <time>2025-01-15T12:33:55.564Z</time>
      </trkpt>
      <trkpt lat="43.65881" lon="6.17167">
        <ele>623</ele>
        <time>2025-01-15T12:34:02.796Z</time>
      </trkpt>
      <trkpt lat="43.65876" lon="6.17161">
        <ele>623.1</ele>
        <time>2025-01-15T12:34:09.656Z</time>
      </trkpt>
      <trkpt lat="43.65871" lon="6.17156">
        <ele>623.1</ele>
        <time>2025-01-15T12:34:16.348Z</time>
      </trkpt>
      <trkpt lat="43.65865" lon="6.17154">
        <ele>623.1</ele>
        <time>2025-01-15T12:34:23.040Z</time>
      </trkpt>
      <trkpt lat="43.6586" lon="6.17151">
        <ele>623</ele>
        <time>2025-01-15T12:34:28.630Z</time>
      </trkpt>
      <trkpt lat="43.65856" lon="6.17149">
        <ele>623.2</ele>
        <time>2025-01-15T12:34:33.984Z</time>
      </trkpt>
      <trkpt lat="43.65855" lon="6.17147">
        <ele>623.2</ele>
        <time>2025-01-15T12:34:35.891Z</time>
      </trkpt>
      <trkpt lat="43.6585" lon="6.1714">
        <ele>623.4</ele>
        <time>2025-01-15T12:34:44.318Z</time>
      </trkpt>
      <trkpt lat="43.65849" lon="6.17133">
        <ele>623.5</ele>
        <time>2025-01-15T12:34:50.264Z</time>
      </trkpt>
      <trkpt lat="43.65844" lon="6.17132">
        <ele>623.6</ele>
        <time>2025-01-15T12:34:56.690Z</time>
      </trkpt>
      <trkpt lat="43.65838" lon="6.1713">
        <ele>623.6</ele>
        <time>2025-01-15T12:35:02.769Z</time>
      </trkpt>
      <trkpt lat="43.65833" lon="6.17127">
        <ele>623.6</ele>
        <time>2025-01-15T12:35:08.679Z</time>
      </trkpt>
      <trkpt lat="43.65827" lon="6.17124">
        <ele>623.7</ele>
        <time>2025-01-15T12:35:15.943Z</time>
      </trkpt>
      <trkpt lat="43.65823" lon="6.17122">
        <ele>623.8</ele>
        <time>2025-01-15T12:35:21.551Z</time>
      </trkpt>
      <trkpt lat="43.65818" lon="6.17119">
        <ele>623.8</ele>
        <time>2025-01-15T12:35:26.810Z</time>
      </trkpt>
      <trkpt lat="43.65814" lon="6.17116">
        <ele>623.9</ele>
        <time>2025-01-15T12:35:32.095Z</time>
      </trkpt>
      <trkpt lat="43.6581" lon="6.17111">
        <ele>623.8</ele>
        <time>2025-01-15T12:35:37.622Z</time>
      </trkpt>
      <trkpt lat="43.65807" lon="6.17106">
        <ele>623.8</ele>
        <time>2025-01-15T12:35:42.718Z</time>
      </trkpt>
      <trkpt lat="43.65803" lon="6.17099">
        <ele>623.7</ele>
        <time>2025-01-15T12:35:49.393Z</time>
      </trkpt>
      <trkpt lat="43.658" lon="6.17092">
        <ele>623.7</ele>
        <time>2025-01-15T12:35:55.776Z</time>
      </trkpt>
      <trkpt lat="43.65798" lon="6.17087">
        <ele>623.7</ele>
        <time>2025-01-15T12:36:00.258Z</time>
      </trkpt>
      <trkpt lat="43.65795" lon="6.17082">
        <ele>623.7</ele>
        <time>2025-01-15T12:36:05.354Z</time>
      </trkpt>
      <trkpt lat="43.65793" lon="6.17077">
        <ele>623.4</ele>
        <time>2025-01-15T12:36:09.276Z</time>
      </trkpt>
      <trkpt lat="43.6579" lon="6.17071">
        <ele>623.2</ele>
        <time>2025-01-15T12:36:14.381Z</time>
      </trkpt>
      <trkpt lat="43.65788" lon="6.17068">
        <ele>623.2</ele>
        <time>2025-01-15T12:36:17.581Z</time>
      </trkpt>
      <trkpt lat="43.65786" lon="6.17065">
        <ele>623.1</ele>
        <time>2025-01-15T12:36:20.471Z</time>
      </trkpt>
      <trkpt lat="43.65782" lon="6.17064">
        <ele>623.3</ele>
        <time>2025-01-15T12:36:25.624Z</time>
      </trkpt>
      <trkpt lat="43.65778" lon="6.17062">
        <ele>623.4</ele>
        <time>2025-01-15T12:36:30.588Z</time>
      </trkpt>
      <trkpt lat="43.65773" lon="6.17063">
        <ele>623.7</ele>
        <time>2025-01-15T12:36:37.211Z</time>
      </trkpt>
      <trkpt lat="43.65773" lon="6.17063">
        <ele>623.7</ele>
        <time>2025-01-15T12:36:37.211Z</time>
      </trkpt>
      <trkpt lat="43.65774" lon="6.17069">
        <ele>624</ele>
        <time>2025-01-15T12:36:43.207Z</time>
        <extensions>
          <visugpx:TrkExtension xmlns:visugpx="https://www.visugpx.com/editgpx/">
            <visugpx:node>2</visugpx:node>
            </visugpx:TrkExtension>
        </extensions>
      </trkpt>
      <trkpt lat="43.65773" lon="6.17063">
        <ele>623.7</ele>
        <time>2025-01-15T12:36:47.434Z</time>
      </trkpt>
      <trkpt lat="43.65768" lon="6.17066">
        <ele>624</ele>
        <time>2025-01-15T12:36:54.477Z</time>
      </trkpt>
      <trkpt lat="43.65764" lon="6.17069">
        <ele>624.2</ele>
        <time>2025-01-15T12:37:00.148Z</time>
      </trkpt>
      <trkpt lat="43.6576" lon="6.17072">
        <ele>624.4</ele>
        <time>2025-01-15T12:37:05.819Z</time>
      </trkpt>
      <trkpt lat="43.65755" lon="6.17078">
        <ele>624.8</ele>
        <time>2025-01-15T12:37:14.529Z</time>
      </trkpt>
      <trkpt lat="43.6575" lon="6.17084">
        <ele>625</ele>
        <time>2025-01-15T12:37:22.422Z</time>
      </trkpt>
      <trkpt lat="43.65745" lon="6.1709">
        <ele>625.5</ele>
        <time>2025-01-15T12:37:31.902Z</time>
      </trkpt>
      <trkpt lat="43.6574" lon="6.17097">
        <ele>625.8</ele>
        <time>2025-01-15T12:37:40.518Z</time>
      </trkpt>
      <trkpt lat="43.65734" lon="6.17103">
        <ele>626</ele>
        <time>2025-01-15T12:37:48.742Z</time>
      </trkpt>
      <trkpt lat="43.65729" lon="6.17109">
        <ele>626.1</ele>
        <time>2025-01-15T12:37:56.600Z</time>
      </trkpt>
      <trkpt lat="43.65723" lon="6.17117">
        <ele>626.4</ele>
        <time>2025-01-15T12:38:07.118Z</time>
      </trkpt>
      <trkpt lat="43.65716" lon="6.17125">
        <ele>626.4</ele>
        <time>2025-01-15T12:38:16.556Z</time>
      </trkpt>
      <trkpt lat="43.6571" lon="6.17131">
        <ele>626.2</ele>
        <time>2025-01-15T12:38:23.956Z</time>
      </trkpt>
      <trkpt lat="43.65706" lon="6.17138">
        <ele>626.2</ele>
        <time>2025-01-15T12:38:30.953Z</time>
      </trkpt>
      <trkpt lat="43.65704" lon="6.17145">
        <ele>626.3</ele>
        <time>2025-01-15T12:38:37.205Z</time>
      </trkpt>
      <trkpt lat="43.65702" lon="6.17156">
        <ele>626.7</ele>
        <time>2025-01-15T12:38:47.592Z</time>
      </trkpt>
      <trkpt lat="43.65701" lon="6.17168">
        <ele>627.3</ele>
        <time>2025-01-15T12:38:59.408Z</time>
      </trkpt>
      <trkpt lat="43.657" lon="6.1718">
        <ele>627.7</ele>
        <time>2025-01-15T12:39:10.363Z</time>
      </trkpt>
      <trkpt lat="43.657" lon="6.17188">
        <ele>627.9</ele>
        <time>2025-01-15T12:39:16.996Z</time>
      </trkpt>
      <trkpt lat="43.65699" lon="6.17195">
        <ele>628.2</ele>
        <time>2025-01-15T12:39:24.038Z</time>
      </trkpt>
      <trkpt lat="43.65699" lon="6.17202">
        <ele>628.4</ele>
        <time>2025-01-15T12:39:29.899Z</time>
      </trkpt>
      <trkpt lat="43.65698" lon="6.17208">
        <ele>628.6</ele>
        <time>2025-01-15T12:39:35.761Z</time>
      </trkpt>
      <trkpt lat="43.65698" lon="6.17216">
        <ele>628.9</ele>
        <time>2025-01-15T12:39:43.184Z</time>
      </trkpt>
      <trkpt lat="43.65697" lon="6.17224">
        <ele>629.2</ele>
        <time>2025-01-15T12:39:50.608Z</time>
      </trkpt>
      <trkpt lat="43.65696" lon="6.1723">
        <ele>629.3</ele>
        <time>2025-01-15T12:39:55.928Z</time>
      </trkpt>
      <trkpt lat="43.65696" lon="6.17237">
        <ele>629.5</ele>
        <time>2025-01-15T12:40:01.634Z</time>
      </trkpt>
      <trkpt lat="43.65695" lon="6.17243">
        <ele>629.7</ele>
        <time>2025-01-15T12:40:07.340Z</time>
      </trkpt>
      <trkpt lat="43.65694" lon="6.17249">
        <ele>629.9</ele>
        <time>2025-01-15T12:40:13.046Z</time>
      </trkpt>
      <trkpt lat="43.65693" lon="6.17259">
        <ele>629.9</ele>
        <time>2025-01-15T12:40:20.577Z</time>
      </trkpt>
      <trkpt lat="43.65692" lon="6.17268">
        <ele>629.8</ele>
        <time>2025-01-15T12:40:27.785Z</time>
      </trkpt>
      <trkpt lat="43.65691" lon="6.17278">
        <ele>629.8</ele>
        <time>2025-01-15T12:40:35.316Z</time>
      </trkpt>
      <trkpt lat="43.6569" lon="6.17287">
        <ele>629.7</ele>
        <time>2025-01-15T12:40:42.524Z</time>
      </trkpt>
      <trkpt lat="43.65689" lon="6.17294">
        <ele>629.7</ele>
        <time>2025-01-15T12:40:48.075Z</time>
      </trkpt>
      <trkpt lat="43.65689" lon="6.17301">
        <ele>629.8</ele>
        <time>2025-01-15T12:40:53.975Z</time>
      </trkpt>
      <trkpt lat="43.65688" lon="6.17308">
        <ele>629.7</ele>
        <time>2025-01-15T12:40:59.206Z</time>
      </trkpt>
      <trkpt lat="43.65687" lon="6.17315">
        <ele>629.6</ele>
        <time>2025-01-15T12:41:04.437Z</time>
      </trkpt>
      <trkpt lat="43.65686" lon="6.17322">
        <ele>629.5</ele>
        <time>2025-01-15T12:41:09.715Z</time>
      </trkpt>
      <trkpt lat="43.65685" lon="6.17329">
        <ele>629.4</ele>
        <time>2025-01-15T12:41:14.992Z</time>
      </trkpt>
      <trkpt lat="43.65683" lon="6.1734">
        <ele>629</ele>
        <time>2025-01-15T12:41:22.778Z</time>
      </trkpt>
      <trkpt lat="43.6568" lon="6.17349">
        <ele>628.7</ele>
        <time>2025-01-15T12:41:29.635Z</time>
      </trkpt>
      <trkpt lat="43.65677" lon="6.17358">
        <ele>628.4</ele>
        <time>2025-01-15T12:41:36.141Z</time>
      </trkpt>
      <trkpt lat="43.65674" lon="6.17366">
        <ele>628.1</ele>
        <time>2025-01-15T12:41:42.647Z</time>
      </trkpt>
      <trkpt lat="43.65671" lon="6.17373">
        <ele>627.7</ele>
        <time>2025-01-15T12:41:48.115Z</time>
      </trkpt>
      <trkpt lat="43.65669" lon="6.1738">
        <ele>627.4</ele>
        <time>2025-01-15T12:41:53.582Z</time>
      </trkpt>
      <trkpt lat="43.65666" lon="6.17387">
        <ele>626.9</ele>
        <time>2025-01-15T12:41:59.050Z</time>
      </trkpt>
      <trkpt lat="43.65663" lon="6.17394">
        <ele>626.3</ele>
        <time>2025-01-15T12:42:04.518Z</time>
      </trkpt>
      <trkpt lat="43.6566" lon="6.17404">
        <ele>625.5</ele>
        <time>2025-01-15T12:42:12.043Z</time>
      </trkpt>
      <trkpt lat="43.65657" lon="6.17414">
        <ele>624.6</ele>
        <time>2025-01-15T12:42:19.569Z</time>
      </trkpt>
      <trkpt lat="43.65653" lon="6.17424">
        <ele>624.1</ele>
        <time>2025-01-15T12:42:27.094Z</time>
      </trkpt>
      <trkpt lat="43.6565" lon="6.17434">
        <ele>623.6</ele>
        <time>2025-01-15T12:42:34.619Z</time>
      </trkpt>
      <trkpt lat="43.65648" lon="6.1744">
        <ele>623.2</ele>
        <time>2025-01-15T12:42:39.372Z</time>
      </trkpt>
      <trkpt lat="43.65645" lon="6.17446">
        <ele>622.9</ele>
        <time>2025-01-15T12:42:44.125Z</time>
      </trkpt>
      <trkpt lat="43.65643" lon="6.17452">
        <ele>622.8</ele>
        <time>2025-01-15T12:42:49.237Z</time>
      </trkpt>
      <trkpt lat="43.6564" lon="6.17458">
        <ele>622.6</ele>
        <time>2025-01-15T12:42:54.055Z</time>
      </trkpt>
      <trkpt lat="43.65635" lon="6.17467">
        <ele>622.2</ele>
        <time>2025-01-15T12:43:01.845Z</time>
      </trkpt>
      <trkpt lat="43.6563" lon="6.17475">
        <ele>621.8</ele>
        <time>2025-01-15T12:43:09.175Z</time>
      </trkpt>
      <trkpt lat="43.65624" lon="6.17482">
        <ele>621.4</ele>
        <time>2025-01-15T12:43:16.506Z</time>
      </trkpt>
      <trkpt lat="43.65621" lon="6.17486">
        <ele>621.2</ele>
        <time>2025-01-15T12:43:20.948Z</time>
      </trkpt>
      <trkpt lat="43.65617" lon="6.17491">
        <ele>621</ele>
        <time>2025-01-15T12:43:25.389Z</time>
      </trkpt>
      <trkpt lat="43.65614" lon="6.17495">
        <ele>620.9</ele>
        <time>2025-01-15T12:43:30.122Z</time>
      </trkpt>
      <trkpt lat="43.6561" lon="6.17499">
        <ele>620.8</ele>
        <time>2025-01-15T12:43:34.855Z</time>
      </trkpt>
      <trkpt lat="43.65605" lon="6.17506">
        <ele>620.6</ele>
        <time>2025-01-15T12:43:41.943Z</time>
      </trkpt>
      <trkpt lat="43.656" lon="6.17516">
        <ele>620.6</ele>
        <time>2025-01-15T12:43:51.480Z</time>
      </trkpt>
      <trkpt lat="43.65598" lon="6.17524">
        <ele>620.7</ele>
        <time>2025-01-15T12:43:58.304Z</time>
      </trkpt>
      <trkpt lat="43.65595" lon="6.17531">
        <ele>621</ele>
        <time>2025-01-15T12:44:05.903Z</time>
      </trkpt>
      <trkpt lat="43.65593" lon="6.17539">
        <ele>621.5</ele>
        <time>2025-01-15T12:44:14.555Z</time>
      </trkpt>
      <trkpt lat="43.65591" lon="6.17548">
        <ele>622.1</ele>
        <time>2025-01-15T12:44:24.393Z</time>
      </trkpt>
      <trkpt lat="43.6559" lon="6.17559">
        <ele>622.9</ele>
        <time>2025-01-15T12:44:36.454Z</time>
      </trkpt>
      <trkpt lat="43.6559" lon="6.17569">
        <ele>623.3</ele>
        <time>2025-01-15T12:44:45.811Z</time>
      </trkpt>
      <trkpt lat="43.65591" lon="6.17578">
        <ele>623.9</ele>
        <time>2025-01-15T12:44:55.424Z</time>
      </trkpt>
      <trkpt lat="43.65592" lon="6.1759">
        <ele>624.4</ele>
        <time>2025-01-15T12:45:06.799Z</time>
      </trkpt>
      <trkpt lat="43.65592" lon="6.17598">
        <ele>624.6</ele>
        <time>2025-01-15T12:45:13.795Z</time>
      </trkpt>
      <trkpt lat="43.65592" lon="6.17608">
        <ele>624.9</ele>
        <time>2025-01-15T12:45:22.739Z</time>
      </trkpt>
      <trkpt lat="43.65592" lon="6.17615">
        <ele>625</ele>
        <time>2025-01-15T12:45:28.188Z</time>
      </trkpt>
      <trkpt lat="43.65592" lon="6.17621">
        <ele>625.2</ele>
        <time>2025-01-15T12:45:34.021Z</time>
      </trkpt>
      <trkpt lat="43.65591" lon="6.17631">
        <ele>625.3</ele>
        <time>2025-01-15T12:45:42.285Z</time>
      </trkpt>
      <trkpt lat="43.6559" lon="6.1764">
        <ele>625.4</ele>
        <time>2025-01-15T12:45:49.773Z</time>
      </trkpt>
      <trkpt lat="43.6559" lon="6.1765">
        <ele>625.2</ele>
        <time>2025-01-15T12:45:56.989Z</time>
      </trkpt>
      <trkpt lat="43.65591" lon="6.17657">
        <ele>625</ele>
        <time>2025-01-15T12:46:01.893Z</time>
      </trkpt>
      <trkpt lat="43.65591" lon="6.17664">
        <ele>624.9</ele>
        <time>2025-01-15T12:46:07.091Z</time>
      </trkpt>
      <trkpt lat="43.65591" lon="6.17674">
        <ele>624.7</ele>
        <time>2025-01-15T12:46:14.307Z</time>
      </trkpt>
      <trkpt lat="43.65592" lon="6.17684">
        <ele>624.5</ele>
        <time>2025-01-15T12:46:21.596Z</time>
      </trkpt>
      <trkpt lat="43.65592" lon="6.17692">
        <ele>624.4</ele>
        <time>2025-01-15T12:46:27.551Z</time>
      </trkpt>
      <trkpt lat="43.65592" lon="6.17701">
        <ele>624.1</ele>
        <time>2025-01-15T12:46:33.729Z</time>
      </trkpt>
      <trkpt lat="43.65591" lon="6.17712">
        <ele>623.6</ele>
        <time>2025-01-15T12:46:41.340Z</time>
      </trkpt>
      <trkpt lat="43.6559" lon="6.17719">
        <ele>623.4</ele>
        <time>2025-01-15T12:46:46.322Z</time>
      </trkpt>
      <trkpt lat="43.65588" lon="6.17729">
        <ele>622.9</ele>
        <time>2025-01-15T12:46:53.444Z</time>
      </trkpt>
      <trkpt lat="43.65585" lon="6.17736">
        <ele>622.6</ele>
        <time>2025-01-15T12:46:59.029Z</time>
      </trkpt>
      <trkpt lat="43.65582" lon="6.17744">
        <ele>622</ele>
        <time>2025-01-15T12:47:05.214Z</time>
      </trkpt>
      <trkpt lat="43.65579" lon="6.17752">
        <ele>621.3</ele>
        <time>2025-01-15T12:47:11.097Z</time>
      </trkpt>
      <trkpt lat="43.65576" lon="6.17759">
        <ele>620.7</ele>
        <time>2025-01-15T12:47:16.980Z</time>
      </trkpt>
      <trkpt lat="43.65574" lon="6.17767">
        <ele>620.3</ele>
        <time>2025-01-15T12:47:22.553Z</time>
      </trkpt>
      <trkpt lat="43.65573" lon="6.17775">
        <ele>619.9</ele>
        <time>2025-01-15T12:47:28.127Z</time>
      </trkpt>
      <trkpt lat="43.65571" lon="6.17782">
        <ele>619.5</ele>
        <time>2025-01-15T12:47:33.700Z</time>
      </trkpt>
      <trkpt lat="43.65569" lon="6.1779">
        <ele>619</ele>
        <time>2025-01-15T12:47:39.273Z</time>
      </trkpt>
      <trkpt lat="43.65567" lon="6.17802">
        <ele>618.4</ele>
        <time>2025-01-15T12:47:47.392Z</time>
      </trkpt>
      <trkpt lat="43.65565" lon="6.17813">
        <ele>617.8</ele>
        <time>2025-01-15T12:47:55.511Z</time>
      </trkpt>
      <trkpt lat="43.65563" lon="6.17825">
        <ele>617.1</ele>
        <time>2025-01-15T12:48:03.630Z</time>
      </trkpt>
      <trkpt lat="43.65561" lon="6.17836">
        <ele>616.5</ele>
        <time>2025-01-15T12:48:11.750Z</time>
      </trkpt>
      <trkpt lat="43.65559" lon="6.17846">
        <ele>615.9</ele>
        <time>2025-01-15T12:48:18.872Z</time>
      </trkpt>
      <trkpt lat="43.65557" lon="6.17856">
        <ele>615.3</ele>
        <time>2025-01-15T12:48:25.994Z</time>
      </trkpt>
      <trkpt lat="43.65555" lon="6.17864">
        <ele>614.7</ele>
        <time>2025-01-15T12:48:31.567Z</time>
      </trkpt>
      <trkpt lat="43.65553" lon="6.17871">
        <ele>614</ele>
        <time>2025-01-15T12:48:37.141Z</time>
      </trkpt>
      <trkpt lat="43.6555" lon="6.17879">
        <ele>613.3</ele>
        <time>2025-01-15T12:48:42.714Z</time>
      </trkpt>
      <trkpt lat="43.65548" lon="6.17886">
        <ele>612.7</ele>
        <time>2025-01-15T12:48:48.288Z</time>
      </trkpt>
      <trkpt lat="43.65547" lon="6.17893">
        <ele>612.4</ele>
        <time>2025-01-15T12:48:53.237Z</time>
      </trkpt>
      <trkpt lat="43.65546" lon="6.179">
        <ele>612.2</ele>
        <time>2025-01-15T12:48:58.278Z</time>
      </trkpt>
      <trkpt lat="43.65544" lon="6.17907">
        <ele>612</ele>
        <time>2025-01-15T12:49:03.319Z</time>
      </trkpt>
      <trkpt lat="43.65543" lon="6.17914">
        <ele>611.7</ele>
        <time>2025-01-15T12:49:08.268Z</time>
      </trkpt>
      <trkpt lat="43.65542" lon="6.17922">
        <ele>611.4</ele>
        <time>2025-01-15T12:49:13.775Z</time>
      </trkpt>
      <trkpt lat="43.6554" lon="6.1793">
        <ele>611</ele>
        <time>2025-01-15T12:49:19.282Z</time>
      </trkpt>
      <trkpt lat="43.65539" lon="6.17937">
        <ele>610.6</ele>
        <time>2025-01-15T12:49:24.789Z</time>
      </trkpt>
      <trkpt lat="43.65537" lon="6.17945">
        <ele>610.3</ele>
        <time>2025-01-15T12:49:30.297Z</time>
      </trkpt>
      <trkpt lat="43.65536" lon="6.17952">
        <ele>610.1</ele>
        <time>2025-01-15T12:49:34.961Z</time>
      </trkpt>
      <trkpt lat="43.65535" lon="6.17958">
        <ele>610</ele>
        <time>2025-01-15T12:49:39.918Z</time>
      </trkpt>
      <trkpt lat="43.65533" lon="6.17965">
        <ele>609.8</ele>
        <time>2025-01-15T12:49:44.582Z</time>
      </trkpt>
      <trkpt lat="43.65532" lon="6.17971">
        <ele>609.6</ele>
        <time>2025-01-15T12:49:49.246Z</time>
      </trkpt>
      <trkpt lat="43.6553" lon="6.17981">
        <ele>609.2</ele>
        <time>2025-01-15T12:49:56.509Z</time>
      </trkpt>
      <trkpt lat="43.65527" lon="6.17991">
        <ele>608.8</ele>
        <time>2025-01-15T12:50:03.772Z</time>
        <extensions>
          <visugpx:TrkExtension xmlns:visugpx="https://www.visugpx.com/editgpx/">
            <visugpx:node>3</visugpx:node>
            </visugpx:TrkExtension>
        </extensions>
      </trkpt>
      <trkpt lat="43.65525" lon="6.17999">
        <ele>608.4</ele>
        <time>2025-01-15T12:50:09.259Z</time>
      </trkpt>
      <trkpt lat="43.65523" lon="6.18006">
        <ele>608.2</ele>
        <time>2025-01-15T12:50:14.909Z</time>
      </trkpt>
      <trkpt lat="43.65522" lon="6.18014">
        <ele>608.2</ele>
        <time>2025-01-15T12:50:21.014Z</time>
      </trkpt>
      <trkpt lat="43.6552" lon="6.18021">
        <ele>608.3</ele>
        <time>2025-01-15T12:50:27.466Z</time>
      </trkpt>
      <trkpt lat="43.65519" lon="6.1803">
        <ele>608.5</ele>
        <time>2025-01-15T12:50:35.045Z</time>
      </trkpt>
      <trkpt lat="43.65517" lon="6.18038">
        <ele>608.8</ele>
        <time>2025-01-15T12:50:43.023Z</time>
      </trkpt>
      <trkpt lat="43.65514" lon="6.18049">
        <ele>609</ele>
        <time>2025-01-15T12:50:52.948Z</time>
      </trkpt>
      <trkpt lat="43.65511" lon="6.1806">
        <ele>609.3</ele>
        <time>2025-01-15T12:51:03.253Z</time>
      </trkpt>
      <trkpt lat="43.65509" lon="6.18069">
        <ele>609.8</ele>
        <time>2025-01-15T12:51:12.612Z</time>
      </trkpt>
      <trkpt lat="43.65507" lon="6.18078">
        <ele>610.3</ele>
        <time>2025-01-15T12:51:21.970Z</time>
      </trkpt>
      <trkpt lat="43.65504" lon="6.18088">
        <ele>610.7</ele>
        <time>2025-01-15T12:51:31.607Z</time>
      </trkpt>
      <trkpt lat="43.65501" lon="6.18097">
        <ele>611.1</ele>
        <time>2025-01-15T12:51:41.244Z</time>
      </trkpt>
      <trkpt lat="43.65497" lon="6.18108">
        <ele>611.4</ele>
        <time>2025-01-15T12:51:51.898Z</time>
      </trkpt>
      <trkpt lat="43.65492" lon="6.18118">
        <ele>612</ele>
        <time>2025-01-15T12:52:03.808Z</time>
      </trkpt>
      <trkpt lat="43.65489" lon="6.18124">
        <ele>612.3</ele>
        <time>2025-01-15T12:52:10.205Z</time>
      </trkpt>
      <trkpt lat="43.65487" lon="6.18129">
        <ele>612.6</ele>
        <time>2025-01-15T12:52:16.601Z</time>
      </trkpt>
      <trkpt lat="43.65484" lon="6.18135">
        <ele>613</ele>
        <time>2025-01-15T12:52:23.460Z</time>
      </trkpt>
      <trkpt lat="43.65481" lon="6.1814">
        <ele>613.4</ele>
        <time>2025-01-15T12:52:30.318Z</time>
      </trkpt>
      <trkpt lat="43.65478" lon="6.18147">
        <ele>613.7</ele>
        <time>2025-01-15T12:52:38.269Z</time>
      </trkpt>
      <trkpt lat="43.65474" lon="6.18155">
        <ele>614.2</ele>
        <time>2025-01-15T12:52:47.107Z</time>
      </trkpt>
      <trkpt lat="43.65471" lon="6.18162">
        <ele>614.6</ele>
        <time>2025-01-15T12:52:55.486Z</time>
      </trkpt>
      <trkpt lat="43.65467" lon="6.18169">
        <ele>615.2</ele>
        <time>2025-01-15T12:53:04.818Z</time>
      </trkpt>
      <trkpt lat="43.65461" lon="6.18178">
        <ele>615.8</ele>
        <time>2025-01-15T12:53:16.481Z</time>
      </trkpt>
      <trkpt lat="43.65455" lon="6.18186">
        <ele>616.4</ele>
        <time>2025-01-15T12:53:28.144Z</time>
      </trkpt>
      <trkpt lat="43.65449" lon="6.18194">
        <ele>616.9</ele>
        <time>2025-01-15T12:53:38.835Z</time>
      </trkpt>
      <trkpt lat="43.65443" lon="6.18201">
        <ele>617.5</ele>
        <time>2025-01-15T12:53:49.978Z</time>
      </trkpt>
      <trkpt lat="43.65437" lon="6.18208">
        <ele>618.1</ele>
        <time>2025-01-15T12:54:01.276Z</time>
      </trkpt>
      <trkpt lat="43.6543" lon="6.18215">
        <ele>618.6</ele>
        <time>2025-01-15T12:54:12.124Z</time>
      </trkpt>
      <trkpt lat="43.65424" lon="6.1822">
        <ele>618.9</ele>
        <time>2025-01-15T12:54:20.631Z</time>
      </trkpt>
      <trkpt lat="43.65418" lon="6.18224">
        <ele>619.1</ele>
        <time>2025-01-15T12:54:28.745Z</time>
      </trkpt>
      <trkpt lat="43.65412" lon="6.18229">
        <ele>619.1</ele>
        <time>2025-01-15T12:54:36.148Z</time>
      </trkpt>
      <trkpt lat="43.65406" lon="6.18233">
        <ele>619.3</ele>
        <time>2025-01-15T12:54:44.262Z</time>
      </trkpt>
      <trkpt lat="43.654" lon="6.18241">
        <ele>619.9</ele>
        <time>2025-01-15T12:54:56.041Z</time>
      </trkpt>
      <trkpt lat="43.65393" lon="6.18249">
        <ele>620.8</ele>
        <time>2025-01-15T12:55:09.298Z</time>
      </trkpt>
      <trkpt lat="43.65388" lon="6.18256">
        <ele>621.1</ele>
        <time>2025-01-15T12:55:18.370Z</time>
      </trkpt>
      <trkpt lat="43.65382" lon="6.18263">
        <ele>621.2</ele>
        <time>2025-01-15T12:55:26.690Z</time>
      </trkpt>
      <trkpt lat="43.65377" lon="6.18269">
        <ele>621.4</ele>
        <time>2025-01-15T12:55:35.374Z</time>
      </trkpt>
      <trkpt lat="43.65371" lon="6.18276">
        <ele>621.9</ele>
        <time>2025-01-15T12:55:45.297Z</time>
      </trkpt>
      <trkpt lat="43.65366" lon="6.18282">
        <ele>622.1</ele>
        <time>2025-01-15T12:55:53.319Z</time>
      </trkpt>
      <trkpt lat="43.65361" lon="6.18289">
        <ele>622.4</ele>
        <time>2025-01-15T12:56:01.735Z</time>
      </trkpt>
      <trkpt lat="43.65356" lon="6.18295">
        <ele>622.3</ele>
        <time>2025-01-15T12:56:08.722Z</time>
      </trkpt>
      <trkpt lat="43.65351" lon="6.18301">
        <ele>622.4</ele>
        <time>2025-01-15T12:56:16.377Z</time>
      </trkpt>
      <trkpt lat="43.65347" lon="6.18306">
        <ele>622.5</ele>
        <time>2025-01-15T12:56:22.111Z</time>
      </trkpt>
      <trkpt lat="43.65344" lon="6.1831">
        <ele>622.6</ele>
        <time>2025-01-15T12:56:27.845Z</time>
      </trkpt>
      <trkpt lat="43.6534" lon="6.18315">
        <ele>622.7</ele>
        <time>2025-01-15T12:56:33.579Z</time>
      </trkpt>
      <trkpt lat="43.65336" lon="6.18319">
        <ele>623</ele>
        <time>2025-01-15T12:56:40.111Z</time>
      </trkpt>
      <trkpt lat="43.65333" lon="6.18324">
        <ele>623.2</ele>
        <time>2025-01-15T12:56:46.028Z</time>
      </trkpt>
      <trkpt lat="43.65329" lon="6.18328">
        <ele>623.3</ele>
        <time>2025-01-15T12:56:51.560Z</time>
      </trkpt>
      <trkpt lat="43.65326" lon="6.18335">
        <ele>623.7</ele>
        <time>2025-01-15T12:56:59.476Z</time>
      </trkpt>
      <trkpt lat="43.65322" lon="6.18341">
        <ele>623.8</ele>
        <time>2025-01-15T12:57:06.179Z</time>
      </trkpt>
      <trkpt lat="43.65319" lon="6.18348">
        <ele>624</ele>
        <time>2025-01-15T12:57:13.572Z</time>
      </trkpt>
      <trkpt lat="43.65315" lon="6.18355">
        <ele>624.4</ele>
        <time>2025-01-15T12:57:21.794Z</time>
      </trkpt>
      <trkpt lat="43.65312" lon="6.18362">
        <ele>624.8</ele>
        <time>2025-01-15T12:57:30.016Z</time>
      </trkpt>
      <trkpt lat="43.65308" lon="6.18369">
        <ele>624.9</ele>
        <time>2025-01-15T12:57:37.037Z</time>
      </trkpt>
      <trkpt lat="43.65303" lon="6.18377">
        <ele>624.9</ele>
        <time>2025-01-15T12:57:45.331Z</time>
      </trkpt>
      <trkpt lat="43.65296" lon="6.18384">
        <ele>625</ele>
        <time>2025-01-15T12:57:55.042Z</time>
      </trkpt>
      <trkpt lat="43.65289" lon="6.18391">
        <ele>625.6</ele>
        <time>2025-01-15T12:58:06.756Z</time>
      </trkpt>
      <trkpt lat="43.65283" lon="6.18395">
        <ele>625.8</ele>
        <time>2025-01-15T12:58:14.610Z</time>
      </trkpt>
      <trkpt lat="43.65277" lon="6.18399">
        <ele>626</ele>
        <time>2025-01-15T12:58:22.464Z</time>
      </trkpt>
      <trkpt lat="43.65271" lon="6.18402">
        <ele>625.9</ele>
        <time>2025-01-15T12:58:29.281Z</time>
      </trkpt>
      <trkpt lat="43.65265" lon="6.18406">
        <ele>625.9</ele>
        <time>2025-01-15T12:58:36.422Z</time>
      </trkpt>
      <trkpt lat="43.6526" lon="6.18411">
        <ele>626.2</ele>
        <time>2025-01-15T12:58:44.464Z</time>
      </trkpt>
      <trkpt lat="43.65254" lon="6.18415">
        <ele>626.7</ele>
        <time>2025-01-15T12:58:53.390Z</time>
      </trkpt>
      <trkpt lat="43.65249" lon="6.1842">
        <ele>627</ele>
        <time>2025-01-15T12:59:01.432Z</time>
      </trkpt>
      <trkpt lat="43.65243" lon="6.18424">
        <ele>626.8</ele>
        <time>2025-01-15T12:59:07.738Z</time>
      </trkpt>
      <trkpt lat="43.65236" lon="6.18427">
        <ele>626.6</ele>
        <time>2025-01-15T12:59:15.055Z</time>
      </trkpt>
      <trkpt lat="43.65232" lon="6.1843">
        <ele>626.5</ele>
        <time>2025-01-15T12:59:20.153Z</time>
      </trkpt>
      <trkpt lat="43.65227" lon="6.18433">
        <ele>626.4</ele>
        <time>2025-01-15T12:59:25.250Z</time>
      </trkpt>
      <trkpt lat="43.65219" lon="6.18438">
        <ele>626.2</ele>
        <time>2025-01-15T12:59:34.135Z</time>
      </trkpt>
      <trkpt lat="43.65212" lon="6.18445">
        <ele>625.9</ele>
        <time>2025-01-15T12:59:42.573Z</time>
      </trkpt>
      <trkpt lat="43.65207" lon="6.18451">
        <ele>625.6</ele>
        <time>2025-01-15T12:59:48.856Z</time>
      </trkpt>
      <trkpt lat="43.65203" lon="6.18456">
        <ele>625.3</ele>
        <time>2025-01-15T12:59:53.749Z</time>
      </trkpt>
      <trkpt lat="43.65199" lon="6.1846">
        <ele>625.1</ele>
        <time>2025-01-15T12:59:58.727Z</time>
      </trkpt>
      <trkpt lat="43.65194" lon="6.1847">
        <ele>624.8</ele>
        <time>2025-01-15T13:00:07.332Z</time>
      </trkpt>
      <trkpt lat="43.6519" lon="6.18476">
        <ele>624.4</ele>
        <time>2025-01-15T13:00:12.933Z</time>
      </trkpt>
      <trkpt lat="43.65186" lon="6.18482">
        <ele>623.9</ele>
        <time>2025-01-15T13:00:18.534Z</time>
      </trkpt>
      <trkpt lat="43.65183" lon="6.18491">
        <ele>623.9</ele>
        <time>2025-01-15T13:00:26.308Z</time>
      </trkpt>
      <trkpt lat="43.6518" lon="6.18502">
        <ele>623.9</ele>
        <time>2025-01-15T13:00:35.531Z</time>
      </trkpt>
      <trkpt lat="43.65177" lon="6.18512">
        <ele>623.5</ele>
        <time>2025-01-15T13:00:42.963Z</time>
      </trkpt>
      <trkpt lat="43.65176" lon="6.18521">
        <ele>623.3</ele>
        <time>2025-01-15T13:00:49.582Z</time>
      </trkpt>
      <trkpt lat="43.65174" lon="6.1853">
        <ele>623</ele>
        <time>2025-01-15T13:00:55.923Z</time>
      </trkpt>
      <trkpt lat="43.65172" lon="6.18541">
        <ele>622.7</ele>
        <time>2025-01-15T13:01:03.894Z</time>
      </trkpt>
      <trkpt lat="43.65172" lon="6.18546">
        <ele>622.6</ele>
        <time>2025-01-15T13:01:07.502Z</time>
      </trkpt>
      <trkpt lat="43.65172" lon="6.18547">
        <ele>622.6</ele>
        <time>2025-01-15T13:01:08.287Z</time>
      </trkpt>
      <trkpt lat="43.65175" lon="6.18546">
        <ele>623</ele>
        <time>2025-01-15T13:01:13.447Z</time>
        <extensions>
          <visugpx:TrkExtension xmlns:visugpx="https://www.visugpx.com/editgpx/">
            <visugpx:node>4</visugpx:node>
            </visugpx:TrkExtension>
        </extensions>
      </trkpt>
      <trkpt lat="43.65172" lon="6.18547">
        <ele>622.6</ele>
        <time>2025-01-15T13:01:16.375Z</time>
      </trkpt>
      <trkpt lat="43.65175" lon="6.18557">
        <ele>622.8</ele>
        <time>2025-01-15T13:01:25.575Z</time>
      </trkpt>
      <trkpt lat="43.65179" lon="6.18563">
        <ele>623</ele>
        <time>2025-01-15T13:01:32.047Z</time>
      </trkpt>
      <trkpt lat="43.65182" lon="6.18568">
        <ele>623.2</ele>
        <time>2025-01-15T13:01:38.520Z</time>
      </trkpt>
      <trkpt lat="43.65186" lon="6.18574">
        <ele>623.4</ele>
        <time>2025-01-15T13:01:44.992Z</time>
      </trkpt>
      <trkpt lat="43.65189" lon="6.18579">
        <ele>623.6</ele>
        <time>2025-01-15T13:01:51.465Z</time>
      </trkpt>
      <trkpt lat="43.65194" lon="6.18585">
        <ele>623.9</ele>
        <time>2025-01-15T13:02:00.183Z</time>
      </trkpt>
      <trkpt lat="43.652" lon="6.18592">
        <ele>623.3</ele>
        <time>2025-01-15T13:02:06.847Z</time>
      </trkpt>
      <trkpt lat="43.65205" lon="6.18598">
        <ele>622.8</ele>
        <time>2025-01-15T13:02:13.512Z</time>
      </trkpt>
      <trkpt lat="43.65211" lon="6.18604">
        <ele>622.4</ele>
        <time>2025-01-15T13:02:20.177Z</time>
      </trkpt>
      <trkpt lat="43.65216" lon="6.1861">
        <ele>622</ele>
        <time>2025-01-15T13:02:26.841Z</time>
      </trkpt>
      <trkpt lat="43.65221" lon="6.18617">
        <ele>621.6</ele>
        <time>2025-01-15T13:02:33.506Z</time>
      </trkpt>
      <trkpt lat="43.65227" lon="6.18623">
        <ele>621</ele>
        <time>2025-01-15T13:02:40.171Z</time>
      </trkpt>
      <trkpt lat="43.65232" lon="6.18629">
        <ele>620.4</ele>
        <time>2025-01-15T13:02:46.835Z</time>
        <extensions>
          <visugpx:TrkExtension xmlns:visugpx="https://www.visugpx.com/editgpx/">
            <visugpx:node>5</visugpx:node>
            </visugpx:TrkExtension>
        </extensions>
      </trkpt>
      <trkpt lat="43.65237" lon="6.18635">
        <ele>619.8</ele>
        <time>2025-01-15T13:02:52.768Z</time>
      </trkpt>
      <trkpt lat="43.65241" lon="6.18641">
        <ele>619.2</ele>
        <time>2025-01-15T13:02:58.700Z</time>
      </trkpt>
      <trkpt lat="43.65247" lon="6.18648">
        <ele>618.4</ele>
        <time>2025-01-15T13:03:06.387Z</time>
      </trkpt>
      <trkpt lat="43.65254" lon="6.18655">
        <ele>617.7</ele>
        <time>2025-01-15T13:03:14.074Z</time>
      </trkpt>
      <trkpt lat="43.6526" lon="6.18662">
        <ele>617</ele>
        <time>2025-01-15T13:03:21.761Z</time>
      </trkpt>
      <trkpt lat="43.65266" lon="6.1867">
        <ele>616.3</ele>
        <time>2025-01-15T13:03:29.448Z</time>
      </trkpt>
      <trkpt lat="43.65272" lon="6.18677">
        <ele>615.8</ele>
        <time>2025-01-15T13:03:37.135Z</time>
      </trkpt>
      <trkpt lat="43.65279" lon="6.18684">
        <ele>615.4</ele>
        <time>2025-01-15T13:03:44.822Z</time>
      </trkpt>
      <trkpt lat="43.65285" lon="6.18691">
        <ele>615.1</ele>
        <time>2025-01-15T13:03:52.681Z</time>
      </trkpt>
      <trkpt lat="43.65291" lon="6.18698">
        <ele>614.8</ele>
        <time>2025-01-15T13:04:00.540Z</time>
      </trkpt>
      <trkpt lat="43.65295" lon="6.18702">
        <ele>614.4</ele>
        <time>2025-01-15T13:04:05.078Z</time>
      </trkpt>
      <trkpt lat="43.65299" lon="6.18706">
        <ele>614</ele>
        <time>2025-01-15T13:04:09.616Z</time>
      </trkpt>
      <trkpt lat="43.65303" lon="6.1871">
        <ele>613.5</ele>
        <time>2025-01-15T13:04:14.154Z</time>
      </trkpt>
      <trkpt lat="43.65307" lon="6.18714">
        <ele>612.9</ele>
        <time>2025-01-15T13:04:18.692Z</time>
      </trkpt>
      <trkpt lat="43.6531" lon="6.18717">
        <ele>612.1</ele>
        <time>2025-01-15T13:04:23.230Z</time>
      </trkpt>
      <trkpt lat="43.65314" lon="6.18721">
        <ele>611.5</ele>
        <time>2025-01-15T13:04:27.768Z</time>
      </trkpt>
      <trkpt lat="43.65318" lon="6.18725">
        <ele>610.9</ele>
        <time>2025-01-15T13:04:32.306Z</time>
      </trkpt>
      <trkpt lat="43.65322" lon="6.18729">
        <ele>610.4</ele>
        <time>2025-01-15T13:04:36.844Z</time>
      </trkpt>
      <trkpt lat="43.65318" lon="6.18736">
        <ele>610.4</ele>
        <time>2025-01-15T13:04:44.191Z</time>
      </trkpt>
      <trkpt lat="43.65313" lon="6.18743">
        <ele>610.5</ele>
        <time>2025-01-15T13:04:51.882Z</time>
      </trkpt>
      <trkpt lat="43.65313" lon="6.18744">
        <ele>610.5</ele>
        <time>2025-01-15T13:04:52.667Z</time>
      </trkpt>
      <trkpt lat="43.65312" lon="6.18746">
        <ele>610.5</ele>
        <time>2025-01-15T13:04:54.574Z</time>
      </trkpt>
      <trkpt lat="43.65307" lon="6.18739">
        <ele>611.3</ele>
        <time>2025-01-15T13:05:05.763Z</time>
        <extensions>
          <visugpx:TrkExtension xmlns:visugpx="https://www.visugpx.com/editgpx/">
            <visugpx:node>6</visugpx:node>
            </visugpx:TrkExtension>
        </extensions>
      </trkpt>
      <trkpt lat="43.65312" lon="6.18746">
        <ele>610.5</ele>
        <time>2025-01-15T13:05:12.516Z</time>
      </trkpt>
      <trkpt lat="43.65308" lon="6.18751">
        <ele>610.7</ele>
        <time>2025-01-15T13:05:19.089Z</time>
      </trkpt>
      <trkpt lat="43.65304" lon="6.18757">
        <ele>610.8</ele>
        <time>2025-01-15T13:05:25.274Z</time>
      </trkpt>
      <trkpt lat="43.65301" lon="6.18762">
        <ele>610.9</ele>
        <time>2025-01-15T13:05:31.458Z</time>
      </trkpt>
      <trkpt lat="43.65297" lon="6.18768">
        <ele>611</ele>
        <time>2025-01-15T13:05:37.643Z</time>
      </trkpt>
      <trkpt lat="43.65294" lon="6.18773">
        <ele>611</ele>
        <time>2025-01-15T13:05:43.480Z</time>
      </trkpt>
      <trkpt lat="43.6529" lon="6.18779">
        <ele>611.1</ele>
        <time>2025-01-15T13:05:49.665Z</time>
      </trkpt>
      <trkpt lat="43.65286" lon="6.18784">
        <ele>611.2</ele>
        <time>2025-01-15T13:05:55.849Z</time>
      </trkpt>
      <trkpt lat="43.65283" lon="6.1879">
        <ele>611.2</ele>
        <time>2025-01-15T13:06:01.686Z</time>
      </trkpt>
      <trkpt lat="43.65279" lon="6.18795">
        <ele>611.3</ele>
        <time>2025-01-15T13:06:07.871Z</time>
      </trkpt>
      <trkpt lat="43.65273" lon="6.18803">
        <ele>611.3</ele>
        <time>2025-01-15T13:06:16.911Z</time>
        <extensions>
          <visugpx:TrkExtension xmlns:visugpx="https://www.visugpx.com/editgpx/">
            <visugpx:node>7</visugpx:node>
            </visugpx:TrkExtension>
        </extensions>
      </trkpt>
      <trkpt lat="43.6527" lon="6.18806">
        <ele>611.3</ele>
        <time>2025-01-15T13:06:20.926Z</time>
      </trkpt>
      <trkpt lat="43.65266" lon="6.18811">
        <ele>611.2</ele>
        <time>2025-01-15T13:06:26.389Z</time>
      </trkpt>
      <trkpt lat="43.65262" lon="6.18816">
        <ele>611.2</ele>
        <time>2025-01-15T13:06:32.171Z</time>
      </trkpt>
      <trkpt lat="43.65258" lon="6.18821">
        <ele>611.2</ele>
        <time>2025-01-15T13:06:37.954Z</time>
      </trkpt>
      <trkpt lat="43.65254" lon="6.18826">
        <ele>611.1</ele>
        <time>2025-01-15T13:06:43.417Z</time>
      </trkpt>
      <trkpt lat="43.6525" lon="6.1883">
        <ele>611.1</ele>
        <time>2025-01-15T13:06:49.199Z</time>
      </trkpt>
      <trkpt lat="43.65246" lon="6.18835">
        <ele>611.3</ele>
        <time>2025-01-15T13:06:55.708Z</time>
      </trkpt>
      <trkpt lat="43.65242" lon="6.1884">
        <ele>611.5</ele>
        <time>2025-01-15T13:07:02.216Z</time>
      </trkpt>
      <trkpt lat="43.65238" lon="6.18845">
        <ele>611.7</ele>
        <time>2025-01-15T13:07:08.724Z</time>
      </trkpt>
      <trkpt lat="43.65242" lon="6.1885">
        <ele>611.4</ele>
        <time>2025-01-15T13:07:13.842Z</time>
      </trkpt>
      <trkpt lat="43.65241" lon="6.18851">
        <ele>611.4</ele>
        <time>2025-01-15T13:07:15.180Z</time>
        <extensions>
          <visugpx:TrkExtension xmlns:visugpx="https://www.visugpx.com/editgpx/">
            <visugpx:node>8</visugpx:node>
            </visugpx:TrkExtension>
        </extensions>
      </trkpt>
      <trkpt lat="43.65242" lon="6.1885">
        <ele>611.4</ele>
        <time>2025-01-15T13:07:16.518Z</time>
      </trkpt>
      <trkpt lat="43.65248" lon="6.18859">
        <ele>611.1</ele>
        <time>2025-01-15T13:07:25.188Z</time>
      </trkpt>
      <trkpt lat="43.65253" lon="6.18865">
        <ele>610.7</ele>
        <time>2025-01-15T13:07:31.120Z</time>
      </trkpt>
      <trkpt lat="43.65257" lon="6.18871">
        <ele>610.1</ele>
        <time>2025-01-15T13:07:37.053Z</time>
      </trkpt>
      <trkpt lat="43.65263" lon="6.18878">
        <ele>609.5</ele>
        <time>2025-01-15T13:07:44.503Z</time>
      </trkpt>
      <trkpt lat="43.65268" lon="6.18881">
        <ele>609</ele>
        <time>2025-01-15T13:07:49.243Z</time>
      </trkpt>
      <trkpt lat="43.65272" lon="6.18884">
        <ele>608.6</ele>
        <time>2025-01-15T13:07:53.983Z</time>
      </trkpt>
      <trkpt lat="43.65277" lon="6.18893">
        <ele>607.8</ele>
        <time>2025-01-15T13:08:01.773Z</time>
      </trkpt>
      <trkpt lat="43.6528" lon="6.18897">
        <ele>607.2</ele>
        <time>2025-01-15T13:08:05.728Z</time>
      </trkpt>
      <trkpt lat="43.65283" lon="6.18901">
        <ele>606.6</ele>
        <time>2025-01-15T13:08:09.683Z</time>
      </trkpt>
      <trkpt lat="43.65287" lon="6.18905">
        <ele>606</ele>
        <time>2025-01-15T13:08:14.368Z</time>
      </trkpt>
      <trkpt lat="43.65291" lon="6.18909">
        <ele>605.5</ele>
        <time>2025-01-15T13:08:19.052Z</time>
      </trkpt>
      <trkpt lat="43.65296" lon="6.18916">
        <ele>604.7</ele>
        <time>2025-01-15T13:08:25.805Z</time>
      </trkpt>
      <trkpt lat="43.65301" lon="6.18921">
        <ele>604.2</ele>
        <time>2025-01-15T13:08:31.660Z</time>
      </trkpt>
      <trkpt lat="43.65306" lon="6.18927">
        <ele>603.6</ele>
        <time>2025-01-15T13:08:37.943Z</time>
      </trkpt>
      <trkpt lat="43.65311" lon="6.18933">
        <ele>603</ele>
        <time>2025-01-15T13:08:44.226Z</time>
      </trkpt>
      <trkpt lat="43.65317" lon="6.18938">
        <ele>602.4</ele>
        <time>2025-01-15T13:08:50.472Z</time>
      </trkpt>
      <trkpt lat="43.65322" lon="6.18943">
        <ele>601.9</ele>
        <time>2025-01-15T13:08:56.718Z</time>
      </trkpt>
      <trkpt lat="43.65329" lon="6.18948">
        <ele>601.1</ele>
        <time>2025-01-15T13:09:03.776Z</time>
      </trkpt>
      <trkpt lat="43.65335" lon="6.18953">
        <ele>600.3</ele>
        <time>2025-01-15T13:09:10.834Z</time>
      </trkpt>
      <trkpt lat="43.65342" lon="6.18958">
        <ele>599.4</ele>
        <time>2025-01-15T13:09:18.310Z</time>
      </trkpt>
      <trkpt lat="43.65349" lon="6.18963">
        <ele>598.5</ele>
        <time>2025-01-15T13:09:25.786Z</time>
        <extensions>
          <visugpx:TrkExtension xmlns:visugpx="https://www.visugpx.com/editgpx/">
            <visugpx:node>9</visugpx:node>
            </visugpx:TrkExtension>
        </extensions>
      </trkpt>
      <trkpt lat="43.6535" lon="6.18963">
        <ele>598.5</ele>
        <time>2025-01-15T13:09:26.871Z</time>
      </trkpt>
      <trkpt lat="43.65355" lon="6.18968">
        <ele>597.7</ele>
        <time>2025-01-15T13:09:32.726Z</time>
      </trkpt>
      <trkpt lat="43.6536" lon="6.18973">
        <ele>597.1</ele>
        <time>2025-01-15T13:09:38.582Z</time>
      </trkpt>
      <trkpt lat="43.65367" lon="6.18979">
        <ele>596.2</ele>
        <time>2025-01-15T13:09:46.397Z</time>
      </trkpt>
      <trkpt lat="43.65374" lon="6.18984">
        <ele>595.3</ele>
        <time>2025-01-15T13:09:53.722Z</time>
      </trkpt>
      <trkpt lat="43.65381" lon="6.18988">
        <ele>594.2</ele>
        <time>2025-01-15T13:10:01.047Z</time>
      </trkpt>
      <trkpt lat="43.65386" lon="6.18991">
        <ele>593.3</ele>
        <time>2025-01-15T13:10:06.218Z</time>
      </trkpt>
      <trkpt lat="43.65391" lon="6.18994">
        <ele>592.6</ele>
        <time>2025-01-15T13:10:11.390Z</time>
      </trkpt>
      <trkpt lat="43.65398" lon="6.18998">
        <ele>591.9</ele>
        <time>2025-01-15T13:10:18.577Z</time>
      </trkpt>
      <trkpt lat="43.65405" lon="6.19005">
        <ele>591</ele>
        <time>2025-01-15T13:10:26.775Z</time>
      </trkpt>
      <trkpt lat="43.65411" lon="6.19013">
        <ele>590</ele>
        <time>2025-01-15T13:10:34.450Z</time>
      </trkpt>
      <trkpt lat="43.65417" lon="6.1902">
        <ele>588.8</ele>
        <time>2025-01-15T13:10:42.126Z</time>
      </trkpt>
      <trkpt lat="43.65421" lon="6.19027">
        <ele>587.8</ele>
        <time>2025-01-15T13:10:48.249Z</time>
      </trkpt>
      <trkpt lat="43.65425" lon="6.19037">
        <ele>586.8</ele>
        <time>2025-01-15T13:10:56.093Z</time>
      </trkpt>
      <trkpt lat="43.65428" lon="6.19043">
        <ele>586.5</ele>
        <time>2025-01-15T13:11:00.822Z</time>
      </trkpt>
      <trkpt lat="43.65431" lon="6.19048">
        <ele>586.3</ele>
        <time>2025-01-15T13:11:05.612Z</time>
      </trkpt>
      <trkpt lat="43.65429" lon="6.19049">
        <ele>586.2</ele>
        <time>2025-01-15T13:11:07.630Z</time>
      </trkpt>
      <trkpt lat="43.65429" lon="6.1905">
        <ele>586.1</ele>
        <time>2025-01-15T13:11:08.316Z</time>
        <extensions>
          <visugpx:TrkExtension xmlns:visugpx="https://www.visugpx.com/editgpx/">
            <visugpx:node>10</visugpx:node>
            </visugpx:TrkExtension>
        </extensions>
      </trkpt>
      <trkpt lat="43.65429" lon="6.19049">
        <ele>586.2</ele>
        <time>2025-01-15T13:11:09.565Z</time>
      </trkpt>
      <trkpt lat="43.65425" lon="6.19051">
        <ele>585.9</ele>
        <time>2025-01-15T13:11:13.601Z</time>
      </trkpt>
      <trkpt lat="43.65421" lon="6.19055">
        <ele>585.4</ele>
        <time>2025-01-15T13:11:18.285Z</time>
      </trkpt>
      <trkpt lat="43.65418" lon="6.19058">
        <ele>585.3</ele>
        <time>2025-01-15T13:11:21.985Z</time>
      </trkpt>
      <trkpt lat="43.65414" lon="6.19061">
        <ele>585.5</ele>
        <time>2025-01-15T13:11:27.656Z</time>
      </trkpt>
      <trkpt lat="43.65412" lon="6.19064">
        <ele>585.7</ele>
        <time>2025-01-15T13:11:31.635Z</time>
      </trkpt>
      <trkpt lat="43.6541" lon="6.19066">
        <ele>585.9</ele>
        <time>2025-01-15T13:11:35.115Z</time>
      </trkpt>
      <trkpt lat="43.65407" lon="6.19069">
        <ele>586</ele>
        <time>2025-01-15T13:11:39.484Z</time>
      </trkpt>
      <trkpt lat="43.65405" lon="6.19072">
        <ele>586</ele>
        <time>2025-01-15T13:11:42.685Z</time>
      </trkpt>
      <trkpt lat="43.65405" lon="6.19075">
        <ele>586.1</ele>
        <time>2025-01-15T13:11:45.408Z</time>
      </trkpt>
      <trkpt lat="43.65405" lon="6.19079">
        <ele>586.1</ele>
        <time>2025-01-15T13:11:48.546Z</time>
      </trkpt>
      <trkpt lat="43.65404" lon="6.19082">
        <ele>586.1</ele>
        <time>2025-01-15T13:11:51.138Z</time>
      </trkpt>
      <trkpt lat="43.65403" lon="6.19086">
        <ele>586</ele>
        <time>2025-01-15T13:11:54.147Z</time>
      </trkpt>
      <trkpt lat="43.65402" lon="6.19089">
        <ele>585.9</ele>
        <time>2025-01-15T13:11:56.432Z</time>
      </trkpt>
      <trkpt lat="43.654" lon="6.19092">
        <ele>585.7</ele>
        <time>2025-01-15T13:11:59.233Z</time>
      </trkpt>
      <trkpt lat="43.65397" lon="6.19094">
        <ele>585.4</ele>
        <time>2025-01-15T13:12:02.393Z</time>
      </trkpt>
      <trkpt lat="43.65396" lon="6.19098">
        <ele>585.3</ele>
        <time>2025-01-15T13:12:05.402Z</time>
      </trkpt>
      <trkpt lat="43.65394" lon="6.19102">
        <ele>584.9</ele>
        <time>2025-01-15T13:12:08.739Z</time>
      </trkpt>
      <trkpt lat="43.65392" lon="6.19107">
        <ele>584.6</ele>
        <time>2025-01-15T13:12:12.661Z</time>
      </trkpt>
      <trkpt lat="43.65389" lon="6.19114">
        <ele>583.9</ele>
        <time>2025-01-15T13:12:18.247Z</time>
      </trkpt>
      <trkpt lat="43.65389" lon="6.19118">
        <ele>583.8</ele>
        <time>2025-01-15T13:12:21.074Z</time>
      </trkpt>
      <trkpt lat="43.65389" lon="6.19121">
        <ele>583.7</ele>
        <time>2025-01-15T13:12:23.134Z</time>
      </trkpt>
      <trkpt lat="43.65389" lon="6.19126">
        <ele>583.5</ele>
        <time>2025-01-15T13:12:26.566Z</time>
      </trkpt>
      <trkpt lat="43.6539" lon="6.19133">
        <ele>583.4</ele>
        <time>2025-01-15T13:12:31.844Z</time>
      </trkpt>
      <trkpt lat="43.65389" lon="6.1914">
        <ele>583</ele>
        <time>2025-01-15T13:12:36.742Z</time>
      </trkpt>
      <trkpt lat="43.65388" lon="6.19146">
        <ele>583.2</ele>
        <time>2025-01-15T13:12:42.310Z</time>
      </trkpt>
      <trkpt lat="43.65386" lon="6.19151">
        <ele>583.5</ele>
        <time>2025-01-15T13:12:47.974Z</time>
      </trkpt>
      <trkpt lat="43.65383" lon="6.19155">
        <ele>583.9</ele>
        <time>2025-01-15T13:12:54.160Z</time>
      </trkpt>
      <trkpt lat="43.65379" lon="6.19161">
        <ele>584.3</ele>
        <time>2025-01-15T13:13:02.117Z</time>
      </trkpt>
      <trkpt lat="43.65377" lon="6.19168">
        <ele>584.2</ele>
        <time>2025-01-15T13:13:07.701Z</time>
      </trkpt>
      <trkpt lat="43.65375" lon="6.19175">
        <ele>584.2</ele>
        <time>2025-01-15T13:13:13.243Z</time>
      </trkpt>
      <trkpt lat="43.65373" lon="6.19181">
        <ele>584.1</ele>
        <time>2025-01-15T13:13:18.464Z</time>
      </trkpt>
      <trkpt lat="43.65372" lon="6.19187">
        <ele>584</ele>
        <time>2025-01-15T13:13:23.126Z</time>
      </trkpt>
      <trkpt lat="43.6537" lon="6.19193">
        <ele>583.8</ele>
        <time>2025-01-15T13:13:27.497Z</time>
      </trkpt>
      <trkpt lat="43.65369" lon="6.192">
        <ele>583.7</ele>
        <time>2025-01-15T13:13:32.391Z</time>
      </trkpt>
      <trkpt lat="43.65368" lon="6.19206">
        <ele>583.6</ele>
        <time>2025-01-15T13:13:37.285Z</time>
      </trkpt>
      <trkpt lat="43.65368" lon="6.19213">
        <ele>583.6</ele>
        <time>2025-01-15T13:13:42.777Z</time>
      </trkpt>
      <trkpt lat="43.65368" lon="6.1922">
        <ele>583.5</ele>
        <time>2025-01-15T13:13:47.949Z</time>
      </trkpt>
      <trkpt lat="43.65368" lon="6.19224">
        <ele>583.5</ele>
        <time>2025-01-15T13:13:51.087Z</time>
      </trkpt>
      <trkpt lat="43.65367" lon="6.19227">
        <ele>583.3</ele>
        <time>2025-01-15T13:13:53.355Z</time>
      </trkpt>
      <trkpt lat="43.65362" lon="6.19237">
        <ele>582.6</ele>
        <time>2025-01-15T13:14:01.699Z</time>
      </trkpt>
      <trkpt lat="43.65359" lon="6.19242">
        <ele>582.4</ele>
        <time>2025-01-15T13:14:06.185Z</time>
      </trkpt>
      <trkpt lat="43.65356" lon="6.19247">
        <ele>582.3</ele>
        <time>2025-01-15T13:14:10.962Z</time>
      </trkpt>
      <trkpt lat="43.65353" lon="6.19253">
        <ele>582.3</ele>
        <time>2025-01-15T13:14:17.009Z</time>
      </trkpt>
      <trkpt lat="43.65349" lon="6.19259">
        <ele>582.3</ele>
        <time>2025-01-15T13:14:23.055Z</time>
      </trkpt>
      <trkpt lat="43.65346" lon="6.19265">
        <ele>582.2</ele>
        <time>2025-01-15T13:14:28.781Z</time>
      </trkpt>
      <trkpt lat="43.65342" lon="6.19271">
        <ele>581.9</ele>
        <time>2025-01-15T13:14:34.072Z</time>
      </trkpt>
      <trkpt lat="43.65338" lon="6.19279">
        <ele>581.3</ele>
        <time>2025-01-15T13:14:40.468Z</time>
      </trkpt>
      <trkpt lat="43.65334" lon="6.19286">
        <ele>581.1</ele>
        <time>2025-01-15T13:14:47.151Z</time>
      </trkpt>
      <trkpt lat="43.6533" lon="6.19294">
        <ele>581.1</ele>
        <time>2025-01-15T13:14:54.780Z</time>
      </trkpt>
      <trkpt lat="43.65326" lon="6.19302">
        <ele>581.3</ele>
        <time>2025-01-15T13:15:03.120Z</time>
      </trkpt>
      <trkpt lat="43.65323" lon="6.19308">
        <ele>581.3</ele>
        <time>2025-01-15T13:15:08.842Z</time>
      </trkpt>
      <trkpt lat="43.6532" lon="6.19314">
        <ele>581.2</ele>
        <time>2025-01-15T13:15:14.244Z</time>
      </trkpt>
      <trkpt lat="43.65317" lon="6.19322">
        <ele>580.9</ele>
        <time>2025-01-15T13:15:20.430Z</time>
      </trkpt>
      <trkpt lat="43.65317" lon="6.19328">
        <ele>580.6</ele>
        <time>2025-01-15T13:15:24.549Z</time>
      </trkpt>
      <trkpt lat="43.65316" lon="6.19337">
        <ele>580.3</ele>
        <time>2025-01-15T13:15:30.799Z</time>
      </trkpt>
      <trkpt lat="43.65313" lon="6.19345">
        <ele>580.2</ele>
        <time>2025-01-15T13:15:37.546Z</time>
        <extensions>
          <visugpx:TrkExtension xmlns:visugpx="https://www.visugpx.com/editgpx/">
            <visugpx:node>11</visugpx:node>
            </visugpx:TrkExtension>
        </extensions>
      </trkpt>
      <trkpt lat="43.65313" lon="6.19347">
        <ele>580.1</ele>
        <time>2025-01-15T13:15:38.919Z</time>
      </trkpt>
      <trkpt lat="43.6531" lon="6.19354">
        <ele>580</ele>
        <time>2025-01-15T13:15:44.980Z</time>
      </trkpt>
      <trkpt lat="43.65307" lon="6.19361">
        <ele>580</ele>
        <time>2025-01-15T13:15:51.363Z</time>
      </trkpt>
      <trkpt lat="43.65305" lon="6.19369">
        <ele>579.8</ele>
        <time>2025-01-15T13:15:57.380Z</time>
      </trkpt>
      <trkpt lat="43.65304" lon="6.19375">
        <ele>579.8</ele>
        <time>2025-01-15T13:16:02.211Z</time>
      </trkpt>
      <trkpt lat="43.65303" lon="6.19382">
        <ele>579.7</ele>
        <time>2025-01-15T13:16:07.489Z</time>
      </trkpt>
      <trkpt lat="43.65304" lon="6.19389">
        <ele>579.3</ele>
        <time>2025-01-15T13:16:12.387Z</time>
      </trkpt>
      <trkpt lat="43.65307" lon="6.19396">
        <ele>579.2</ele>
        <time>2025-01-15T13:16:18.448Z</time>
      </trkpt>
      <trkpt lat="43.6531" lon="6.19404">
        <ele>579.7</ele>
        <time>2025-01-15T13:16:27.505Z</time>
      </trkpt>
      <trkpt lat="43.65311" lon="6.19412">
        <ele>579.9</ele>
        <time>2025-01-15T13:16:34.594Z</time>
      </trkpt>
      <trkpt lat="43.6531" lon="6.1942">
        <ele>579.6</ele>
        <time>2025-01-15T13:16:40.168Z</time>
      </trkpt>
      <trkpt lat="43.65309" lon="6.19427">
        <ele>579.2</ele>
        <time>2025-01-15T13:16:44.730Z</time>
      </trkpt>
      <trkpt lat="43.65308" lon="6.19433">
        <ele>578.7</ele>
        <time>2025-01-15T13:16:49.292Z</time>
      </trkpt>
      <trkpt lat="43.65307" lon="6.19441">
        <ele>578.3</ele>
        <time>2025-01-15T13:16:54.633Z</time>
      </trkpt>
      <trkpt lat="43.65305" lon="6.19448">
        <ele>578.1</ele>
        <time>2025-01-15T13:17:00.119Z</time>
      </trkpt>
      <trkpt lat="43.65302" lon="6.19457">
        <ele>578.3</ele>
        <time>2025-01-15T13:17:08.603Z</time>
      </trkpt>
      <trkpt lat="43.65299" lon="6.19466">
        <ele>578.3</ele>
        <time>2025-01-15T13:17:16.377Z</time>
      </trkpt>
      <trkpt lat="43.65296" lon="6.19473">
        <ele>578</ele>
        <time>2025-01-15T13:17:21.670Z</time>
      </trkpt>
      <trkpt lat="43.65293" lon="6.19479">
        <ele>578</ele>
        <time>2025-01-15T13:17:27.719Z</time>
      </trkpt>
      <trkpt lat="43.65289" lon="6.19482">
        <ele>577.4</ele>
        <time>2025-01-15T13:17:32.037Z</time>
      </trkpt>
      <trkpt lat="43.65285" lon="6.19485">
        <ele>576.6</ele>
        <time>2025-01-15T13:17:36.355Z</time>
      </trkpt>
      <trkpt lat="43.65282" lon="6.19489">
        <ele>575.7</ele>
        <time>2025-01-15T13:17:40.664Z</time>
      </trkpt>
      <trkpt lat="43.65278" lon="6.19493">
        <ele>574.6</ele>
        <time>2025-01-15T13:17:44.973Z</time>
      </trkpt>
      <trkpt lat="43.65275" lon="6.19498">
        <ele>574.6</ele>
        <time>2025-01-15T13:17:50.069Z</time>
      </trkpt>
      <trkpt lat="43.65272" lon="6.19503">
        <ele>575</ele>
        <time>2025-01-15T13:17:56.788Z</time>
      </trkpt>
      <trkpt lat="43.6527" lon="6.19509">
        <ele>575.5</ele>
        <time>2025-01-15T13:18:03.899Z</time>
      </trkpt>
      <trkpt lat="43.65268" lon="6.19514">
        <ele>575.9</ele>
        <time>2025-01-15T13:18:10.488Z</time>
      </trkpt>
      <trkpt lat="43.65265" lon="6.1952">
        <ele>576</ele>
        <time>2025-01-15T13:18:15.795Z</time>
      </trkpt>
      <trkpt lat="43.65263" lon="6.19525">
        <ele>576</ele>
        <time>2025-01-15T13:18:20.752Z</time>
      </trkpt>
      <trkpt lat="43.65259" lon="6.19533">
        <ele>575.6</ele>
        <time>2025-01-15T13:18:27.149Z</time>
      </trkpt>
      <trkpt lat="43.65255" lon="6.1954">
        <ele>574.9</ele>
        <time>2025-01-15T13:18:33.545Z</time>
      </trkpt>
      <trkpt lat="43.65251" lon="6.19549">
        <ele>573.7</ele>
        <time>2025-01-15T13:18:40.506Z</time>
      </trkpt>
      <trkpt lat="43.65247" lon="6.19557">
        <ele>573.2</ele>
        <time>2025-01-15T13:18:47.467Z</time>
      </trkpt>
      <trkpt lat="43.65243" lon="6.19564">
        <ele>573.4</ele>
        <time>2025-01-15T13:18:55.239Z</time>
      </trkpt>
      <trkpt lat="43.65238" lon="6.1957">
        <ele>573.3</ele>
        <time>2025-01-15T13:19:01.974Z</time>
      </trkpt>
      <trkpt lat="43.65233" lon="6.19574">
        <ele>572.9</ele>
        <time>2025-01-15T13:19:07.292Z</time>
      </trkpt>
      <trkpt lat="43.65228" lon="6.19577">
        <ele>572.3</ele>
        <time>2025-01-15T13:19:12.610Z</time>
      </trkpt>
      <trkpt lat="43.65223" lon="6.19581">
        <ele>571.4</ele>
        <time>2025-01-15T13:19:18.507Z</time>
      </trkpt>
      <trkpt lat="43.65217" lon="6.19585">
        <ele>571.6</ele>
        <time>2025-01-15T13:19:25.963Z</time>
      </trkpt>
      <trkpt lat="43.6521" lon="6.1959">
        <ele>572.3</ele>
        <time>2025-01-15T13:19:37.373Z</time>
      </trkpt>
      <trkpt lat="43.65205" lon="6.19594">
        <ele>572.5</ele>
        <time>2025-01-15T13:19:44.358Z</time>
      </trkpt>
      <trkpt lat="43.65201" lon="6.19604">
        <ele>572.2</ele>
        <time>2025-01-15T13:19:52.339Z</time>
      </trkpt>
      <trkpt lat="43.65196" lon="6.19613">
        <ele>571.3</ele>
        <time>2025-01-15T13:20:00.134Z</time>
      </trkpt>
      <trkpt lat="43.65196" lon="6.19613">
        <ele>571.3</ele>
        <time>2025-01-15T13:20:00.134Z</time>
      </trkpt>
      <trkpt lat="43.65193" lon="6.19611">
        <ele>571.3</ele>
        <time>2025-01-15T13:20:03.746Z</time>
        <extensions>
          <visugpx:TrkExtension xmlns:visugpx="https://www.visugpx.com/editgpx/">
            <visugpx:node>12</visugpx:node>
            </visugpx:TrkExtension>
        </extensions>
      </trkpt>
      <trkpt lat="43.65196" lon="6.19613">
        <ele>571.3</ele>
        <time>2025-01-15T13:20:07.358Z</time>
      </trkpt>
      <trkpt lat="43.65196" lon="6.19621">
        <ele>571.2</ele>
        <time>2025-01-15T13:20:12.946Z</time>
      </trkpt>
      <trkpt lat="43.65195" lon="6.19628">
        <ele>571.1</ele>
        <time>2025-01-15T13:20:18.534Z</time>
      </trkpt>
      <trkpt lat="43.65196" lon="6.19638">
        <ele>571.3</ele>
        <time>2025-01-15T13:20:27.108Z</time>
      </trkpt>
      <trkpt lat="43.65196" lon="6.19648">
        <ele>571.1</ele>
        <time>2025-01-15T13:20:34.343Z</time>
      </trkpt>
      <trkpt lat="43.65196" lon="6.19655">
        <ele>570.8</ele>
        <time>2025-01-15T13:20:38.811Z</time>
      </trkpt>
      <trkpt lat="43.65196" lon="6.19661">
        <ele>570.5</ele>
        <time>2025-01-15T13:20:43.280Z</time>
      </trkpt>
      <trkpt lat="43.65195" lon="6.19668">
        <ele>570.2</ele>
        <time>2025-01-15T13:20:47.749Z</time>
      </trkpt>
      <trkpt lat="43.65195" lon="6.19674">
        <ele>570.1</ele>
        <time>2025-01-15T13:20:52.537Z</time>
      </trkpt>
      <trkpt lat="43.65194" lon="6.19684">
        <ele>570.1</ele>
        <time>2025-01-15T13:21:00.068Z</time>
      </trkpt>
      <trkpt lat="43.65193" lon="6.19693">
        <ele>570.2</ele>
        <time>2025-01-15T13:21:07.945Z</time>
      </trkpt>
      <trkpt lat="43.65192" lon="6.19703">
        <ele>570.2</ele>
        <time>2025-01-15T13:21:15.477Z</time>
      </trkpt>
      <trkpt lat="43.65191" lon="6.19712">
        <ele>570.1</ele>
        <time>2025-01-15T13:21:22.685Z</time>
      </trkpt>
      <trkpt lat="43.65186" lon="6.19721">
        <ele>569.7</ele>
        <time>2025-01-15T13:21:30.475Z</time>
      </trkpt>
      <trkpt lat="43.65181" lon="6.1973">
        <ele>569.8</ele>
        <time>2025-01-15T13:21:39.720Z</time>
      </trkpt>
      <trkpt lat="43.65177" lon="6.19737">
        <ele>569.6</ele>
        <time>2025-01-15T13:21:46.093Z</time>
      </trkpt>
      <trkpt lat="43.65173" lon="6.19744">
        <ele>569.2</ele>
        <time>2025-01-15T13:21:52.217Z</time>
      </trkpt>
      <trkpt lat="43.65169" lon="6.19748">
        <ele>568.4</ele>
        <time>2025-01-15T13:21:57.001Z</time>
      </trkpt>
      <trkpt lat="43.65165" lon="6.19752">
        <ele>568.1</ele>
        <time>2025-01-15T13:22:01.785Z</time>
      </trkpt>
      <trkpt lat="43.6516" lon="6.19755">
        <ele>568.3</ele>
        <time>2025-01-15T13:22:07.981Z</time>
      </trkpt>
      <trkpt lat="43.65156" lon="6.19759">
        <ele>568.4</ele>
        <time>2025-01-15T13:22:13.798Z</time>
      </trkpt>
      <trkpt lat="43.65149" lon="6.19765">
        <ele>568.4</ele>
        <time>2025-01-15T13:22:23.004Z</time>
      </trkpt>
      <trkpt lat="43.65141" lon="6.1977">
        <ele>568.4</ele>
        <time>2025-01-15T13:22:32.211Z</time>
      </trkpt>
      <trkpt lat="43.65136" lon="6.19772">
        <ele>568.3</ele>
        <time>2025-01-15T13:22:37.222Z</time>
      </trkpt>
      <trkpt lat="43.65132" lon="6.19774">
        <ele>568.4</ele>
        <time>2025-01-15T13:22:42.901Z</time>
      </trkpt>
      <trkpt lat="43.65127" lon="6.19775">
        <ele>568.4</ele>
        <time>2025-01-15T13:22:48.232Z</time>
      </trkpt>
      <trkpt lat="43.65122" lon="6.19777">
        <ele>568.3</ele>
        <time>2025-01-15T13:22:53.242Z</time>
      </trkpt>
      <trkpt lat="43.65117" lon="6.19777">
        <ele>568.2</ele>
        <time>2025-01-15T13:22:58.889Z</time>
      </trkpt>
      <trkpt lat="43.65111" lon="6.19778">
        <ele>568</ele>
        <time>2025-01-15T13:23:04.237Z</time>
      </trkpt>
      <trkpt lat="43.65106" lon="6.19778">
        <ele>568</ele>
        <time>2025-01-15T13:23:10.204Z</time>
      </trkpt>
      <trkpt lat="43.651" lon="6.19778">
        <ele>568.1</ele>
        <time>2025-01-15T13:23:16.519Z</time>
      </trkpt>
      <trkpt lat="43.65095" lon="6.19775">
        <ele>567.8</ele>
        <time>2025-01-15T13:23:21.846Z</time>
      </trkpt>
      <trkpt lat="43.6509" lon="6.19773">
        <ele>567.5</ele>
        <time>2025-01-15T13:23:27.173Z</time>
      </trkpt>
      <trkpt lat="43.65084" lon="6.1977">
        <ele>567.2</ele>
        <time>2025-01-15T13:23:32.500Z</time>
      </trkpt>
      <trkpt lat="43.65079" lon="6.19767">
        <ele>567.2</ele>
        <time>2025-01-15T13:23:38.588Z</time>
      </trkpt>
      <trkpt lat="43.65076" lon="6.19762">
        <ele>566.8</ele>
        <time>2025-01-15T13:23:43.242Z</time>
      </trkpt>
      <trkpt lat="43.65072" lon="6.19758">
        <ele>566.3</ele>
        <time>2025-01-15T13:23:47.896Z</time>
      </trkpt>
      <trkpt lat="43.65069" lon="6.19753">
        <ele>565.5</ele>
        <time>2025-01-15T13:23:52.550Z</time>
      </trkpt>
      <trkpt lat="43.65065" lon="6.19748">
        <ele>565.3</ele>
        <time>2025-01-15T13:23:57.257Z</time>
      </trkpt>
      <trkpt lat="43.6506" lon="6.19746">
        <ele>565.6</ele>
        <time>2025-01-15T13:24:04.551Z</time>
      </trkpt>
      <trkpt lat="43.65054" lon="6.19744">
        <ele>565.8</ele>
        <time>2025-01-15T13:24:11.439Z</time>
      </trkpt>
      <trkpt lat="43.65049" lon="6.19746">
        <ele>565.3</ele>
        <time>2025-01-15T13:24:16.758Z</time>
      </trkpt>
      <trkpt lat="43.65043" lon="6.19747">
        <ele>564.7</ele>
        <time>2025-01-15T13:24:22.077Z</time>
      </trkpt>
      <trkpt lat="43.65038" lon="6.1975">
        <ele>563.9</ele>
        <time>2025-01-15T13:24:27.122Z</time>
      </trkpt>
      <trkpt lat="43.65033" lon="6.19752">
        <ele>563.8</ele>
        <time>2025-01-15T13:24:32.567Z</time>
      </trkpt>
      <trkpt lat="43.65029" lon="6.19757">
        <ele>564.5</ele>
        <time>2025-01-15T13:24:41.735Z</time>
      </trkpt>
      <trkpt lat="43.65024" lon="6.19761">
        <ele>566.2</ele>
        <time>2025-01-15T13:25:00.401Z</time>
      </trkpt>
      <trkpt lat="43.65021" lon="6.19768">
        <ele>567.6</ele>
        <time>2025-01-15T13:25:15.363Z</time>
      </trkpt>
      <trkpt lat="43.65017" lon="6.19775">
        <ele>568.1</ele>
        <time>2025-01-15T13:25:24.048Z</time>
      </trkpt>
      <trkpt lat="43.65016" lon="6.19782">
        <ele>568.1</ele>
        <time>2025-01-15T13:25:29.705Z</time>
      </trkpt>
      <trkpt lat="43.65015" lon="6.19789">
        <ele>567.9</ele>
        <time>2025-01-15T13:25:34.746Z</time>
      </trkpt>
      <trkpt lat="43.65013" lon="6.19796">
        <ele>567.6</ele>
        <time>2025-01-15T13:25:39.696Z</time>
      </trkpt>
      <trkpt lat="43.65012" lon="6.19803">
        <ele>567.2</ele>
        <time>2025-01-15T13:25:44.646Z</time>
      </trkpt>
      <trkpt lat="43.65012" lon="6.19805">
        <ele>567.2</ele>
        <time>2025-01-15T13:25:46.215Z</time>
        <extensions>
          <visugpx:TrkExtension xmlns:visugpx="https://www.visugpx.com/editgpx/">
            <visugpx:node>13</visugpx:node>
            </visugpx:TrkExtension>
        </extensions>
      </trkpt>
      <trkpt lat="43.65011" lon="6.19817">
        <ele>566.8</ele>
        <time>2025-01-15T13:25:54.508Z</time>
      </trkpt>
      <trkpt lat="43.65014" lon="6.19826">
        <ele>566.8</ele>
        <time>2025-01-15T13:26:01.993Z</time>
      </trkpt>
      <trkpt lat="43.65017" lon="6.19835">
        <ele>566.3</ele>
        <time>2025-01-15T13:26:08.542Z</time>
      </trkpt>
      <trkpt lat="43.65019" lon="6.19843">
        <ele>565.4</ele>
        <time>2025-01-15T13:26:15.091Z</time>
      </trkpt>
      <trkpt lat="43.65022" lon="6.19852">
        <ele>564.2</ele>
        <time>2025-01-15T13:26:21.641Z</time>
      </trkpt>
      <trkpt lat="43.65024" lon="6.19859">
        <ele>563</ele>
        <time>2025-01-15T13:26:26.967Z</time>
      </trkpt>
      <trkpt lat="43.65026" lon="6.19867">
        <ele>562</ele>
        <time>2025-01-15T13:26:32.294Z</time>
      </trkpt>
      <trkpt lat="43.65028" lon="6.19874">
        <ele>561.2</ele>
        <time>2025-01-15T13:26:37.621Z</time>
      </trkpt>
      <trkpt lat="43.6503" lon="6.19881">
        <ele>561.3</ele>
        <time>2025-01-15T13:26:44.056Z</time>
      </trkpt>
      <trkpt lat="43.65031" lon="6.1989">
        <ele>561</ele>
        <time>2025-01-15T13:26:50.307Z</time>
      </trkpt>
      <trkpt lat="43.65032" lon="6.19899">
        <ele>561.4</ele>
        <time>2025-01-15T13:26:58.982Z</time>
      </trkpt>
      <trkpt lat="43.65031" lon="6.19911">
        <ele>561.1</ele>
        <time>2025-01-15T13:27:07.528Z</time>
      </trkpt>
      <trkpt lat="43.65028" lon="6.19916">
        <ele>560</ele>
        <time>2025-01-15T13:27:12.304Z</time>
      </trkpt>
      <trkpt lat="43.65024" lon="6.19921">
        <ele>561</ele>
        <time>2025-01-15T13:27:23.220Z</time>
      </trkpt>
      <trkpt lat="43.65018" lon="6.19922">
        <ele>561.3</ele>
        <time>2025-01-15T13:27:31.421Z</time>
      </trkpt>
      <trkpt lat="43.65011" lon="6.19923">
        <ele>561.5</ele>
        <time>2025-01-15T13:27:39.227Z</time>
      </trkpt>
      <trkpt lat="43.65004" lon="6.19931">
        <ele>561.3</ele>
        <time>2025-01-15T13:27:48.195Z</time>
      </trkpt>
      <trkpt lat="43.64997" lon="6.19938">
        <ele>561.2</ele>
        <time>2025-01-15T13:27:57.473Z</time>
      </trkpt>
      <trkpt lat="43.64995" lon="6.19944">
        <ele>561.1</ele>
        <time>2025-01-15T13:28:02.630Z</time>
      </trkpt>
      <trkpt lat="43.64993" lon="6.19951">
        <ele>561.8</ele>
        <time>2025-01-15T13:28:11.356Z</time>
      </trkpt>
      <trkpt lat="43.6499" lon="6.19957">
        <ele>562.2</ele>
        <time>2025-01-15T13:28:18.433Z</time>
      </trkpt>
      <trkpt lat="43.64988" lon="6.19963">
        <ele>562.1</ele>
        <time>2025-01-15T13:28:23.590Z</time>
      </trkpt>
      <trkpt lat="43.64983" lon="6.19972">
        <ele>561.1</ele>
        <time>2025-01-15T13:28:30.963Z</time>
      </trkpt>
      <trkpt lat="43.64979" lon="6.1998">
        <ele>560</ele>
        <time>2025-01-15T13:28:38.336Z</time>
      </trkpt>
      <trkpt lat="43.64974" lon="6.19989">
        <ele>558.3</ele>
        <time>2025-01-15T13:28:45.710Z</time>
      </trkpt>
      <trkpt lat="43.64969" lon="6.19997">
        <ele>557.9</ele>
        <time>2025-01-15T13:28:53.083Z</time>
      </trkpt>
      <trkpt lat="43.64962" lon="6.20003">
        <ele>559.3</ele>
        <time>2025-01-15T13:29:09.076Z</time>
      </trkpt>
      <trkpt lat="43.64955" lon="6.20009">
        <ele>560.2</ele>
        <time>2025-01-15T13:29:21.883Z</time>
      </trkpt>
      <trkpt lat="43.64948" lon="6.20013">
        <ele>559.8</ele>
        <time>2025-01-15T13:29:29.511Z</time>
      </trkpt>
      <trkpt lat="43.6494" lon="6.20017">
        <ele>558.8</ele>
        <time>2025-01-15T13:29:37.138Z</time>
      </trkpt>
      <trkpt lat="43.64935" lon="6.20019">
        <ele>558.2</ele>
        <time>2025-01-15T13:29:42.077Z</time>
      </trkpt>
      <trkpt lat="43.6493" lon="6.2002">
        <ele>558</ele>
        <time>2025-01-15T13:29:46.899Z</time>
      </trkpt>
      <trkpt lat="43.64925" lon="6.2002">
        <ele>557.7</ele>
        <time>2025-01-15T13:29:51.655Z</time>
      </trkpt>
      <trkpt lat="43.64925" lon="6.20018">
        <ele>558.1</ele>
        <time>2025-01-15T13:29:55.953Z</time>
        <extensions>
          <visugpx:TrkExtension xmlns:visugpx="https://www.visugpx.com/editgpx/">
            <visugpx:node>14</visugpx:node>
            </visugpx:TrkExtension>
        </extensions>
      </trkpt>
      <trkpt lat="43.64925" lon="6.2002">
        <ele>557.7</ele>
        <time>2025-01-15T13:29:57.326Z</time>
      </trkpt>
      <trkpt lat="43.64924" lon="6.2002">
        <ele>557.7</ele>
        <time>2025-01-15T13:29:58.411Z</time>
      </trkpt>
      <trkpt lat="43.64919" lon="6.20021">
        <ele>557.3</ele>
        <time>2025-01-15T13:30:03.204Z</time>
      </trkpt>
      <trkpt lat="43.64913" lon="6.20022">
        <ele>557</ele>
        <time>2025-01-15T13:30:09.409Z</time>
      </trkpt>
      <trkpt lat="43.64906" lon="6.20023">
        <ele>556.7</ele>
        <time>2025-01-15T13:30:15.615Z</time>
      </trkpt>
      <trkpt lat="43.64902" lon="6.20026">
        <ele>555.6</ele>
        <time>2025-01-15T13:30:19.933Z</time>
      </trkpt>
      <trkpt lat="43.64898" lon="6.20029">
        <ele>554.8</ele>
        <time>2025-01-15T13:30:24.251Z</time>
      </trkpt>
      <trkpt lat="43.64894" lon="6.20035">
        <ele>554.6</ele>
        <time>2025-01-15T13:30:30.407Z</time>
      </trkpt>
      <trkpt lat="43.64889" lon="6.20041">
        <ele>553.6</ele>
        <time>2025-01-15T13:30:36.340Z</time>
      </trkpt>
      <trkpt lat="43.64886" lon="6.20049">
        <ele>554.6</ele>
        <time>2025-01-15T13:30:48.186Z</time>
      </trkpt>
      <trkpt lat="43.64882" lon="6.20056">
        <ele>555.3</ele>
        <time>2025-01-15T13:30:58.196Z</time>
      </trkpt>
      <trkpt lat="43.64879" lon="6.20066">
        <ele>556.9</ele>
        <time>2025-01-15T13:31:15.509Z</time>
      </trkpt>
      <trkpt lat="43.64875" lon="6.20075">
        <ele>557.1</ele>
        <time>2025-01-15T13:31:24.580Z</time>
        <extensions>
          <visugpx:TrkExtension xmlns:visugpx="https://www.visugpx.com/editgpx/">
            <visugpx:node>15</visugpx:node>
            </visugpx:TrkExtension>
        </extensions>
      </trkpt>
      <trkpt lat="43.64872" lon="6.20081">
        <ele>556.5</ele>
        <time>2025-01-15T13:31:29.587Z</time>
      </trkpt>
      <trkpt lat="43.64868" lon="6.20091">
        <ele>554.4</ele>
        <time>2025-01-15T13:31:37.133Z</time>
      </trkpt>
      <trkpt lat="43.64864" lon="6.201">
        <ele>551.2</ele>
        <time>2025-01-15T13:31:44.679Z</time>
      </trkpt>
      <trkpt lat="43.6486" lon="6.2011">
        <ele>547.7</ele>
        <time>2025-01-15T13:31:52.764Z</time>
      </trkpt>
      <trkpt lat="43.64855" lon="6.2012">
        <ele>549.8</ele>
        <time>2025-01-15T13:32:15.133Z</time>
      </trkpt>
      <trkpt lat="43.64851" lon="6.20126">
        <ele>550.6</ele>
        <time>2025-01-15T13:32:25.525Z</time>
      </trkpt>
      <trkpt lat="43.64846" lon="6.20132">
        <ele>550.3</ele>
        <time>2025-01-15T13:32:31.458Z</time>
      </trkpt>
      <trkpt lat="43.64844" lon="6.20139">
        <ele>549.7</ele>
        <time>2025-01-15T13:32:36.625Z</time>
      </trkpt>
      <trkpt lat="43.64842" lon="6.20146">
        <ele>550.5</ele>
        <time>2025-01-15T13:32:46.324Z</time>
      </trkpt>
      <trkpt lat="43.64841" lon="6.20157">
        <ele>552.5</ele>
        <time>2025-01-15T13:33:07.631Z</time>
      </trkpt>
      <trkpt lat="43.64839" lon="6.20155">
        <ele>552</ele>
        <time>2025-01-15T13:33:09.973Z</time>
      </trkpt>
      <trkpt lat="43.64838" lon="6.20157">
        <ele>552.4</ele>
        <time>2025-01-15T13:33:14.248Z</time>
        <extensions>
          <visugpx:TrkExtension xmlns:visugpx="https://www.visugpx.com/editgpx/">
            <visugpx:node>16</visugpx:node>
            </visugpx:TrkExtension>
        </extensions>
      </trkpt>
      <trkpt lat="43.64839" lon="6.20155">
        <ele>552</ele>
        <time>2025-01-15T13:33:15.917Z</time>
      </trkpt>
      <trkpt lat="43.64841" lon="6.20157">
        <ele>552.5</ele>
        <time>2025-01-15T13:33:21.352Z</time>
      </trkpt>
      <trkpt lat="43.64844" lon="6.20162">
        <ele>553.5</ele>
        <time>2025-01-15T13:33:32.126Z</time>
      </trkpt>
      <trkpt lat="43.64847" lon="6.20167">
        <ele>554.1</ele>
        <time>2025-01-15T13:33:39.930Z</time>
      </trkpt>
      <trkpt lat="43.6485" lon="6.20174">
        <ele>555.1</ele>
        <time>2025-01-15T13:33:51.356Z</time>
      </trkpt>
      <trkpt lat="43.64854" lon="6.20178">
        <ele>555.3</ele>
        <time>2025-01-15T13:33:57.440Z</time>
      </trkpt>
      <trkpt lat="43.64858" lon="6.20181">
        <ele>555.1</ele>
        <time>2025-01-15T13:34:01.766Z</time>
      </trkpt>
      <trkpt lat="43.64863" lon="6.20182">
        <ele>554.8</ele>
        <time>2025-01-15T13:34:06.560Z</time>
      </trkpt>
      <trkpt lat="43.64868" lon="6.20183">
        <ele>555.1</ele>
        <time>2025-01-15T13:34:13.182Z</time>
      </trkpt>
      <trkpt lat="43.64876" lon="6.20182">
        <ele>555.4</ele>
        <time>2025-01-15T13:34:22.980Z</time>
      </trkpt>
      <trkpt lat="43.64883" lon="6.20181">
        <ele>555.7</ele>
        <time>2025-01-15T13:34:31.712Z</time>
      </trkpt>
      <trkpt lat="43.64888" lon="6.20179">
        <ele>555.8</ele>
        <time>2025-01-15T13:34:37.705Z</time>
      </trkpt>
      <trkpt lat="43.64893" lon="6.20177">
        <ele>555.8</ele>
        <time>2025-01-15T13:34:43.349Z</time>
      </trkpt>
      <trkpt lat="43.64901" lon="6.20174">
        <ele>555.6</ele>
        <time>2025-01-15T13:34:51.703Z</time>
      </trkpt>
      <trkpt lat="43.64906" lon="6.20173">
        <ele>555.3</ele>
        <time>2025-01-15T13:34:56.095Z</time>
      </trkpt>
      <trkpt lat="43.6491" lon="6.20171">
        <ele>555</ele>
        <time>2025-01-15T13:35:00.487Z</time>
      </trkpt>
      <trkpt lat="43.64915" lon="6.20171">
        <ele>555</ele>
        <time>2025-01-15T13:35:05.909Z</time>
      </trkpt>
      <trkpt lat="43.6492" lon="6.20171">
        <ele>555.8</ele>
        <time>2025-01-15T13:35:15.259Z</time>
      </trkpt>
      <trkpt lat="43.64925" lon="6.20173">
        <ele>557.4</ele>
        <time>2025-01-15T13:35:32.848Z</time>
      </trkpt>
      <trkpt lat="43.64929" lon="6.20175">
        <ele>558.5</ele>
        <time>2025-01-15T13:35:44.585Z</time>
      </trkpt>
      <trkpt lat="43.64931" lon="6.20178">
        <ele>559</ele>
        <time>2025-01-15T13:35:50.303Z</time>
      </trkpt>
      <trkpt lat="43.64931" lon="6.20178">
        <ele>559</ele>
        <time>2025-01-15T13:35:50.303Z</time>
      </trkpt>
      <trkpt lat="43.64933" lon="6.20181">
        <ele>559.4</ele>
        <time>2025-01-15T13:35:55.346Z</time>
      </trkpt>
      <trkpt lat="43.64935" lon="6.20185">
        <ele>559.5</ele>
        <time>2025-01-15T13:35:59.516Z</time>
      </trkpt>
      <trkpt lat="43.64935" lon="6.20189">
        <ele>559.5</ele>
        <time>2025-01-15T13:36:02.654Z</time>
      </trkpt>
      <trkpt lat="43.64935" lon="6.20194">
        <ele>559.3</ele>
        <time>2025-01-15T13:36:06.087Z</time>
      </trkpt>
      <trkpt lat="43.64934" lon="6.20201">
        <ele>560</ele>
        <time>2025-01-15T13:36:14.909Z</time>
      </trkpt>
      <trkpt lat="43.64933" lon="6.20207">
        <ele>560.6</ele>
        <time>2025-01-15T13:36:22.496Z</time>
      </trkpt>
      <trkpt lat="43.64933" lon="6.20212">
        <ele>561.1</ele>
        <time>2025-01-15T13:36:28.737Z</time>
      </trkpt>
      <trkpt lat="43.64933" lon="6.20215">
        <ele>561.4</ele>
        <time>2025-01-15T13:36:32.482Z</time>
      </trkpt>
      <trkpt lat="43.64936" lon="6.20225">
        <ele>562.1</ele>
        <time>2025-01-15T13:36:43.845Z</time>
      </trkpt>
      <trkpt lat="43.64943" lon="6.20232">
        <ele>562.1</ele>
        <time>2025-01-15T13:36:53.214Z</time>
      </trkpt>
      <trkpt lat="43.6495" lon="6.20236">
        <ele>562.8</ele>
        <time>2025-01-15T13:37:03.726Z</time>
      </trkpt>
      <trkpt lat="43.64956" lon="6.20239">
        <ele>563.3</ele>
        <time>2025-01-15T13:37:13.254Z</time>
      </trkpt>
      <trkpt lat="43.64963" lon="6.20243">
        <ele>563.2</ele>
        <time>2025-01-15T13:37:20.495Z</time>
      </trkpt>
      <trkpt lat="43.64969" lon="6.20246">
        <ele>562.3</ele>
        <time>2025-01-15T13:37:27.114Z</time>
      </trkpt>
      <trkpt lat="43.64973" lon="6.20249">
        <ele>561.3</ele>
        <time>2025-01-15T13:37:31.432Z</time>
        <extensions>
          <visugpx:TrkExtension xmlns:visugpx="https://www.visugpx.com/editgpx/">
            <visugpx:node>17</visugpx:node>
            </visugpx:TrkExtension>
        </extensions>
      </trkpt>
      <trkpt lat="43.64978" lon="6.20252">
        <ele>562.2</ele>
        <time>2025-01-15T13:37:41.823Z</time>
      </trkpt>
      <trkpt lat="43.64983" lon="6.20253">
        <ele>563.1</ele>
        <time>2025-01-15T13:37:52.127Z</time>
      </trkpt>
      <trkpt lat="43.64989" lon="6.20255">
        <ele>563.7</ele>
        <time>2025-01-15T13:38:00.509Z</time>
      </trkpt>
      <trkpt lat="43.64994" lon="6.20256">
        <ele>564.3</ele>
        <time>2025-01-15T13:38:08.891Z</time>
      </trkpt>
      <trkpt lat="43.64999" lon="6.20257">
        <ele>564.7</ele>
        <time>2025-01-15T13:38:16.252Z</time>
      </trkpt>
      <trkpt lat="43.65004" lon="6.2026">
        <ele>565.4</ele>
        <time>2025-01-15T13:38:25.265Z</time>
      </trkpt>
      <trkpt lat="43.65009" lon="6.20263">
        <ele>565.8</ele>
        <time>2025-01-15T13:38:32.681Z</time>
      </trkpt>
      <trkpt lat="43.65014" lon="6.20265">
        <ele>566</ele>
        <time>2025-01-15T13:38:39.241Z</time>
      </trkpt>
      <trkpt lat="43.65019" lon="6.20268">
        <ele>565.8</ele>
        <time>2025-01-15T13:38:44.459Z</time>
      </trkpt>
      <trkpt lat="43.65024" lon="6.20272">
        <ele>565.3</ele>
        <time>2025-01-15T13:38:49.777Z</time>
      </trkpt>
      <trkpt lat="43.65029" lon="6.20275">
        <ele>564.6</ele>
        <time>2025-01-15T13:38:55.095Z</time>
      </trkpt>
      <trkpt lat="43.65037" lon="6.20276">
        <ele>565</ele>
        <time>2025-01-15T13:39:05.298Z</time>
      </trkpt>
      <trkpt lat="43.65044" lon="6.20276">
        <ele>565.5</ele>
        <time>2025-01-15T13:39:14.335Z</time>
      </trkpt>
      <trkpt lat="43.6505" lon="6.20276">
        <ele>566</ele>
        <time>2025-01-15T13:39:23.371Z</time>
      </trkpt>
      <trkpt lat="43.65055" lon="6.20279">
        <ele>566.1</ele>
        <time>2025-01-15T13:39:29.138Z</time>
      </trkpt>
      <trkpt lat="43.65059" lon="6.20282">
        <ele>567.3</ele>
        <time>2025-01-15T13:39:41.923Z</time>
      </trkpt>
      <trkpt lat="43.65063" lon="6.20287">
        <ele>568.5</ele>
        <time>2025-01-15T13:39:54.775Z</time>
      </trkpt>
      <trkpt lat="43.65067" lon="6.20292">
        <ele>569.1</ele>
        <time>2025-01-15T13:40:03.220Z</time>
      </trkpt>
      <trkpt lat="43.65072" lon="6.20302">
        <ele>569.3</ele>
        <time>2025-01-15T13:40:13.140Z</time>
      </trkpt>
      <trkpt lat="43.65077" lon="6.20311">
        <ele>569.6</ele>
        <time>2025-01-15T13:40:23.440Z</time>
      </trkpt>
      <trkpt lat="43.65082" lon="6.20318">
        <ele>569.7</ele>
        <time>2025-01-15T13:40:30.843Z</time>
      </trkpt>
      <trkpt lat="43.65086" lon="6.20324">
        <ele>570.2</ele>
        <time>2025-01-15T13:40:39.889Z</time>
      </trkpt>
      <trkpt lat="43.65089" lon="6.20326">
        <ele>570.4</ele>
        <time>2025-01-15T13:40:44.265Z</time>
      </trkpt>
      <trkpt lat="43.65094" lon="6.20325">
        <ele>570.6</ele>
        <time>2025-01-15T13:40:50.472Z</time>
      </trkpt>
      <trkpt lat="43.65102" lon="6.20323">
        <ele>571.2</ele>
        <time>2025-01-15T13:41:01.657Z</time>
      </trkpt>
      <trkpt lat="43.65103" lon="6.20326">
        <ele>571</ele>
        <time>2025-01-15T13:41:03.924Z</time>
      </trkpt>
      <trkpt lat="43.65107" lon="6.20337">
        <ele>571.1</ele>
        <time>2025-01-15T13:41:13.925Z</time>
      </trkpt>
      <trkpt lat="43.65114" lon="6.20342">
        <ele>572.4</ele>
        <time>2025-01-15T13:41:28.939Z</time>
      </trkpt>
      <trkpt lat="43.65119" lon="6.20346">
        <ele>573.4</ele>
        <time>2025-01-15T13:41:40.094Z</time>
      </trkpt>
      <trkpt lat="43.65124" lon="6.2035">
        <ele>573.9</ele>
        <time>2025-01-15T13:41:48.086Z</time>
      </trkpt>
      <trkpt lat="43.65128" lon="6.20353">
        <ele>573.7</ele>
        <time>2025-01-15T13:41:53.400Z</time>
      </trkpt>
      <trkpt lat="43.65133" lon="6.20357">
        <ele>572.8</ele>
        <time>2025-01-15T13:41:58.590Z</time>
      </trkpt>
      <trkpt lat="43.65136" lon="6.20362">
        <ele>571.7</ele>
        <time>2025-01-15T13:42:03.204Z</time>
      </trkpt>
      <trkpt lat="43.6514" lon="6.20367">
        <ele>572.7</ele>
        <time>2025-01-15T13:42:14.042Z</time>
      </trkpt>
      <trkpt lat="43.65143" lon="6.20372">
        <ele>574.7</ele>
        <time>2025-01-15T13:42:38.897Z</time>
      </trkpt>
      <trkpt lat="43.65146" lon="6.20377">
        <ele>576.2</ele>
        <time>2025-01-15T13:42:55.403Z</time>
      </trkpt>
      <trkpt lat="43.6515" lon="6.20384">
        <ele>577.5</ele>
        <time>2025-01-15T13:43:09.427Z</time>
      </trkpt>
      <trkpt lat="43.65153" lon="6.20391">
        <ele>578.1</ele>
        <time>2025-01-15T13:43:18.611Z</time>
      </trkpt>
      <trkpt lat="43.65157" lon="6.20398">
        <ele>578</ele>
        <time>2025-01-15T13:43:24.964Z</time>
      </trkpt>
      <trkpt lat="43.6516" lon="6.20405">
        <ele>577.4</ele>
        <time>2025-01-15T13:43:30.806Z</time>
      </trkpt>
      <trkpt lat="43.65163" lon="6.20412">
        <ele>576.4</ele>
        <time>2025-01-15T13:43:36.244Z</time>
      </trkpt>
      <trkpt lat="43.65166" lon="6.20419">
        <ele>575.3</ele>
        <time>2025-01-15T13:43:41.682Z</time>
      </trkpt>
      <trkpt lat="43.65169" lon="6.20425">
        <ele>576.2</ele>
        <time>2025-01-15T13:43:52.282Z</time>
      </trkpt>
      <trkpt lat="43.65172" lon="6.20432">
        <ele>577</ele>
        <time>2025-01-15T13:44:02.220Z</time>
      </trkpt>
      <trkpt lat="43.6518" lon="6.20438">
        <ele>577.7</ele>
        <time>2025-01-15T13:44:14.248Z</time>
      </trkpt>
      <trkpt lat="43.65187" lon="6.20443">
        <ele>577.3</ele>
        <time>2025-01-15T13:44:22.303Z</time>
      </trkpt>
      <trkpt lat="43.65194" lon="6.20446">
        <ele>577.3</ele>
        <time>2025-01-15T13:44:30.143Z</time>
      </trkpt>
      <trkpt lat="43.65201" lon="6.20448">
        <ele>578.7</ele>
        <time>2025-01-15T13:44:45.518Z</time>
      </trkpt>
      <trkpt lat="43.65204" lon="6.20448">
        <ele>579</ele>
        <time>2025-01-15T13:44:50.033Z</time>
        <extensions>
          <visugpx:TrkExtension xmlns:visugpx="https://www.visugpx.com/editgpx/">
            <visugpx:node>19</visugpx:node>
            </visugpx:TrkExtension>
        </extensions>
      </trkpt>
      <trkpt lat="43.65205" lon="6.20448">
        <ele>579.2</ele>
        <time>2025-01-15T13:44:52.213Z</time>
      </trkpt>
      <trkpt lat="43.6521" lon="6.20449">
        <ele>579.8</ele>
        <time>2025-01-15T13:45:00.337Z</time>
      </trkpt>
      <trkpt lat="43.65215" lon="6.20454">
        <ele>580.7</ele>
        <time>2025-01-15T13:45:11.286Z</time>
      </trkpt>
      <trkpt lat="43.65219" lon="6.2046">
        <ele>581.1</ele>
        <time>2025-01-15T13:45:19.244Z</time>
      </trkpt>
      <trkpt lat="43.65223" lon="6.2046">
        <ele>581.1</ele>
        <time>2025-01-15T13:45:23.581Z</time>
      </trkpt>
      <trkpt lat="43.65227" lon="6.2046">
        <ele>581.4</ele>
        <time>2025-01-15T13:45:29.106Z</time>
      </trkpt>
      <trkpt lat="43.65231" lon="6.20458">
        <ele>581.6</ele>
        <time>2025-01-15T13:45:34.460Z</time>
      </trkpt>
      <trkpt lat="43.65237" lon="6.20452">
        <ele>581.6</ele>
        <time>2025-01-15T13:45:42.490Z</time>
      </trkpt>
      <trkpt lat="43.65243" lon="6.20449">
        <ele>581.5</ele>
        <time>2025-01-15T13:45:49.086Z</time>
      </trkpt>
      <trkpt lat="43.65246" lon="6.20448">
        <ele>581.4</ele>
        <time>2025-01-15T13:45:52.121Z</time>
      </trkpt>
      <trkpt lat="43.6525" lon="6.20449">
        <ele>581.7</ele>
        <time>2025-01-15T13:45:57.713Z</time>
      </trkpt>
      <trkpt lat="43.65255" lon="6.20454">
        <ele>583.4</ele>
        <time>2025-01-15T13:46:15.969Z</time>
      </trkpt>
      <trkpt lat="43.65258" lon="6.20461">
        <ele>584.6</ele>
        <time>2025-01-15T13:46:28.901Z</time>
      </trkpt>
      <trkpt lat="43.6526" lon="6.20468">
        <ele>585.4</ele>
        <time>2025-01-15T13:46:38.768Z</time>
      </trkpt>
      <trkpt lat="43.65262" lon="6.20473">
        <ele>585.9</ele>
        <time>2025-01-15T13:46:45.468Z</time>
      </trkpt>
      <trkpt lat="43.65265" lon="6.20483">
        <ele>586.8</ele>
        <time>2025-01-15T13:46:57.892Z</time>
      </trkpt>
      <trkpt lat="43.65268" lon="6.20492">
        <ele>587.1</ele>
        <time>2025-01-15T13:47:06.766Z</time>
      </trkpt>
      <trkpt lat="43.6527" lon="6.20499">
        <ele>587.1</ele>
        <time>2025-01-15T13:47:12.670Z</time>
      </trkpt>
      <trkpt lat="43.65273" lon="6.2051">
        <ele>586.7</ele>
        <time>2025-01-15T13:47:20.740Z</time>
      </trkpt>
      <trkpt lat="43.65275" lon="6.20516">
        <ele>586.2</ele>
        <time>2025-01-15T13:47:25.275Z</time>
      </trkpt>
      <trkpt lat="43.65281" lon="6.20524">
        <ele>585.7</ele>
        <time>2025-01-15T13:47:33.185Z</time>
      </trkpt>
      <trkpt lat="43.65286" lon="6.2053">
        <ele>586.5</ele>
        <time>2025-01-15T13:47:43.912Z</time>
      </trkpt>
      <trkpt lat="43.65292" lon="6.20535">
        <ele>587.5</ele>
        <time>2025-01-15T13:47:56.201Z</time>
      </trkpt>
      <trkpt lat="43.65298" lon="6.2054">
        <ele>588</ele>
        <time>2025-01-15T13:48:05.761Z</time>
      </trkpt>
      <trkpt lat="43.65303" lon="6.20544">
        <ele>587.9</ele>
        <time>2025-01-15T13:48:11.039Z</time>
      </trkpt>
      <trkpt lat="43.65307" lon="6.20547">
        <ele>588</ele>
        <time>2025-01-15T13:48:16.987Z</time>
      </trkpt>
      <trkpt lat="43.65313" lon="6.20554">
        <ele>588.6</ele>
        <time>2025-01-15T13:48:27.884Z</time>
      </trkpt>
      <trkpt lat="43.65318" lon="6.20559">
        <ele>589.4</ele>
        <time>2025-01-15T13:48:37.673Z</time>
      </trkpt>
      <trkpt lat="43.65322" lon="6.20563">
        <ele>590.1</ele>
        <time>2025-01-15T13:48:46.841Z</time>
      </trkpt>
      <trkpt lat="43.65325" lon="6.20568">
        <ele>590.4</ele>
        <time>2025-01-15T13:48:53.094Z</time>
      </trkpt>
      <trkpt lat="43.65329" lon="6.20578">
        <ele>589.9</ele>
        <time>2025-01-15T13:49:00.938Z</time>
      </trkpt>
      <trkpt lat="43.65331" lon="6.20583">
        <ele>589.4</ele>
        <time>2025-01-15T13:49:04.860Z</time>
      </trkpt>
      <trkpt lat="43.65333" lon="6.20587">
        <ele>589.2</ele>
        <time>2025-01-15T13:49:08.198Z</time>
      </trkpt>
      <trkpt lat="43.65335" lon="6.20595">
        <ele>590</ele>
        <time>2025-01-15T13:49:18.475Z</time>
      </trkpt>
      <trkpt lat="43.65336" lon="6.20603">
        <ele>590.4</ele>
        <time>2025-01-15T13:49:26.403Z</time>
      </trkpt>
      <trkpt lat="43.65338" lon="6.20602">
        <ele>591</ele>
        <time>2025-01-15T13:49:32.870Z</time>
        <extensions>
          <visugpx:TrkExtension xmlns:visugpx="https://www.visugpx.com/editgpx/">
            <visugpx:node>20</visugpx:node>
            </visugpx:TrkExtension>
        </extensions>
      </trkpt>
      <trkpt lat="43.65336" lon="6.20603">
        <ele>590.4</ele>
        <time>2025-01-15T13:49:34.888Z</time>
      </trkpt>
      <trkpt lat="43.65336" lon="6.20603">
        <ele>590.4</ele>
        <time>2025-01-15T13:49:34.888Z</time>
      </trkpt>
      <trkpt lat="43.65335" lon="6.20606">
        <ele>590.2</ele>
        <time>2025-01-15T13:49:37.156Z</time>
      </trkpt>
      <trkpt lat="43.65333" lon="6.20609">
        <ele>590</ele>
        <time>2025-01-15T13:49:39.956Z</time>
      </trkpt>
      <trkpt lat="43.65338" lon="6.20614">
        <ele>591.4</ele>
        <time>2025-01-15T13:49:54.921Z</time>
      </trkpt>
      <trkpt lat="43.65342" lon="6.20623">
        <ele>593.1</ele>
        <time>2025-01-15T13:50:13.073Z</time>
      </trkpt>
      <trkpt lat="43.65345" lon="6.20632">
        <ele>594.4</ele>
        <time>2025-01-15T13:50:27.752Z</time>
      </trkpt>
      <trkpt lat="43.65347" lon="6.20638">
        <ele>595</ele>
        <time>2025-01-15T13:50:35.690Z</time>
      </trkpt>
      <trkpt lat="43.65349" lon="6.20645">
        <ele>595.3</ele>
        <time>2025-01-15T13:50:42.099Z</time>
      </trkpt>
      <trkpt lat="43.6535" lon="6.20651">
        <ele>595.4</ele>
        <time>2025-01-15T13:50:47.706Z</time>
      </trkpt>
      <trkpt lat="43.65352" lon="6.20657">
        <ele>595.4</ele>
        <time>2025-01-15T13:50:52.964Z</time>
      </trkpt>
      <trkpt lat="43.65354" lon="6.20665">
        <ele>595.3</ele>
        <time>2025-01-15T13:50:58.913Z</time>
      </trkpt>
      <trkpt lat="43.65356" lon="6.20672">
        <ele>595.1</ele>
        <time>2025-01-15T13:51:04.564Z</time>
      </trkpt>
      <trkpt lat="43.65359" lon="6.20682">
        <ele>594.6</ele>
        <time>2025-01-15T13:51:11.996Z</time>
      </trkpt>
      <trkpt lat="43.65363" lon="6.20691">
        <ele>594.2</ele>
        <time>2025-01-15T13:51:19.246Z</time>
      </trkpt>
      <trkpt lat="43.65367" lon="6.20695">
        <ele>594.6</ele>
        <time>2025-01-15T13:51:26.207Z</time>
      </trkpt>
      <trkpt lat="43.65371" lon="6.20699">
        <ele>595.8</ele>
        <time>2025-01-15T13:51:38.989Z</time>
      </trkpt>
      <trkpt lat="43.65377" lon="6.20704">
        <ele>596.8</ele>
        <time>2025-01-15T13:51:51.278Z</time>
      </trkpt>
      <trkpt lat="43.65382" lon="6.20707">
        <ele>597</ele>
        <time>2025-01-15T13:51:57.913Z</time>
      </trkpt>
      <trkpt lat="43.65389" lon="6.20708">
        <ele>596.5</ele>
        <time>2025-01-15T13:52:04.590Z</time>
      </trkpt>
      <trkpt lat="43.65395" lon="6.20708">
        <ele>597.1</ele>
        <time>2025-01-15T13:52:13.620Z</time>
      </trkpt>
      <trkpt lat="43.65401" lon="6.20708">
        <ele>597.8</ele>
        <time>2025-01-15T13:52:23.197Z</time>
      </trkpt>
      <trkpt lat="43.65403" lon="6.20707">
        <ele>597.9</ele>
        <time>2025-01-15T13:52:25.874Z</time>
      </trkpt>
      <trkpt lat="43.65404" lon="6.20707">
        <ele>598</ele>
        <time>2025-01-15T13:52:27.379Z</time>
      </trkpt>
      <trkpt lat="43.65411" lon="6.20704">
        <ele>598.2</ele>
        <time>2025-01-15T13:52:36.035Z</time>
      </trkpt>
      <trkpt lat="43.65416" lon="6.20703">
        <ele>598.4</ele>
        <time>2025-01-15T13:52:41.790Z</time>
      </trkpt>
      <trkpt lat="43.6542" lon="6.20701">
        <ele>598.4</ele>
        <time>2025-01-15T13:52:46.809Z</time>
      </trkpt>
      <trkpt lat="43.65428" lon="6.20699">
        <ele>598.7</ele>
        <time>2025-01-15T13:52:56.711Z</time>
      </trkpt>
      <trkpt lat="43.65433" lon="6.20699">
        <ele>599.1</ele>
        <time>2025-01-15T13:53:03.736Z</time>
      </trkpt>
      <trkpt lat="43.65437" lon="6.20703">
        <ele>599.6</ele>
        <time>2025-01-15T13:53:11.200Z</time>
      </trkpt>
      <trkpt lat="43.65441" lon="6.20709">
        <ele>600</ele>
        <time>2025-01-15T13:53:19.157Z</time>
      </trkpt>
      <trkpt lat="43.65444" lon="6.20718">
        <ele>600</ele>
        <time>2025-01-15T13:53:26.932Z</time>
      </trkpt>
      <trkpt lat="43.65447" lon="6.20726">
        <ele>600.9</ele>
        <time>2025-01-15T13:53:38.172Z</time>
      </trkpt>
      <trkpt lat="43.6545" lon="6.20731">
        <ele>601.9</ele>
        <time>2025-01-15T13:53:48.946Z</time>
      </trkpt>
      <trkpt lat="43.65451" lon="6.20734">
        <ele>602.1</ele>
        <time>2025-01-15T13:53:52.346Z</time>
      </trkpt>
      <trkpt lat="43.65453" lon="6.20739">
        <ele>602.6</ele>
        <time>2025-01-15T13:53:59.046Z</time>
      </trkpt>
      <trkpt lat="43.65457" lon="6.20745">
        <ele>603</ele>
        <time>2025-01-15T13:54:07.003Z</time>
      </trkpt>
      <trkpt lat="43.65459" lon="6.20746">
        <ele>603.2</ele>
        <time>2025-01-15T13:54:10.139Z</time>
      </trkpt>
      <trkpt lat="43.65464" lon="6.2075">
        <ele>603.4</ele>
        <time>2025-01-15T13:54:17.124Z</time>
      </trkpt>
      <trkpt lat="43.65468" lon="6.20753">
        <ele>604</ele>
        <time>2025-01-15T13:54:24.795Z</time>
      </trkpt>
      <trkpt lat="43.65473" lon="6.20755">
        <ele>604.4</ele>
        <time>2025-01-15T13:54:32.030Z</time>
      </trkpt>
      <trkpt lat="43.65474" lon="6.20756">
        <ele>604.6</ele>
        <time>2025-01-15T13:54:34.356Z</time>
      </trkpt>
      <trkpt lat="43.6548" lon="6.20758">
        <ele>605.2</ele>
        <time>2025-01-15T13:54:43.556Z</time>
      </trkpt>
      <trkpt lat="43.65486" lon="6.20758">
        <ele>605.6</ele>
        <time>2025-01-15T13:54:51.614Z</time>
      </trkpt>
      <trkpt lat="43.65491" lon="6.20758">
        <ele>605.9</ele>
        <time>2025-01-15T13:54:58.196Z</time>
      </trkpt>
      <trkpt lat="43.65496" lon="6.20757">
        <ele>606.2</ele>
        <time>2025-01-15T13:55:04.778Z</time>
      </trkpt>
      <trkpt lat="43.65503" lon="6.20755">
        <ele>606.3</ele>
        <time>2025-01-15T13:55:12.873Z</time>
      </trkpt>
      <trkpt lat="43.65511" lon="6.20753">
        <ele>606.7</ele>
        <time>2025-01-15T13:55:23.178Z</time>
      </trkpt>
      <trkpt lat="43.65518" lon="6.20753">
        <ele>607.4</ele>
        <time>2025-01-15T13:55:33.714Z</time>
      </trkpt>
      <trkpt lat="43.65523" lon="6.20755">
        <ele>608.1</ele>
        <time>2025-01-15T13:55:42.573Z</time>
      </trkpt>
      <trkpt lat="43.65527" lon="6.20758">
        <ele>608.8</ele>
        <time>2025-01-15T13:55:50.889Z</time>
      </trkpt>
      <trkpt lat="43.6553" lon="6.20763">
        <ele>609.6</ele>
        <time>2025-01-15T13:56:00.044Z</time>
      </trkpt>
      <trkpt lat="43.65534" lon="6.20768">
        <ele>610.2</ele>
        <time>2025-01-15T13:56:07.874Z</time>
      </trkpt>
      <trkpt lat="43.65537" lon="6.20772">
        <ele>610.5</ele>
        <time>2025-01-15T13:56:14.159Z</time>
      </trkpt>
      <trkpt lat="43.6554" lon="6.20777">
        <ele>610.6</ele>
        <time>2025-01-15T13:56:19.637Z</time>
      </trkpt>
      <trkpt lat="43.65545" lon="6.20782">
        <ele>611.3</ele>
        <time>2025-01-15T13:56:29.005Z</time>
      </trkpt>
      <trkpt lat="43.65549" lon="6.20787">
        <ele>611.8</ele>
        <time>2025-01-15T13:56:37.301Z</time>
      </trkpt>
      <trkpt lat="43.65555" lon="6.20792">
        <ele>611.7</ele>
        <time>2025-01-15T13:56:44.116Z</time>
      </trkpt>
      <trkpt lat="43.6556" lon="6.20797">
        <ele>612.5</ele>
        <time>2025-01-15T13:56:54.808Z</time>
      </trkpt>
      <trkpt lat="43.65567" lon="6.20802">
        <ele>612.8</ele>
        <time>2025-01-15T13:57:04.442Z</time>
      </trkpt>
      <trkpt lat="43.65568" lon="6.20803">
        <ele>612.7</ele>
        <time>2025-01-15T13:57:05.613Z</time>
        <extensions>
          <visugpx:TrkExtension xmlns:visugpx="https://www.visugpx.com/editgpx/">
            <visugpx:node>21</visugpx:node>
            </visugpx:TrkExtension>
        </extensions>
      </trkpt>
      <trkpt lat="43.65572" lon="6.20805">
        <ele>612.5</ele>
        <time>2025-01-15T13:57:09.649Z</time>
      </trkpt>
      <trkpt lat="43.65577" lon="6.20808">
        <ele>612.7</ele>
        <time>2025-01-15T13:57:16.283Z</time>
      </trkpt>
      <trkpt lat="43.65585" lon="6.2081">
        <ele>612.9</ele>
        <time>2025-01-15T13:57:25.742Z</time>
      </trkpt>
      <trkpt lat="43.65593" lon="6.20811">
        <ele>613.9</ele>
        <time>2025-01-15T13:57:38.965Z</time>
      </trkpt>
      <trkpt lat="43.65599" lon="6.20812">
        <ele>614.5</ele>
        <time>2025-01-15T13:57:47.522Z</time>
      </trkpt>
      <trkpt lat="43.65604" lon="6.20812">
        <ele>615</ele>
        <time>2025-01-15T13:57:55.555Z</time>
      </trkpt>
      <trkpt lat="43.6561" lon="6.20815">
        <ele>615.9</ele>
        <time>2025-01-15T13:58:06.678Z</time>
      </trkpt>
      <trkpt lat="43.65614" lon="6.20819">
        <ele>616.7</ele>
        <time>2025-01-15T13:58:15.982Z</time>
      </trkpt>
      <trkpt lat="43.65619" lon="6.20824">
        <ele>617.2</ele>
        <time>2025-01-15T13:58:24.477Z</time>
      </trkpt>
      <trkpt lat="43.65624" lon="6.20829">
        <ele>617.2</ele>
        <time>2025-01-15T13:58:30.952Z</time>
      </trkpt>
      <trkpt lat="43.65628" lon="6.20834">
        <ele>617</ele>
        <time>2025-01-15T13:58:36.804Z</time>
      </trkpt>
      <trkpt lat="43.65633" lon="6.20839">
        <ele>618.2</ele>
        <time>2025-01-15T13:58:49.870Z</time>
      </trkpt>
      <trkpt lat="43.65639" lon="6.20847">
        <ele>619.9</ele>
        <time>2025-01-15T13:59:08.324Z</time>
      </trkpt>
      <trkpt lat="43.65643" lon="6.20848">
        <ele>620.6</ele>
        <time>2025-01-15T13:59:16.285Z</time>
      </trkpt>
      <trkpt lat="43.65649" lon="6.20848">
        <ele>621.1</ele>
        <time>2025-01-15T13:59:24.810Z</time>
      </trkpt>
      <trkpt lat="43.65653" lon="6.20846">
        <ele>620.9</ele>
        <time>2025-01-15T13:59:28.846Z</time>
      </trkpt>
      <trkpt lat="43.6566" lon="6.2084">
        <ele>620</ele>
        <time>2025-01-15T13:59:36.661Z</time>
      </trkpt>
      <trkpt lat="43.65662" lon="6.20838">
        <ele>619.7</ele>
        <time>2025-01-15T13:59:39.003Z</time>
      </trkpt>
      <trkpt lat="43.65664" lon="6.20836">
        <ele>619.4</ele>
        <time>2025-01-15T13:59:41.346Z</time>
      </trkpt>
      <trkpt lat="43.65667" lon="6.20834">
        <ele>619.2</ele>
        <time>2025-01-15T13:59:44.506Z</time>
      </trkpt>
      <trkpt lat="43.65673" lon="6.20827">
        <ele>621.8</ele>
        <time>2025-01-15T14:00:13.799Z</time>
      </trkpt>
      <trkpt lat="43.65679" lon="6.20822">
        <ele>623.4</ele>
        <time>2025-01-15T14:00:30.892Z</time>
      </trkpt>
      <trkpt lat="43.65685" lon="6.20818">
        <ele>624.4</ele>
        <time>2025-01-15T14:00:42.899Z</time>
      </trkpt>
      <trkpt lat="43.65689" lon="6.20818">
        <ele>624.4</ele>
        <time>2025-01-15T14:00:47.236Z</time>
      </trkpt>
      <trkpt lat="43.65693" lon="6.2082">
        <ele>624.4</ele>
        <time>2025-01-15T14:00:51.849Z</time>
      </trkpt>
      <trkpt lat="43.65697" lon="6.20823">
        <ele>624.7</ele>
        <time>2025-01-15T14:00:57.946Z</time>
      </trkpt>
      <trkpt lat="43.65699" lon="6.2083">
        <ele>624.5</ele>
        <time>2025-01-15T14:01:03.232Z</time>
      </trkpt>
      <trkpt lat="43.65701" lon="6.20838">
        <ele>625.2</ele>
        <time>2025-01-15T14:01:12.925Z</time>
      </trkpt>
      <trkpt lat="43.65702" lon="6.20846">
        <ele>626.5</ele>
        <time>2025-01-15T14:01:26.857Z</time>
      </trkpt>
      <trkpt lat="43.65705" lon="6.20852">
        <ele>627.7</ele>
        <time>2025-01-15T14:01:39.681Z</time>
      </trkpt>
      <trkpt lat="43.65709" lon="6.20853">
        <ele>628.3</ele>
        <time>2025-01-15T14:01:46.940Z</time>
      </trkpt>
      <trkpt lat="43.65713" lon="6.20853">
        <ele>628.6</ele>
        <time>2025-01-15T14:01:52.465Z</time>
      </trkpt>
      <trkpt lat="43.65718" lon="6.20851">
        <ele>628.8</ele>
        <time>2025-01-15T14:01:58.836Z</time>
      </trkpt>
      <trkpt lat="43.65718" lon="6.2085">
        <ele>628.6</ele>
        <time>2025-01-15T14:01:59.523Z</time>
      </trkpt>
      <trkpt lat="43.6572" lon="6.20848">
        <ele>628.4</ele>
        <time>2025-01-15T14:02:01.865Z</time>
      </trkpt>
      <trkpt lat="43.65721" lon="6.20842">
        <ele>627.5</ele>
        <time>2025-01-15T14:02:06.091Z</time>
      </trkpt>
      <trkpt lat="43.65723" lon="6.20835">
        <ele>626.6</ele>
        <time>2025-01-15T14:02:11.258Z</time>
      </trkpt>
      <trkpt lat="43.65725" lon="6.20828">
        <ele>627.7</ele>
        <time>2025-01-15T14:02:23.222Z</time>
      </trkpt>
      <trkpt lat="43.65727" lon="6.20817">
        <ele>629.4</ele>
        <time>2025-01-15T14:02:41.621Z</time>
      </trkpt>
      <trkpt lat="43.65729" lon="6.20811">
        <ele>630.3</ele>
        <time>2025-01-15T14:02:51.576Z</time>
      </trkpt>
      <trkpt lat="43.65732" lon="6.20805">
        <ele>631.2</ele>
        <time>2025-01-15T14:03:01.845Z</time>
      </trkpt>
      <trkpt lat="43.65738" lon="6.208">
        <ele>632.3</ele>
        <time>2025-01-15T14:03:14.951Z</time>
      </trkpt>
      <trkpt lat="43.65744" lon="6.20794">
        <ele>632.5</ele>
        <time>2025-01-15T14:03:23.467Z</time>
      </trkpt>
      <trkpt lat="43.65749" lon="6.20791">
        <ele>632</ele>
        <time>2025-01-15T14:03:28.785Z</time>
      </trkpt>
      <trkpt lat="43.65754" lon="6.20787">
        <ele>632.1</ele>
        <time>2025-01-15T14:03:35.209Z</time>
      </trkpt>
      <trkpt lat="43.65761" lon="6.20783">
        <ele>632.4</ele>
        <time>2025-01-15T14:03:44.516Z</time>
      </trkpt>
      <trkpt lat="43.65765" lon="6.20778">
        <ele>632.1</ele>
        <time>2025-01-15T14:03:49.633Z</time>
      </trkpt>
      <trkpt lat="43.6577" lon="6.20772">
        <ele>632.6</ele>
        <time>2025-01-15T14:03:58.795Z</time>
      </trkpt>
      <trkpt lat="43.65774" lon="6.20765">
        <ele>632.4</ele>
        <time>2025-01-15T14:04:05.168Z</time>
      </trkpt>
      <trkpt lat="43.65776" lon="6.20757">
        <ele>631.9</ele>
        <time>2025-01-15T14:04:10.978Z</time>
      </trkpt>
      <trkpt lat="43.65777" lon="6.2075">
        <ele>631.2</ele>
        <time>2025-01-15T14:04:15.875Z</time>
      </trkpt>
      <trkpt lat="43.65777" lon="6.20748">
        <ele>631.4</ele>
        <time>2025-01-15T14:04:18.372Z</time>
      </trkpt>
      <trkpt lat="43.65776" lon="6.20743">
        <ele>632.3</ele>
        <time>2025-01-15T14:04:27.961Z</time>
      </trkpt>
      <trkpt lat="43.65774" lon="6.20735">
        <ele>633.8</ele>
        <time>2025-01-15T14:04:43.939Z</time>
      </trkpt>
      <trkpt lat="43.65774" lon="6.20726">
        <ele>634.8</ele>
        <time>2025-01-15T14:04:55.827Z</time>
      </trkpt>
      <trkpt lat="43.65774" lon="6.2072">
        <ele>635.5</ele>
        <time>2025-01-15T14:05:03.983Z</time>
      </trkpt>
      <trkpt lat="43.65776" lon="6.20715">
        <ele>635.4</ele>
        <time>2025-01-15T14:05:08.148Z</time>
      </trkpt>
      <trkpt lat="43.65778" lon="6.20713">
        <ele>635</ele>
        <time>2025-01-15T14:05:10.490Z</time>
      </trkpt>
      <trkpt lat="43.65782" lon="6.20711">
        <ele>635.7</ele>
        <time>2025-01-15T14:05:18.582Z</time>
      </trkpt>
      <trkpt lat="43.65787" lon="6.2071">
        <ele>636.4</ele>
        <time>2025-01-15T14:05:27.309Z</time>
      </trkpt>
      <trkpt lat="43.6579" lon="6.2071">
        <ele>636.7</ele>
        <time>2025-01-15T14:05:31.824Z</time>
      </trkpt>
      <trkpt lat="43.65796" lon="6.2071">
        <ele>637.4</ele>
        <time>2025-01-15T14:05:41.401Z</time>
      </trkpt>
      <trkpt lat="43.65798" lon="6.20711">
        <ele>637.5</ele>
        <time>2025-01-15T14:05:44.078Z</time>
      </trkpt>
      <trkpt lat="43.65803" lon="6.20712">
        <ele>638.1</ele>
        <time>2025-01-15T14:05:52.202Z</time>
      </trkpt>
      <trkpt lat="43.65807" lon="6.20712">
        <ele>638.6</ele>
        <time>2025-01-15T14:05:58.780Z</time>
      </trkpt>
      <trkpt lat="43.65812" lon="6.20711">
        <ele>639.3</ele>
        <time>2025-01-15T14:06:07.507Z</time>
      </trkpt>
      <trkpt lat="43.65816" lon="6.20708">
        <ele>639.6</ele>
        <time>2025-01-15T14:06:13.604Z</time>
      </trkpt>
      <trkpt lat="43.65819" lon="6.20705">
        <ele>639.6</ele>
        <time>2025-01-15T14:06:17.619Z</time>
      </trkpt>
      <trkpt lat="43.65823" lon="6.20698">
        <ele>638.9</ele>
        <time>2025-01-15T14:06:23.742Z</time>
      </trkpt>
      <trkpt lat="43.65827" lon="6.20689">
        <ele>638.9</ele>
        <time>2025-01-15T14:06:32.028Z</time>
      </trkpt>
      <trkpt lat="43.65832" lon="6.20682">
        <ele>639.1</ele>
        <time>2025-01-15T14:06:40.456Z</time>
      </trkpt>
      <trkpt lat="43.65836" lon="6.20674">
        <ele>640.1</ele>
        <time>2025-01-15T14:06:52.769Z</time>
      </trkpt>
      <trkpt lat="43.65839" lon="6.20669">
        <ele>640.8</ele>
        <time>2025-01-15T14:07:01.203Z</time>
      </trkpt>
      <trkpt lat="43.65846" lon="6.20662">
        <ele>642.4</ele>
        <time>2025-01-15T14:07:19.115Z</time>
      </trkpt>
      <trkpt lat="43.65853" lon="6.20654">
        <ele>642.9</ele>
        <time>2025-01-15T14:07:30.613Z</time>
      </trkpt>
      <trkpt lat="43.65857" lon="6.20651">
        <ele>642.6</ele>
        <time>2025-01-15T14:07:35.015Z</time>
      </trkpt>
      <trkpt lat="43.65861" lon="6.20648">
        <ele>641.9</ele>
        <time>2025-01-15T14:07:39.418Z</time>
      </trkpt>
      <trkpt lat="43.65865" lon="6.20644">
        <ele>642</ele>
        <time>2025-01-15T14:07:44.799Z</time>
      </trkpt>
      <trkpt lat="43.65869" lon="6.20641">
        <ele>641.9</ele>
        <time>2025-01-15T14:07:49.511Z</time>
      </trkpt>
      <trkpt lat="43.65874" lon="6.20638">
        <ele>642.3</ele>
        <time>2025-01-15T14:07:57.159Z</time>
      </trkpt>
      <trkpt lat="43.65879" lon="6.20634">
        <ele>643.4</ele>
        <time>2025-01-15T14:08:09.199Z</time>
      </trkpt>
      <trkpt lat="43.65885" lon="6.2063">
        <ele>644.3</ele>
        <time>2025-01-15T14:08:20.562Z</time>
      </trkpt>
      <trkpt lat="43.6589" lon="6.20627">
        <ele>644.8</ele>
        <time>2025-01-15T14:08:28.534Z</time>
      </trkpt>
      <trkpt lat="43.65896" lon="6.20626">
        <ele>645.2</ele>
        <time>2025-01-15T14:08:36.638Z</time>
      </trkpt>
      <trkpt lat="43.65901" lon="6.20627">
        <ele>645.3</ele>
        <time>2025-01-15T14:08:42.464Z</time>
      </trkpt>
      <trkpt lat="43.65906" lon="6.2063">
        <ele>645.1</ele>
        <time>2025-01-15T14:08:47.757Z</time>
      </trkpt>
      <trkpt lat="43.65911" lon="6.20633">
        <ele>644.8</ele>
        <time>2025-01-15T14:08:52.929Z</time>
      </trkpt>
      <trkpt lat="43.65913" lon="6.20635">
        <ele>644.5</ele>
        <time>2025-01-15T14:08:55.271Z</time>
      </trkpt>
      <trkpt lat="43.65917" lon="6.20637">
        <ele>644.4</ele>
        <time>2025-01-15T14:08:59.566Z</time>
      </trkpt>
      <trkpt lat="43.65922" lon="6.20643">
        <ele>645.9</ele>
        <time>2025-01-15T14:09:15.602Z</time>
      </trkpt>
      <trkpt lat="43.65928" lon="6.20646">
        <ele>647.2</ele>
        <time>2025-01-15T14:09:29.717Z</time>
      </trkpt>
      <trkpt lat="43.6593" lon="6.20646">
        <ele>647.3</ele>
        <time>2025-01-15T14:09:32.259Z</time>
      </trkpt>
      <trkpt lat="43.65935" lon="6.20645">
        <ele>647.2</ele>
        <time>2025-01-15T14:09:37.417Z</time>
      </trkpt>
      <trkpt lat="43.65942" lon="6.20643">
        <ele>646.9</ele>
        <time>2025-01-15T14:09:44.251Z</time>
      </trkpt>
      <trkpt lat="43.65948" lon="6.20641">
        <ele>646.9</ele>
        <time>2025-01-15T14:09:50.943Z</time>
      </trkpt>
      <trkpt lat="43.65954" lon="6.20639">
        <ele>647.1</ele>
        <time>2025-01-15T14:09:58.353Z</time>
      </trkpt>
      <trkpt lat="43.6596" lon="6.20638">
        <ele>647.8</ele>
        <time>2025-01-15T14:10:07.515Z</time>
      </trkpt>
      <trkpt lat="43.65965" lon="6.20637">
        <ele>648.4</ele>
        <time>2025-01-15T14:10:16.106Z</time>
      </trkpt>
      <trkpt lat="43.65968" lon="6.20635">
        <ele>648.9</ele>
        <time>2025-01-15T14:10:22.110Z</time>
      </trkpt>
      <trkpt lat="43.65974" lon="6.20633">
        <ele>649.5</ele>
        <time>2025-01-15T14:10:31.310Z</time>
      </trkpt>
      <trkpt lat="43.65981" lon="6.2063">
        <ele>650.2</ele>
        <time>2025-01-15T14:10:42.169Z</time>
      </trkpt>
      <trkpt lat="43.65986" lon="6.2063">
        <ele>650.5</ele>
        <time>2025-01-15T14:10:48.737Z</time>
      </trkpt>
      <trkpt lat="43.65992" lon="6.20631">
        <ele>650.7</ele>
        <time>2025-01-15T14:10:56.009Z</time>
      </trkpt>
      <trkpt lat="43.65999" lon="6.20634">
        <ele>650.7</ele>
        <time>2025-01-15T14:11:03.956Z</time>
      </trkpt>
      <trkpt lat="43.66002" lon="6.20635">
        <ele>650.8</ele>
        <time>2025-01-15T14:11:07.660Z</time>
      </trkpt>
      <trkpt lat="43.66005" lon="6.20636">
        <ele>651</ele>
        <time>2025-01-15T14:11:11.780Z</time>
      </trkpt>
      <trkpt lat="43.66011" lon="6.20637">
        <ele>651.7</ele>
        <time>2025-01-15T14:11:21.397Z</time>
      </trkpt>
      <trkpt lat="43.66015" lon="6.20636">
        <ele>652.3</ele>
        <time>2025-01-15T14:11:28.656Z</time>
      </trkpt>
      <trkpt lat="43.66019" lon="6.20633">
        <ele>652.9</ele>
        <time>2025-01-15T14:11:36.327Z</time>
      </trkpt>
      <trkpt lat="43.66021" lon="6.20631">
        <ele>653.1</ele>
        <time>2025-01-15T14:11:39.807Z</time>
      </trkpt>
      <trkpt lat="43.66025" lon="6.20624">
        <ele>653.3</ele>
        <time>2025-01-15T14:11:47.520Z</time>
      </trkpt>
      <trkpt lat="43.66029" lon="6.20617">
        <ele>653.3</ele>
        <time>2025-01-15T14:11:54.517Z</time>
      </trkpt>
      <trkpt lat="43.66034" lon="6.20612">
        <ele>653.5</ele>
        <time>2025-01-15T14:12:01.499Z</time>
      </trkpt>
      <trkpt lat="43.66038" lon="6.20607">
        <ele>654.8</ele>
        <time>2025-01-15T14:12:15.404Z</time>
      </trkpt>
      <trkpt lat="43.66042" lon="6.20604">
        <ele>655.7</ele>
        <time>2025-01-15T14:12:25.239Z</time>
      </trkpt>
      <trkpt lat="43.66046" lon="6.20601">
        <ele>656.3</ele>
        <time>2025-01-15T14:12:32.910Z</time>
      </trkpt>
      <trkpt lat="43.6605" lon="6.20599">
        <ele>656.5</ele>
        <time>2025-01-15T14:12:38.264Z</time>
      </trkpt>
      <trkpt lat="43.66058" lon="6.20598">
        <ele>656.6</ele>
        <time>2025-01-15T14:12:47.317Z</time>
      </trkpt>
      <trkpt lat="43.66065" lon="6.20601">
        <ele>656.8</ele>
        <time>2025-01-15T14:12:55.972Z</time>
      </trkpt>
      <trkpt lat="43.66073" lon="6.20604">
        <ele>657</ele>
        <time>2025-01-15T14:13:05.665Z</time>
      </trkpt>
      <trkpt lat="43.66081" lon="6.20606">
        <ele>657.4</ele>
        <time>2025-01-15T14:13:15.971Z</time>
      </trkpt>
      <trkpt lat="43.66086" lon="6.20605">
        <ele>657.9</ele>
        <time>2025-01-15T14:13:23.068Z</time>
      </trkpt>
      <trkpt lat="43.6609" lon="6.20604">
        <ele>658.6</ele>
        <time>2025-01-15T14:13:31.390Z</time>
      </trkpt>
      <trkpt lat="43.66096" lon="6.206">
        <ele>659.4</ele>
        <time>2025-01-15T14:13:42.153Z</time>
      </trkpt>
      <trkpt lat="43.66101" lon="6.20594">
        <ele>659.7</ele>
        <time>2025-01-15T14:13:50.441Z</time>
      </trkpt>
      <trkpt lat="43.66106" lon="6.20589">
        <ele>659.6</ele>
        <time>2025-01-15T14:13:56.810Z</time>
      </trkpt>
      <trkpt lat="43.66111" lon="6.20584">
        <ele>659.1</ele>
        <time>2025-01-15T14:14:02.665Z</time>
      </trkpt>
      <trkpt lat="43.66118" lon="6.20577">
        <ele>661.5</ele>
        <time>2025-01-15T14:14:28.471Z</time>
      </trkpt>
      <trkpt lat="43.66125" lon="6.20573">
        <ele>662.4</ele>
        <time>2025-01-15T14:14:40.789Z</time>
      </trkpt>
      <trkpt lat="43.66132" lon="6.20568">
        <ele>662.6</ele>
        <time>2025-01-15T14:14:49.867Z</time>
      </trkpt>
      <trkpt lat="43.66137" lon="6.20566">
        <ele>662.2</ele>
        <time>2025-01-15T14:14:54.912Z</time>
      </trkpt>
      <trkpt lat="43.66142" lon="6.20563">
        <ele>662</ele>
        <time>2025-01-15T14:15:00.061Z</time>
      </trkpt>
      <trkpt lat="43.6615" lon="6.20561">
        <ele>661.8</ele>
        <time>2025-01-15T14:15:07.795Z</time>
      </trkpt>
      <trkpt lat="43.66157" lon="6.20558">
        <ele>661.2</ele>
        <time>2025-01-15T14:15:15.115Z</time>
      </trkpt>
      <trkpt lat="43.66163" lon="6.20557">
        <ele>660.6</ele>
        <time>2025-01-15T14:15:20.434Z</time>
      </trkpt>
      <trkpt lat="43.66168" lon="6.20555">
        <ele>660.3</ele>
        <time>2025-01-15T14:15:25.753Z</time>
      </trkpt>
      <trkpt lat="43.66174" lon="6.20554">
        <ele>661.1</ele>
        <time>2025-01-15T14:15:35.536Z</time>
      </trkpt>
      <trkpt lat="43.66179" lon="6.20553">
        <ele>661.8</ele>
        <time>2025-01-15T14:15:44.697Z</time>
      </trkpt>
      <trkpt lat="43.66184" lon="6.20553">
        <ele>662.1</ele>
        <time>2025-01-15T14:15:51.265Z</time>
      </trkpt>
      <trkpt lat="43.66189" lon="6.20553">
        <ele>662.3</ele>
        <time>2025-01-15T14:15:57.416Z</time>
      </trkpt>
      <trkpt lat="43.66195" lon="6.20553">
        <ele>662.7</ele>
        <time>2025-01-15T14:16:05.475Z</time>
      </trkpt>
      <trkpt lat="43.66201" lon="6.20553">
        <ele>663.1</ele>
        <time>2025-01-15T14:16:13.534Z</time>
      </trkpt>
      <trkpt lat="43.66208" lon="6.20549">
        <ele>664.3</ele>
        <time>2025-01-15T14:16:27.615Z</time>
      </trkpt>
      <trkpt lat="43.66213" lon="6.20546">
        <ele>665.1</ele>
        <time>2025-01-15T14:16:37.090Z</time>
      </trkpt>
      <trkpt lat="43.66217" lon="6.20542">
        <ele>665.9</ele>
        <time>2025-01-15T14:16:46.565Z</time>
      </trkpt>
      <trkpt lat="43.66222" lon="6.20537">
        <ele>666.7</ele>
        <time>2025-01-15T14:16:56.538Z</time>
      </trkpt>
      <trkpt lat="43.66226" lon="6.20532">
        <ele>667.8</ele>
        <time>2025-01-15T14:17:08.667Z</time>
      </trkpt>
      <trkpt lat="43.66226" lon="6.20532">
        <ele>667.8</ele>
        <time>2025-01-15T14:17:08.667Z</time>
      </trkpt>
      <trkpt lat="43.66228" lon="6.20535">
        <ele>667.6</ele>
        <time>2025-01-15T14:17:11.468Z</time>
        <extensions>
          <visugpx:TrkExtension xmlns:visugpx="https://www.visugpx.com/editgpx/">
            <visugpx:node>22</visugpx:node>
            </visugpx:TrkExtension>
        </extensions>
      </trkpt>
      <trkpt lat="43.66226" lon="6.20532">
        <ele>667.8</ele>
        <time>2025-01-15T14:17:15.446Z</time>
      </trkpt>
      <trkpt lat="43.66229" lon="6.20526">
        <ele>669.1</ele>
        <time>2025-01-15T14:17:29.293Z</time>
      </trkpt>
      <trkpt lat="43.66229" lon="6.20523">
        <ele>669.6</ele>
        <time>2025-01-15T14:17:34.632Z</time>
      </trkpt>
      <trkpt lat="43.66228" lon="6.20514">
        <ele>671.1</ele>
        <time>2025-01-15T14:17:50.660Z</time>
      </trkpt>
      <trkpt lat="43.66225" lon="6.20503">
        <ele>672.8</ele>
        <time>2025-01-15T14:18:09.192Z</time>
      </trkpt>
      <trkpt lat="43.66224" lon="6.20491">
        <ele>674.5</ele>
        <time>2025-01-15T14:18:27.839Z</time>
      </trkpt>
      <trkpt lat="43.66225" lon="6.20483">
        <ele>675.7</ele>
        <time>2025-01-15T14:18:40.861Z</time>
      </trkpt>
      <trkpt lat="43.66228" lon="6.20475">
        <ele>677</ele>
        <time>2025-01-15T14:18:55.039Z</time>
      </trkpt>
      <trkpt lat="43.66232" lon="6.2047">
        <ele>678.1</ele>
        <time>2025-01-15T14:19:06.862Z</time>
      </trkpt>
      <trkpt lat="43.66236" lon="6.20466">
        <ele>679.2</ele>
        <time>2025-01-15T14:19:18.685Z</time>
      </trkpt>
      <trkpt lat="43.66239" lon="6.20461">
        <ele>680.2</ele>
        <time>2025-01-15T14:19:29.627Z</time>
      </trkpt>
      <trkpt lat="43.66243" lon="6.20456">
        <ele>681.1</ele>
        <time>2025-01-15T14:19:39.769Z</time>
      </trkpt>
      <trkpt lat="43.66247" lon="6.20451">
        <ele>682</ele>
        <time>2025-01-15T14:19:49.910Z</time>
      </trkpt>
      <trkpt lat="43.66251" lon="6.20447">
        <ele>682.8</ele>
        <time>2025-01-15T14:19:59.326Z</time>
      </trkpt>
      <trkpt lat="43.66254" lon="6.20442">
        <ele>684.1</ele>
        <time>2025-01-15T14:20:13.187Z</time>
      </trkpt>
      <trkpt lat="43.66258" lon="6.20437">
        <ele>685.3</ele>
        <time>2025-01-15T14:20:25.980Z</time>
      </trkpt>
      <trkpt lat="43.66263" lon="6.20431">
        <ele>686.9</ele>
        <time>2025-01-15T14:20:43.049Z</time>
      </trkpt>
      <trkpt lat="43.66268" lon="6.20424">
        <ele>688.3</ele>
        <time>2025-01-15T14:20:58.246Z</time>
      </trkpt>
      <trkpt lat="43.66273" lon="6.20417">
        <ele>689.6</ele>
        <time>2025-01-15T14:21:12.751Z</time>
      </trkpt>
      <trkpt lat="43.66277" lon="6.20411">
        <ele>691</ele>
        <time>2025-01-15T14:21:27.663Z</time>
      </trkpt>
      <trkpt lat="43.6628" lon="6.20405">
        <ele>691.6</ele>
        <time>2025-01-15T14:21:36.419Z</time>
      </trkpt>
      <trkpt lat="43.66284" lon="6.20398">
        <ele>691.9</ele>
        <time>2025-01-15T14:21:43.745Z</time>
      </trkpt>
      <trkpt lat="43.66287" lon="6.20392">
        <ele>692.4</ele>
        <time>2025-01-15T14:21:51.985Z</time>
      </trkpt>
      <trkpt lat="43.66292" lon="6.20385">
        <ele>692.8</ele>
        <time>2025-01-15T14:22:01.217Z</time>
      </trkpt>
      <trkpt lat="43.66297" lon="6.20378">
        <ele>693.2</ele>
        <time>2025-01-15T14:22:10.448Z</time>
      </trkpt>
      <trkpt lat="43.663" lon="6.20369">
        <ele>694.5</ele>
        <time>2025-01-15T14:22:24.985Z</time>
      </trkpt>
      <trkpt lat="43.663" lon="6.20364">
        <ele>695.6</ele>
        <time>2025-01-15T14:22:37.042Z</time>
      </trkpt>
      <trkpt lat="43.66299" lon="6.20362">
        <ele>696.2</ele>
        <time>2025-01-15T14:22:43.881Z</time>
      </trkpt>
      <trkpt lat="43.66296" lon="6.20362">
        <ele>696.9</ele>
        <time>2025-01-15T14:22:51.348Z</time>
      </trkpt>
      <trkpt lat="43.66291" lon="6.20362">
        <ele>698</ele>
        <time>2025-01-15T14:23:03.144Z</time>
      </trkpt>
      <trkpt lat="43.66285" lon="6.20362">
        <ele>699.3</ele>
        <time>2025-01-15T14:23:17.204Z</time>
      </trkpt>
      <trkpt lat="43.66279" lon="6.20362">
        <ele>700.7</ele>
        <time>2025-01-15T14:23:32.187Z</time>
      </trkpt>
      <trkpt lat="43.66272" lon="6.20362">
        <ele>701.4</ele>
        <time>2025-01-15T14:23:41.999Z</time>
      </trkpt>
      <trkpt lat="43.66266" lon="6.20362">
        <ele>702.1</ele>
        <time>2025-01-15T14:23:51.811Z</time>
      </trkpt>
      <trkpt lat="43.6626" lon="6.20362">
        <ele>702.8</ele>
        <time>2025-01-15T14:24:01.864Z</time>
      </trkpt>
      <trkpt lat="43.66253" lon="6.20362">
        <ele>703.6</ele>
        <time>2025-01-15T14:24:12.482Z</time>
      </trkpt>
      <trkpt lat="43.66247" lon="6.20361">
        <ele>704.3</ele>
        <time>2025-01-15T14:24:22.535Z</time>
      </trkpt>
      <trkpt lat="43.6624" lon="6.20361">
        <ele>705.1</ele>
        <time>2025-01-15T14:24:33.153Z</time>
      </trkpt>
      <trkpt lat="43.66234" lon="6.2036">
        <ele>706</ele>
        <time>2025-01-15T14:24:43.802Z</time>
      </trkpt>
      <trkpt lat="43.66229" lon="6.20359">
        <ele>706.9</ele>
        <time>2025-01-15T14:24:54.450Z</time>
      </trkpt>
      <trkpt lat="43.66223" lon="6.20358">
        <ele>707.7</ele>
        <time>2025-01-15T14:25:04.442Z</time>
      </trkpt>
      <trkpt lat="43.66217" lon="6.20357">
        <ele>708.4</ele>
        <time>2025-01-15T14:25:13.829Z</time>
      </trkpt>
      <trkpt lat="43.66213" lon="6.20356">
        <ele>709</ele>
        <time>2025-01-15T14:25:21.506Z</time>
      </trkpt>
      <trkpt lat="43.66208" lon="6.20355">
        <ele>709.6</ele>
        <time>2025-01-15T14:25:29.183Z</time>
      </trkpt>
      <trkpt lat="43.66204" lon="6.20354">
        <ele>710.1</ele>
        <time>2025-01-15T14:25:36.281Z</time>
      </trkpt>
      <trkpt lat="43.66199" lon="6.20353">
        <ele>710.7</ele>
        <time>2025-01-15T14:25:43.958Z</time>
      </trkpt>
      <trkpt lat="43.66195" lon="6.20352">
        <ele>711.3</ele>
        <time>2025-01-15T14:25:51.635Z</time>
      </trkpt>
      <trkpt lat="43.6619" lon="6.20351">
        <ele>712</ele>
        <time>2025-01-15T14:25:59.957Z</time>
      </trkpt>
      <trkpt lat="43.66186" lon="6.2035">
        <ele>712.8</ele>
        <time>2025-01-15T14:26:08.995Z</time>
      </trkpt>
      <trkpt lat="43.66181" lon="6.20349">
        <ele>713.5</ele>
        <time>2025-01-15T14:26:17.317Z</time>
      </trkpt>
      <trkpt lat="43.66175" lon="6.20349">
        <ele>714.2</ele>
        <time>2025-01-15T14:26:26.896Z</time>
      </trkpt>
      <trkpt lat="43.66169" lon="6.20349">
        <ele>714.9</ele>
        <time>2025-01-15T14:26:36.476Z</time>
      </trkpt>
      <trkpt lat="43.66163" lon="6.20348">
        <ele>715.7</ele>
        <time>2025-01-15T14:26:46.647Z</time>
      </trkpt>
      <trkpt lat="43.66157" lon="6.20348">
        <ele>716.5</ele>
        <time>2025-01-15T14:26:56.818Z</time>
      </trkpt>
      <trkpt lat="43.66153" lon="6.20348">
        <ele>717.1</ele>
        <time>2025-01-15T14:27:04.444Z</time>
      </trkpt>
      <trkpt lat="43.66148" lon="6.20348">
        <ele>717.7</ele>
        <time>2025-01-15T14:27:12.071Z</time>
      </trkpt>
      <trkpt lat="43.66152" lon="6.20342">
        <ele>718.6</ele>
        <time>2025-01-15T14:27:22.803Z</time>
      </trkpt>
      <trkpt lat="43.66158" lon="6.20336">
        <ele>719.3</ele>
        <time>2025-01-15T14:27:33.739Z</time>
      </trkpt>
      <trkpt lat="43.66164" lon="6.20333">
        <ele>719.5</ele>
        <time>2025-01-15T14:27:41.023Z</time>
      </trkpt>
      <trkpt lat="43.66169" lon="6.20329">
        <ele>719.7</ele>
        <time>2025-01-15T14:27:48.306Z</time>
      </trkpt>
      <trkpt lat="43.66173" lon="6.20326">
        <ele>720</ele>
        <time>2025-01-15T14:27:54.403Z</time>
      </trkpt>
      <trkpt lat="43.66177" lon="6.20323">
        <ele>720.4</ele>
        <time>2025-01-15T14:28:00.972Z</time>
      </trkpt>
      <trkpt lat="43.66182" lon="6.2032">
        <ele>720.8</ele>
        <time>2025-01-15T14:28:07.992Z</time>
      </trkpt>
      <trkpt lat="43.66186" lon="6.20317">
        <ele>721.3</ele>
        <time>2025-01-15T14:28:15.514Z</time>
      </trkpt>
      <trkpt lat="43.66192" lon="6.2031">
        <ele>722.8</ele>
        <time>2025-01-15T14:28:32.042Z</time>
      </trkpt>
      <trkpt lat="43.66197" lon="6.20304">
        <ele>724.2</ele>
        <time>2025-01-15T14:28:47.141Z</time>
      </trkpt>
      <trkpt lat="43.662" lon="6.20297">
        <ele>725.5</ele>
        <time>2025-01-15T14:29:01.076Z</time>
      </trkpt>
      <trkpt lat="43.66202" lon="6.20292">
        <ele>726.4</ele>
        <time>2025-01-15T14:29:10.740Z</time>
      </trkpt>
      <trkpt lat="43.66207" lon="6.20289">
        <ele>727.1</ele>
        <time>2025-01-15T14:29:19.815Z</time>
      </trkpt>
      <trkpt lat="43.66213" lon="6.20286">
        <ele>727.8</ele>
        <time>2025-01-15T14:29:29.311Z</time>
      </trkpt>
      <trkpt lat="43.66218" lon="6.20283">
        <ele>728.6</ele>
        <time>2025-01-15T14:29:39.404Z</time>
      </trkpt>
      <trkpt lat="43.66226" lon="6.20279">
        <ele>729.4</ele>
        <time>2025-01-15T14:29:51.945Z</time>
      </trkpt>
      <trkpt lat="43.66233" lon="6.20274">
        <ele>729.8</ele>
        <time>2025-01-15T14:30:01.985Z</time>
      </trkpt>
      <trkpt lat="43.66238" lon="6.20269">
        <ele>730.5</ele>
        <time>2025-01-15T14:30:11.723Z</time>
      </trkpt>
      <trkpt lat="43.6624" lon="6.20264">
        <ele>731.5</ele>
        <time>2025-01-15T14:30:22.375Z</time>
      </trkpt>
      <trkpt lat="43.66242" lon="6.20255">
        <ele>733.4</ele>
        <time>2025-01-15T14:30:42.818Z</time>
      </trkpt>
      <trkpt lat="43.66242" lon="6.20252">
        <ele>734</ele>
        <time>2025-01-15T14:30:49.265Z</time>
      </trkpt>
      <trkpt lat="43.66246" lon="6.20245">
        <ele>735.3</ele>
        <time>2025-01-15T14:31:03.413Z</time>
      </trkpt>
      <trkpt lat="43.66251" lon="6.20237">
        <ele>736.8</ele>
        <time>2025-01-15T14:31:19.835Z</time>
      </trkpt>
      <trkpt lat="43.66255" lon="6.20231">
        <ele>737.8</ele>
        <time>2025-01-15T14:31:31.271Z</time>
      </trkpt>
      <trkpt lat="43.66259" lon="6.20227">
        <ele>738.6</ele>
        <time>2025-01-15T14:31:40.575Z</time>
      </trkpt>
      <trkpt lat="43.66261" lon="6.20221">
        <ele>739.9</ele>
        <time>2025-01-15T14:31:54.512Z</time>
      </trkpt>
      <trkpt lat="43.66263" lon="6.20217">
        <ele>740.6</ele>
        <time>2025-01-15T14:32:02.150Z</time>
      </trkpt>
      <trkpt lat="43.66267" lon="6.2021">
        <ele>742.1</ele>
        <time>2025-01-15T14:32:18.155Z</time>
      </trkpt>
      <trkpt lat="43.66272" lon="6.202">
        <ele>745</ele>
        <time>2025-01-15T14:32:50.777Z</time>
      </trkpt>
      <trkpt lat="43.66275" lon="6.20194">
        <ele>747.1</ele>
        <time>2025-01-15T14:33:15.795Z</time>
      </trkpt>
      <trkpt lat="43.66278" lon="6.20187">
        <ele>748.3</ele>
        <time>2025-01-15T14:33:28.702Z</time>
      </trkpt>
      <trkpt lat="43.66281" lon="6.20177">
        <ele>748.6</ele>
        <time>2025-01-15T14:33:38.285Z</time>
      </trkpt>
      <trkpt lat="43.66284" lon="6.20169">
        <ele>749.3</ele>
        <time>2025-01-15T14:33:48.353Z</time>
      </trkpt>
      <trkpt lat="43.66288" lon="6.20163">
        <ele>749.2</ele>
        <time>2025-01-15T14:33:54.432Z</time>
      </trkpt>
      <trkpt lat="43.66292" lon="6.2016">
        <ele>749.2</ele>
        <time>2025-01-15T14:33:59.366Z</time>
      </trkpt>
      <trkpt lat="43.66297" lon="6.20157">
        <ele>749.5</ele>
        <time>2025-01-15T14:34:06.410Z</time>
      </trkpt>
      <trkpt lat="43.66303" lon="6.20155">
        <ele>750.2</ele>
        <time>2025-01-15T14:34:16.148Z</time>
      </trkpt>
      <trkpt lat="43.66308" lon="6.20152">
        <ele>750.7</ele>
        <time>2025-01-15T14:34:24.120Z</time>
      </trkpt>
      <trkpt lat="43.66313" lon="6.2015">
        <ele>751.3</ele>
        <time>2025-01-15T14:34:32.387Z</time>
      </trkpt>
      <trkpt lat="43.66317" lon="6.20146">
        <ele>752</ele>
        <time>2025-01-15T14:34:41.016Z</time>
      </trkpt>
      <trkpt lat="43.6632" lon="6.20139">
        <ele>753.1</ele>
        <time>2025-01-15T14:34:53.209Z</time>
      </trkpt>
      <trkpt lat="43.66322" lon="6.20134">
        <ele>753.7</ele>
        <time>2025-01-15T14:35:00.524Z</time>
      </trkpt>
      <trkpt lat="43.66327" lon="6.20129">
        <ele>755.1</ele>
        <time>2025-01-15T14:35:15.489Z</time>
      </trkpt>
      <trkpt lat="43.6633" lon="6.20127">
        <ele>756</ele>
        <time>2025-01-15T14:35:25.130Z</time>
      </trkpt>
      <trkpt lat="43.66336" lon="6.20125">
        <ele>757.4</ele>
        <time>2025-01-15T14:35:40.095Z</time>
      </trkpt>
      <trkpt lat="43.66341" lon="6.20124">
        <ele>758.4</ele>
        <time>2025-01-15T14:35:51.020Z</time>
      </trkpt>
      <trkpt lat="43.66344" lon="6.20122">
        <ele>759.2</ele>
        <time>2025-01-15T14:35:59.543Z</time>
      </trkpt>
      <trkpt lat="43.66345" lon="6.20119">
        <ele>759.8</ele>
        <time>2025-01-15T14:36:05.936Z</time>
      </trkpt>
      <trkpt lat="43.66347" lon="6.20116">
        <ele>760.7</ele>
        <time>2025-01-15T14:36:15.808Z</time>
      </trkpt>
      <trkpt lat="43.66348" lon="6.20115">
        <ele>761</ele>
        <time>2025-01-15T14:36:19.004Z</time>
      </trkpt>
      <trkpt lat="43.66353" lon="6.20112">
        <ele>762.8</ele>
        <time>2025-01-15T14:36:39.263Z</time>
      </trkpt>
      <trkpt lat="43.66358" lon="6.20111">
        <ele>764.2</ele>
        <time>2025-01-15T14:36:54.311Z</time>
      </trkpt>
      <trkpt lat="43.66363" lon="6.2011">
        <ele>765.3</ele>
        <time>2025-01-15T14:37:06.123Z</time>
      </trkpt>
      <trkpt lat="43.66365" lon="6.2011">
        <ele>765.5</ele>
        <time>2025-01-15T14:37:09.133Z</time>
        <extensions>
          <visugpx:TrkExtension xmlns:visugpx="https://www.visugpx.com/editgpx/">
            <visugpx:node>23</visugpx:node>
            </visugpx:TrkExtension>
        </extensions>
      </trkpt>
      <trkpt lat="43.66369" lon="6.20108">
        <ele>766.2</ele>
        <time>2025-01-15T14:37:17.225Z</time>
      </trkpt>
      <trkpt lat="43.66376" lon="6.20106">
        <ele>767.4</ele>
        <time>2025-01-15T14:37:30.995Z</time>
      </trkpt>
      <trkpt lat="43.66382" lon="6.20101">
        <ele>769.1</ele>
        <time>2025-01-15T14:37:49.104Z</time>
      </trkpt>
      <trkpt lat="43.66388" lon="6.20098">
        <ele>770.7</ele>
        <time>2025-01-15T14:38:06.152Z</time>
      </trkpt>
      <trkpt lat="43.66395" lon="6.20095">
        <ele>773.2</ele>
        <time>2025-01-15T14:38:34.647Z</time>
      </trkpt>
      <trkpt lat="43.66403" lon="6.20093">
        <ele>776</ele>
        <time>2025-01-15T14:39:06.687Z</time>
      </trkpt>
      <trkpt lat="43.66408" lon="6.2009">
        <ele>778.1</ele>
        <time>2025-01-15T14:39:31.984Z</time>
      </trkpt>
      <trkpt lat="43.66414" lon="6.20087">
        <ele>780.4</ele>
        <time>2025-01-15T14:39:58.832Z</time>
      </trkpt>
      <trkpt lat="43.66421" lon="6.20084">
        <ele>780.5</ele>
        <time>2025-01-15T14:40:07.123Z</time>
      </trkpt>
      <trkpt lat="43.66428" lon="6.20084">
        <ele>778.2</ele>
        <time>2025-01-15T14:40:13.764Z</time>
      </trkpt>
      <trkpt lat="43.66431" lon="6.20085">
        <ele>777.1</ele>
        <time>2025-01-15T14:40:16.692Z</time>
      </trkpt>
      <trkpt lat="43.66433" lon="6.20081">
        <ele>776.5</ele>
        <time>2025-01-15T14:40:20.030Z</time>
      </trkpt>
      <trkpt lat="43.66433" lon="6.20077">
        <ele>776.2</ele>
        <time>2025-01-15T14:40:22.775Z</time>
      </trkpt>
      <trkpt lat="43.66432" lon="6.20073">
        <ele>776.1</ele>
        <time>2025-01-15T14:40:25.783Z</time>
      </trkpt>
      <trkpt lat="43.66433" lon="6.2007">
        <ele>775.7</ele>
        <time>2025-01-15T14:40:28.051Z</time>
      </trkpt>
      <trkpt lat="43.66439" lon="6.20069">
        <ele>774.8</ele>
        <time>2025-01-15T14:40:33.785Z</time>
      </trkpt>
      <trkpt lat="43.66441" lon="6.2007">
        <ele>774.5</ele>
        <time>2025-01-15T14:40:35.803Z</time>
      </trkpt>
      <trkpt lat="43.66441" lon="6.20072">
        <ele>774.4</ele>
        <time>2025-01-15T14:40:37.175Z</time>
      </trkpt>
      <trkpt lat="43.66443" lon="6.20075">
        <ele>773.9</ele>
        <time>2025-01-15T14:40:39.975Z</time>
      </trkpt>
      <trkpt lat="43.66445" lon="6.20076">
        <ele>773.2</ele>
        <time>2025-01-15T14:40:41.993Z</time>
      </trkpt>
      <trkpt lat="43.66452" lon="6.20073">
        <ele>770</ele>
        <time>2025-01-15T14:40:48.947Z</time>
      </trkpt>
      <trkpt lat="43.6646" lon="6.20068">
        <ele>766.6</ele>
        <time>2025-01-15T14:40:57.277Z</time>
      </trkpt>
      <trkpt lat="43.66468" lon="6.20063">
        <ele>763.6</ele>
        <time>2025-01-15T14:41:05.607Z</time>
      </trkpt>
      <trkpt lat="43.66476" lon="6.20058">
        <ele>761.4</ele>
        <time>2025-01-15T14:41:13.937Z</time>
      </trkpt>
      <trkpt lat="43.66481" lon="6.20055">
        <ele>760.7</ele>
        <time>2025-01-15T14:41:18.678Z</time>
      </trkpt>
      <trkpt lat="43.66485" lon="6.20052">
        <ele>759.9</ele>
        <time>2025-01-15T14:41:23.418Z</time>
      </trkpt>
      <trkpt lat="43.66491" lon="6.20049">
        <ele>759</ele>
        <time>2025-01-15T14:41:29.472Z</time>
      </trkpt>
      <trkpt lat="43.66497" lon="6.20046">
        <ele>758.4</ele>
        <time>2025-01-15T14:41:35.525Z</time>
      </trkpt>
      <trkpt lat="43.66502" lon="6.20043">
        <ele>758.2</ele>
        <time>2025-01-15T14:41:40.983Z</time>
      </trkpt>
      <trkpt lat="43.66507" lon="6.20039">
        <ele>758.1</ele>
        <time>2025-01-15T14:41:46.739Z</time>
      </trkpt>
      <trkpt lat="43.66515" lon="6.20035">
        <ele>757.7</ele>
        <time>2025-01-15T14:41:54.811Z</time>
      </trkpt>
      <trkpt lat="43.6652" lon="6.20033">
        <ele>757.7</ele>
        <time>2025-01-15T14:42:00.070Z</time>
      </trkpt>
      <trkpt lat="43.66524" lon="6.2003">
        <ele>757.8</ele>
        <time>2025-01-15T14:42:05.678Z</time>
      </trkpt>
      <trkpt lat="43.6653" lon="6.20027">
        <ele>758</ele>
        <time>2025-01-15T14:42:12.809Z</time>
      </trkpt>
      <trkpt lat="43.66535" lon="6.20024">
        <ele>758.4</ele>
        <time>2025-01-15T14:42:20.776Z</time>
      </trkpt>
      <trkpt lat="43.66542" lon="6.20019">
        <ele>759.6</ele>
        <time>2025-01-15T14:42:35.093Z</time>
      </trkpt>
      <trkpt lat="43.66549" lon="6.20015">
        <ele>761.1</ele>
        <time>2025-01-15T14:42:51.478Z</time>
      </trkpt>
      <trkpt lat="43.66556" lon="6.20011">
        <ele>763</ele>
        <time>2025-01-15T14:43:11.805Z</time>
      </trkpt>
      <trkpt lat="43.66562" lon="6.20007">
        <ele>765.6</ele>
        <time>2025-01-15T14:43:42.345Z</time>
      </trkpt>
      <trkpt lat="43.66568" lon="6.20005">
        <ele>767.4</ele>
        <time>2025-01-15T14:44:02.309Z</time>
      </trkpt>
      <trkpt lat="43.66573" lon="6.20003">
        <ele>769.1</ele>
        <time>2025-01-15T14:44:20.859Z</time>
      </trkpt>
      <trkpt lat="43.66578" lon="6.20001">
        <ele>770.6</ele>
        <time>2025-01-15T14:44:37.510Z</time>
      </trkpt>
      <trkpt lat="43.66582" lon="6.19999">
        <ele>771.9</ele>
        <time>2025-01-15T14:44:51.467Z</time>
      </trkpt>
      <trkpt lat="43.66587" lon="6.19997">
        <ele>773.1</ele>
        <time>2025-01-15T14:45:04.258Z</time>
      </trkpt>
      <trkpt lat="43.66591" lon="6.19995">
        <ele>774.4</ele>
        <time>2025-01-15T14:45:18.215Z</time>
      </trkpt>
      <trkpt lat="43.66597" lon="6.19992">
        <ele>776.4</ele>
        <time>2025-01-15T14:45:40.330Z</time>
      </trkpt>
      <trkpt lat="43.66603" lon="6.19989">
        <ele>778.6</ele>
        <time>2025-01-15T14:46:05.516Z</time>
      </trkpt>
      <trkpt lat="43.66611" lon="6.19984">
        <ele>781.8</ele>
        <time>2025-01-15T14:46:44.018Z</time>
      </trkpt>
      <trkpt lat="43.66618" lon="6.19979">
        <ele>784.3</ele>
        <time>2025-01-15T14:47:11.328Z</time>
      </trkpt>
      <trkpt lat="43.66625" lon="6.19975">
        <ele>786.6</ele>
        <time>2025-01-15T14:47:36.527Z</time>
      </trkpt>
      <trkpt lat="43.66632" lon="6.19971">
        <ele>788.8</ele>
        <time>2025-01-15T14:48:00.375Z</time>
      </trkpt>
      <trkpt lat="43.66639" lon="6.19967">
        <ele>790.4</ele>
        <time>2025-01-15T14:48:17.634Z</time>
      </trkpt>
      <trkpt lat="43.66646" lon="6.19963">
        <ele>790.6</ele>
        <time>2025-01-15T14:48:26.555Z</time>
      </trkpt>
      <trkpt lat="43.66652" lon="6.1996">
        <ele>791.1</ele>
        <time>2025-01-15T14:48:35.469Z</time>
      </trkpt>
      <trkpt lat="43.66658" lon="6.19957">
        <ele>792</ele>
        <time>2025-01-15T14:48:46.591Z</time>
      </trkpt>
      <trkpt lat="43.66663" lon="6.19953">
        <ele>793.7</ele>
        <time>2025-01-15T14:49:05.258Z</time>
      </trkpt>
      <trkpt lat="43.66667" lon="6.19948">
        <ele>795.7</ele>
        <time>2025-01-15T14:49:28.593Z</time>
      </trkpt>
      <trkpt lat="43.66673" lon="6.1994">
        <ele>797.2</ele>
        <time>2025-01-15T14:49:45.406Z</time>
      </trkpt>
      <trkpt lat="43.6668" lon="6.19932">
        <ele>798.1</ele>
        <time>2025-01-15T14:49:58.900Z</time>
      </trkpt>
      <trkpt lat="43.66686" lon="6.19923">
        <ele>799.5</ele>
        <time>2025-01-15T14:50:15.413Z</time>
      </trkpt>
      <trkpt lat="43.66691" lon="6.19916">
        <ele>800.8</ele>
        <time>2025-01-15T14:50:29.917Z</time>
      </trkpt>
      <trkpt lat="43.66696" lon="6.19909">
        <ele>802.1</ele>
        <time>2025-01-15T14:50:44.422Z</time>
      </trkpt>
      <trkpt lat="43.667" lon="6.19904">
        <ele>802.9</ele>
        <time>2025-01-15T14:50:53.797Z</time>
      </trkpt>
      <trkpt lat="43.66703" lon="6.19899">
        <ele>803.7</ele>
        <time>2025-01-15T14:51:03.172Z</time>
      </trkpt>
      <trkpt lat="43.66707" lon="6.19894">
        <ele>804.6</ele>
        <time>2025-01-15T14:51:13.280Z</time>
      </trkpt>
      <trkpt lat="43.6671" lon="6.19889">
        <ele>805.5</ele>
        <time>2025-01-15T14:51:23.387Z</time>
      </trkpt>
      <trkpt lat="43.66714" lon="6.19883">
        <ele>806.3</ele>
        <time>2025-01-15T14:51:33.708Z</time>
      </trkpt>
      <trkpt lat="43.66718" lon="6.19876">
        <ele>807.2</ele>
        <time>2025-01-15T14:51:44.659Z</time>
      </trkpt>
      <trkpt lat="43.66718" lon="6.19875">
        <ele>807.3</ele>
        <time>2025-01-15T14:51:45.907Z</time>
      </trkpt>
      <trkpt lat="43.66719" lon="6.19876">
        <ele>807.2</ele>
        <time>2025-01-15T14:51:47.078Z</time>
        <extensions>
          <visugpx:TrkExtension xmlns:visugpx="https://www.visugpx.com/editgpx/">
            <visugpx:node>24</visugpx:node>
            </visugpx:TrkExtension>
        </extensions>
      </trkpt>
      <trkpt lat="43.6672" lon="6.19876">
        <ele>807.3</ele>
        <time>2025-01-15T14:51:48.583Z</time>
      </trkpt>
      <trkpt lat="43.6672" lon="6.19875">
        <ele>807.4</ele>
        <time>2025-01-15T14:51:49.831Z</time>
      </trkpt>
      <trkpt lat="43.6672" lon="6.19874">
        <ele>807.5</ele>
        <time>2025-01-15T14:51:51.079Z</time>
      </trkpt>
      <trkpt lat="43.6672" lon="6.19873">
        <ele>807.6</ele>
        <time>2025-01-15T14:51:52.327Z</time>
      </trkpt>
      <trkpt lat="43.66721" lon="6.19873">
        <ele>807.6</ele>
        <time>2025-01-15T14:51:53.411Z</time>
      </trkpt>
      <trkpt lat="43.66721" lon="6.19873">
        <ele>807.6</ele>
        <time>2025-01-15T14:51:53.411Z</time>
      </trkpt>
      <trkpt lat="43.66722" lon="6.19872">
        <ele>807.8</ele>
        <time>2025-01-15T14:51:55.737Z</time>
      </trkpt>
      <trkpt lat="43.66722" lon="6.19872">
        <ele>807.8</ele>
        <time>2025-01-15T14:51:55.737Z</time>
      </trkpt>
      <trkpt lat="43.66722" lon="6.19872">
        <ele>807.8</ele>
        <time>2025-01-15T14:51:55.737Z</time>
      </trkpt>
      <trkpt lat="43.66722" lon="6.19872">
        <ele>807.8</ele>
        <time>2025-01-15T14:51:55.737Z</time>
      </trkpt>
      <trkpt lat="43.66722" lon="6.19872">
        <ele>807.8</ele>
        <time>2025-01-15T14:51:55.737Z</time>
      </trkpt>
      <trkpt lat="43.66721" lon="6.19872">
        <ele>807.8</ele>
        <time>2025-01-15T14:51:56.821Z</time>
      </trkpt>
      <trkpt lat="43.66721" lon="6.19872">
        <ele>807.8</ele>
        <time>2025-01-15T14:51:56.821Z</time>
      </trkpt>
      <trkpt lat="43.66721" lon="6.19872">
        <ele>807.8</ele>
        <time>2025-01-15T14:51:56.821Z</time>
      </trkpt>
      <trkpt lat="43.66721" lon="6.19872">
        <ele>807.8</ele>
        <time>2025-01-15T14:51:56.821Z</time>
      </trkpt>
      <trkpt lat="43.66721" lon="6.19872">
        <ele>807.8</ele>
        <time>2025-01-15T14:51:56.821Z</time>
      </trkpt>
      <trkpt lat="43.66721" lon="6.19872">
        <ele>807.8</ele>
        <time>2025-01-15T14:51:56.821Z</time>
      </trkpt>
      <trkpt lat="43.66721" lon="6.19872">
        <ele>807.8</ele>
        <time>2025-01-15T14:51:56.821Z</time>
      </trkpt>
      <trkpt lat="43.66721" lon="6.19872">
        <ele>807.8</ele>
        <time>2025-01-15T14:51:56.821Z</time>
      </trkpt>
      <trkpt lat="43.66721" lon="6.19872">
        <ele>807.8</ele>
        <time>2025-01-15T14:51:56.821Z</time>
      </trkpt>
      <trkpt lat="43.66721" lon="6.19872">
        <ele>807.8</ele>
        <time>2025-01-15T14:51:56.821Z</time>
      </trkpt>
      <trkpt lat="43.66721" lon="6.19872">
        <ele>807.8</ele>
        <time>2025-01-15T14:51:56.821Z</time>
      </trkpt>
      <trkpt lat="43.66721" lon="6.19872">
        <ele>807.8</ele>
        <time>2025-01-15T14:51:56.821Z</time>
      </trkpt>
      <trkpt lat="43.66721" lon="6.19872">
        <ele>807.8</ele>
        <time>2025-01-15T14:51:56.821Z</time>
      </trkpt>
      <trkpt lat="43.66721" lon="6.19872">
        <ele>807.8</ele>
        <time>2025-01-15T14:51:56.821Z</time>
      </trkpt>
      <trkpt lat="43.66721" lon="6.19872">
        <ele>807.8</ele>
        <time>2025-01-15T14:51:56.821Z</time>
      </trkpt>
      <trkpt lat="43.66721" lon="6.19872">
        <ele>807.8</ele>
        <time>2025-01-15T14:51:56.821Z</time>
      </trkpt>
      <trkpt lat="43.66721" lon="6.19872">
        <ele>807.8</ele>
        <time>2025-01-15T14:51:56.821Z</time>
      </trkpt>
      <trkpt lat="43.66721" lon="6.19872">
        <ele>807.8</ele>
        <time>2025-01-15T14:51:56.821Z</time>
      </trkpt>
      <trkpt lat="43.66721" lon="6.19872">
        <ele>807.8</ele>
        <time>2025-01-15T14:51:56.821Z</time>
      </trkpt>
      <trkpt lat="43.66721" lon="6.19872">
        <ele>807.8</ele>
        <time>2025-01-15T14:51:56.821Z</time>
      </trkpt>
      <trkpt lat="43.66721" lon="6.19872">
        <ele>807.8</ele>
        <time>2025-01-15T14:51:56.821Z</time>
      </trkpt>
      <trkpt lat="43.66721" lon="6.19872">
        <ele>807.8</ele>
        <time>2025-01-15T14:51:56.821Z</time>
      </trkpt>
      <trkpt lat="43.66721" lon="6.19872">
        <ele>807.8</ele>
        <time>2025-01-15T14:51:56.821Z</time>
      </trkpt>
      <trkpt lat="43.66721" lon="6.19872">
        <ele>807.8</ele>
        <time>2025-01-15T14:51:56.821Z</time>
      </trkpt>
      <trkpt lat="43.66721" lon="6.19872">
        <ele>807.8</ele>
        <time>2025-01-15T14:51:56.821Z</time>
      </trkpt>
      <trkpt lat="43.66721" lon="6.19872">
        <ele>807.8</ele>
        <time>2025-01-15T14:51:56.821Z</time>
      </trkpt>
      <trkpt lat="43.66721" lon="6.19872">
        <ele>807.8</ele>
        <time>2025-01-15T14:51:56.821Z</time>
      </trkpt>
      <trkpt lat="43.66721" lon="6.19872">
        <ele>807.8</ele>
        <time>2025-01-15T14:51:56.821Z</time>
      </trkpt>
      <trkpt lat="43.66721" lon="6.19872">
        <ele>807.8</ele>
        <time>2025-01-15T14:51:56.821Z</time>
      </trkpt>
      <trkpt lat="43.66721" lon="6.19872">
        <ele>807.8</ele>
        <time>2025-01-15T14:51:56.821Z</time>
      </trkpt>
      <trkpt lat="43.66721" lon="6.19872">
        <ele>807.8</ele>
        <time>2025-01-15T14:51:56.821Z</time>
      </trkpt>
      <trkpt lat="43.66721" lon="6.19872">
        <ele>807.8</ele>
        <time>2025-01-15T14:51:56.821Z</time>
      </trkpt>
      <trkpt lat="43.66721" lon="6.19872">
        <ele>807.8</ele>
        <time>2025-01-15T14:51:56.821Z</time>
      </trkpt>
      <trkpt lat="43.66721" lon="6.19872">
        <ele>807.8</ele>
        <time>2025-01-15T14:51:56.821Z</time>
      </trkpt>
      <trkpt lat="43.66721" lon="6.19872">
        <ele>807.8</ele>
        <time>2025-01-15T14:51:56.821Z</time>
      </trkpt>
      <trkpt lat="43.66721" lon="6.19872">
        <ele>807.8</ele>
        <time>2025-01-15T14:51:56.821Z</time>
      </trkpt>
      <trkpt lat="43.66721" lon="6.19872">
        <ele>807.8</ele>
        <time>2025-01-15T14:51:56.821Z</time>
      </trkpt>
      <trkpt lat="43.66721" lon="6.19872">
        <ele>807.8</ele>
        <time>2025-01-15T14:51:56.821Z</time>
      </trkpt>
      <trkpt lat="43.66721" lon="6.19872">
        <ele>807.8</ele>
        <time>2025-01-15T14:51:56.821Z</time>
      </trkpt>
      <trkpt lat="43.66721" lon="6.19871">
        <ele>807.9</ele>
        <time>2025-01-15T14:51:58.069Z</time>
      </trkpt>
      <trkpt lat="43.66721" lon="6.19871">
        <ele>807.9</ele>
        <time>2025-01-15T14:51:58.069Z</time>
      </trkpt>
      <trkpt lat="43.66721" lon="6.19871">
        <ele>807.9</ele>
        <time>2025-01-15T14:51:58.069Z</time>
      </trkpt>
      <trkpt lat="43.66721" lon="6.19872">
        <ele>807.8</ele>
        <time>2025-01-15T14:51:58.756Z</time>
      </trkpt>
      <trkpt lat="43.66721" lon="6.19871">
        <ele>807.9</ele>
        <time>2025-01-15T14:52:00.004Z</time>
      </trkpt>
      <trkpt lat="43.66722" lon="6.19871">
        <ele>807.9</ele>
        <time>2025-01-15T14:52:01.088Z</time>
      </trkpt>
      <trkpt lat="43.66721" lon="6.19872">
        <ele>807.8</ele>
        <time>2025-01-15T14:52:02.259Z</time>
      </trkpt>
      <trkpt lat="43.66722" lon="6.19872">
        <ele>807.8</ele>
        <time>2025-01-15T14:52:03.344Z</time>
      </trkpt>
      <trkpt lat="43.66722" lon="6.19872">
        <ele>807.8</ele>
        <time>2025-01-15T14:52:03.344Z</time>
      </trkpt>
      <trkpt lat="43.66722" lon="6.19872">
        <ele>807.8</ele>
        <time>2025-01-15T14:52:03.344Z</time>
      </trkpt>
      <trkpt lat="43.66722" lon="6.19872">
        <ele>807.8</ele>
        <time>2025-01-15T14:52:03.344Z</time>
      </trkpt>
      <trkpt lat="43.66722" lon="6.19872">
        <ele>807.8</ele>
        <time>2025-01-15T14:52:03.344Z</time>
      </trkpt>
      <trkpt lat="43.66722" lon="6.19872">
        <ele>807.8</ele>
        <time>2025-01-15T14:52:03.344Z</time>
      </trkpt>
      <trkpt lat="43.66722" lon="6.19872">
        <ele>807.8</ele>
        <time>2025-01-15T14:52:03.344Z</time>
      </trkpt>
      <trkpt lat="43.66722" lon="6.19872">
        <ele>807.8</ele>
        <time>2025-01-15T14:52:03.344Z</time>
      </trkpt>
      <trkpt lat="43.66722" lon="6.19872">
        <ele>807.8</ele>
        <time>2025-01-15T14:52:03.344Z</time>
      </trkpt>
      <trkpt lat="43.66722" lon="6.19872">
        <ele>807.8</ele>
        <time>2025-01-15T14:52:03.344Z</time>
      </trkpt>
      <trkpt lat="43.66722" lon="6.19872">
        <ele>807.8</ele>
        <time>2025-01-15T14:52:03.344Z</time>
      </trkpt>
      <trkpt lat="43.66722" lon="6.19872">
        <ele>807.8</ele>
        <time>2025-01-15T14:52:03.344Z</time>
      </trkpt>
      <trkpt lat="43.66722" lon="6.19872">
        <ele>807.8</ele>
        <time>2025-01-15T14:52:03.344Z</time>
      </trkpt>
      <trkpt lat="43.66722" lon="6.19872">
        <ele>807.8</ele>
        <time>2025-01-15T14:52:03.344Z</time>
      </trkpt>
      <trkpt lat="43.66722" lon="6.19872">
        <ele>807.8</ele>
        <time>2025-01-15T14:52:03.344Z</time>
      </trkpt>
      <trkpt lat="43.66722" lon="6.19872">
        <ele>807.8</ele>
        <time>2025-01-15T14:52:03.344Z</time>
      </trkpt>
      <trkpt lat="43.66722" lon="6.19872">
        <ele>807.8</ele>
        <time>2025-01-15T14:52:03.344Z</time>
      </trkpt>
      <trkpt lat="43.66722" lon="6.19872">
        <ele>807.8</ele>
        <time>2025-01-15T14:52:03.344Z</time>
      </trkpt>
      <trkpt lat="43.66722" lon="6.19872">
        <ele>807.8</ele>
        <time>2025-01-15T14:52:03.344Z</time>
      </trkpt>
      <trkpt lat="43.66722" lon="6.19872">
        <ele>807.8</ele>
        <time>2025-01-15T14:52:03.344Z</time>
      </trkpt>
      <trkpt lat="43.66722" lon="6.19872">
        <ele>807.8</ele>
        <time>2025-01-15T14:52:03.344Z</time>
      </trkpt>
      <trkpt lat="43.66722" lon="6.19872">
        <ele>807.8</ele>
        <time>2025-01-15T14:52:03.344Z</time>
      </trkpt>
      <trkpt lat="43.66722" lon="6.19872">
        <ele>807.8</ele>
        <time>2025-01-15T14:52:03.344Z</time>
      </trkpt>
      <trkpt lat="43.66722" lon="6.19872">
        <ele>807.8</ele>
        <time>2025-01-15T14:52:03.344Z</time>
      </trkpt>
      <trkpt lat="43.66722" lon="6.19872">
        <ele>807.8</ele>
        <time>2025-01-15T14:52:03.344Z</time>
      </trkpt>
      <trkpt lat="43.66722" lon="6.19872">
        <ele>807.8</ele>
        <time>2025-01-15T14:52:03.344Z</time>
      </trkpt>
      <trkpt lat="43.66722" lon="6.19872">
        <ele>807.8</ele>
        <time>2025-01-15T14:52:03.344Z</time>
      </trkpt>
      <trkpt lat="43.66722" lon="6.19872">
        <ele>807.8</ele>
        <time>2025-01-15T14:52:03.344Z</time>
      </trkpt>
      <trkpt lat="43.66722" lon="6.19872">
        <ele>807.8</ele>
        <time>2025-01-15T14:52:03.344Z</time>
      </trkpt>
      <trkpt lat="43.66722" lon="6.19872">
        <ele>807.8</ele>
        <time>2025-01-15T14:52:03.344Z</time>
      </trkpt>
      <trkpt lat="43.66722" lon="6.19872">
        <ele>807.8</ele>
        <time>2025-01-15T14:52:03.344Z</time>
      </trkpt>
      <trkpt lat="43.66722" lon="6.19872">
        <ele>807.8</ele>
        <time>2025-01-15T14:52:03.344Z</time>
      </trkpt>
      <trkpt lat="43.66722" lon="6.19872">
        <ele>807.8</ele>
        <time>2025-01-15T14:52:03.344Z</time>
      </trkpt>
      <trkpt lat="43.66722" lon="6.19872">
        <ele>807.8</ele>
        <time>2025-01-15T14:52:03.344Z</time>
      </trkpt>
      <trkpt lat="43.66722" lon="6.19872">
        <ele>807.8</ele>
        <time>2025-01-15T14:52:03.344Z</time>
      </trkpt>
      <trkpt lat="43.66722" lon="6.19872">
        <ele>807.8</ele>
        <time>2025-01-15T14:52:03.344Z</time>
      </trkpt>
      <trkpt lat="43.66722" lon="6.19872">
        <ele>807.8</ele>
        <time>2025-01-15T14:52:03.344Z</time>
      </trkpt>
      <trkpt lat="43.66721" lon="6.19872">
        <ele>807.8</ele>
        <time>2025-01-15T14:52:04.428Z</time>
      </trkpt>
      <trkpt lat="43.66721" lon="6.19872">
        <ele>807.8</ele>
        <time>2025-01-15T14:52:04.428Z</time>
      </trkpt>
      <trkpt lat="43.66721" lon="6.19872">
        <ele>807.8</ele>
        <time>2025-01-15T14:52:04.428Z</time>
      </trkpt>
      <trkpt lat="43.66721" lon="6.19872">
        <ele>807.8</ele>
        <time>2025-01-15T14:52:04.428Z</time>
      </trkpt>
      <trkpt lat="43.66721" lon="6.19872">
        <ele>807.8</ele>
        <time>2025-01-15T14:52:04.428Z</time>
      </trkpt>
      <trkpt lat="43.66721" lon="6.19872">
        <ele>807.8</ele>
        <time>2025-01-15T14:52:04.428Z</time>
      </trkpt>
      <trkpt lat="43.66721" lon="6.19872">
        <ele>807.8</ele>
        <time>2025-01-15T14:52:04.428Z</time>
      </trkpt>
      <trkpt lat="43.66721" lon="6.19872">
        <ele>807.8</ele>
        <time>2025-01-15T14:52:04.428Z</time>
      </trkpt>
      <trkpt lat="43.66721" lon="6.19872">
        <ele>807.8</ele>
        <time>2025-01-15T14:52:04.428Z</time>
      </trkpt>
      <trkpt lat="43.66721" lon="6.19872">
        <ele>807.8</ele>
        <time>2025-01-15T14:52:04.428Z</time>
      </trkpt>
      <trkpt lat="43.66721" lon="6.19872">
        <ele>807.8</ele>
        <time>2025-01-15T14:52:04.428Z</time>
      </trkpt>
      <trkpt lat="43.66721" lon="6.19872">
        <ele>807.8</ele>
        <time>2025-01-15T14:52:04.428Z</time>
      </trkpt>
      <trkpt lat="43.66721" lon="6.19872">
        <ele>807.8</ele>
        <time>2025-01-15T14:52:04.428Z</time>
      </trkpt>
      <trkpt lat="43.66721" lon="6.19872">
        <ele>807.8</ele>
        <time>2025-01-15T14:52:04.428Z</time>
      </trkpt>
      <trkpt lat="43.66721" lon="6.19872">
        <ele>807.8</ele>
        <time>2025-01-15T14:52:04.428Z</time>
      </trkpt>
      <trkpt lat="43.66721" lon="6.19872">
        <ele>807.8</ele>
        <time>2025-01-15T14:52:04.428Z</time>
      </trkpt>
      <trkpt lat="43.66721" lon="6.19872">
        <ele>807.8</ele>
        <time>2025-01-15T14:52:04.428Z</time>
      </trkpt>
      <trkpt lat="43.66721" lon="6.19872">
        <ele>807.8</ele>
        <time>2025-01-15T14:52:04.428Z</time>
      </trkpt>
      <trkpt lat="43.66721" lon="6.19872">
        <ele>807.8</ele>
        <time>2025-01-15T14:52:04.428Z</time>
      </trkpt>
      <trkpt lat="43.66721" lon="6.19872">
        <ele>807.8</ele>
        <time>2025-01-15T14:52:04.428Z</time>
      </trkpt>
      <trkpt lat="43.66721" lon="6.19872">
        <ele>807.8</ele>
        <time>2025-01-15T14:52:04.428Z</time>
      </trkpt>
      <trkpt lat="43.66721" lon="6.19872">
        <ele>807.8</ele>
        <time>2025-01-15T14:52:04.428Z</time>
      </trkpt>
      <trkpt lat="43.66721" lon="6.19872">
        <ele>807.8</ele>
        <time>2025-01-15T14:52:04.428Z</time>
      </trkpt>
      <trkpt lat="43.66721" lon="6.19872">
        <ele>807.8</ele>
        <time>2025-01-15T14:52:04.428Z</time>
      </trkpt>
      <trkpt lat="43.66721" lon="6.19872">
        <ele>807.8</ele>
        <time>2025-01-15T14:52:04.428Z</time>
      </trkpt>
      <trkpt lat="43.66721" lon="6.19872">
        <ele>807.8</ele>
        <time>2025-01-15T14:52:04.428Z</time>
      </trkpt>
      <trkpt lat="43.66721" lon="6.19872">
        <ele>807.8</ele>
        <time>2025-01-15T14:52:04.428Z</time>
      </trkpt>
      <trkpt lat="43.66721" lon="6.19872">
        <ele>807.8</ele>
        <time>2025-01-15T14:52:04.428Z</time>
      </trkpt>
      <trkpt lat="43.66721" lon="6.19872">
        <ele>807.8</ele>
        <time>2025-01-15T14:52:04.428Z</time>
      </trkpt>
      <trkpt lat="43.66721" lon="6.19872">
        <ele>807.8</ele>
        <time>2025-01-15T14:52:04.428Z</time>
      </trkpt>
      <trkpt lat="43.66721" lon="6.19872">
        <ele>807.8</ele>
        <time>2025-01-15T14:52:04.428Z</time>
      </trkpt>
      <trkpt lat="43.66721" lon="6.19872">
        <ele>807.8</ele>
        <time>2025-01-15T14:52:04.428Z</time>
      </trkpt>
      <trkpt lat="43.66721" lon="6.19872">
        <ele>807.8</ele>
        <time>2025-01-15T14:52:04.428Z</time>
      </trkpt>
      <trkpt lat="43.66721" lon="6.19872">
        <ele>807.8</ele>
        <time>2025-01-15T14:52:04.428Z</time>
      </trkpt>
      <trkpt lat="43.66721" lon="6.19872">
        <ele>807.8</ele>
        <time>2025-01-15T14:52:04.428Z</time>
      </trkpt>
      <trkpt lat="43.66721" lon="6.19872">
        <ele>807.8</ele>
        <time>2025-01-15T14:52:04.428Z</time>
      </trkpt>
      <trkpt lat="43.66721" lon="6.19872">
        <ele>807.8</ele>
        <time>2025-01-15T14:52:04.428Z</time>
      </trkpt>
      <trkpt lat="43.66721" lon="6.19872">
        <ele>807.8</ele>
        <time>2025-01-15T14:52:04.428Z</time>
      </trkpt>
      <trkpt lat="43.66721" lon="6.19872">
        <ele>807.8</ele>
        <time>2025-01-15T14:52:04.428Z</time>
      </trkpt>
      <trkpt lat="43.66721" lon="6.19872">
        <ele>807.8</ele>
        <time>2025-01-15T14:52:04.428Z</time>
      </trkpt>
      <trkpt lat="43.66721" lon="6.19872">
        <ele>807.8</ele>
        <time>2025-01-15T14:52:04.428Z</time>
      </trkpt>
      <trkpt lat="43.66721" lon="6.19872">
        <ele>807.8</ele>
        <time>2025-01-15T14:52:04.428Z</time>
      </trkpt>
      <trkpt lat="43.66721" lon="6.19872">
        <ele>807.8</ele>
        <time>2025-01-15T14:52:04.428Z</time>
      </trkpt>
      <trkpt lat="43.66721" lon="6.19872">
        <ele>807.8</ele>
        <time>2025-01-15T14:52:04.428Z</time>
      </trkpt>
      <trkpt lat="43.66721" lon="6.19872">
        <ele>807.8</ele>
        <time>2025-01-15T14:52:04.428Z</time>
      </trkpt>
      <trkpt lat="43.66721" lon="6.19872">
        <ele>807.8</ele>
        <time>2025-01-15T14:52:04.428Z</time>
      </trkpt>
      <trkpt lat="43.66721" lon="6.19872">
        <ele>807.8</ele>
        <time>2025-01-15T14:52:04.428Z</time>
      </trkpt>
      <trkpt lat="43.66721" lon="6.19872">
        <ele>807.8</ele>
        <time>2025-01-15T14:52:04.428Z</time>
      </trkpt>
      <trkpt lat="43.66721" lon="6.19872">
        <ele>807.8</ele>
        <time>2025-01-15T14:52:04.428Z</time>
      </trkpt>
      <trkpt lat="43.66721" lon="6.19872">
        <ele>807.8</ele>
        <time>2025-01-15T14:52:04.428Z</time>
      </trkpt>
      <trkpt lat="43.66721" lon="6.19872">
        <ele>807.8</ele>
        <time>2025-01-15T14:52:04.428Z</time>
      </trkpt>
      <trkpt lat="43.66721" lon="6.19872">
        <ele>807.8</ele>
        <time>2025-01-15T14:52:04.428Z</time>
      </trkpt>
      <trkpt lat="43.66721" lon="6.19872">
        <ele>807.8</ele>
        <time>2025-01-15T14:52:04.428Z</time>
      </trkpt>
      <trkpt lat="43.66721" lon="6.19872">
        <ele>807.8</ele>
        <time>2025-01-15T14:52:04.428Z</time>
      </trkpt>
      <trkpt lat="43.66721" lon="6.19872">
        <ele>807.8</ele>
        <time>2025-01-15T14:52:04.428Z</time>
      </trkpt>
      <trkpt lat="43.66721" lon="6.19872">
        <ele>807.8</ele>
        <time>2025-01-15T14:52:04.428Z</time>
      </trkpt>
      <trkpt lat="43.66721" lon="6.19872">
        <ele>807.8</ele>
        <time>2025-01-15T14:52:04.428Z</time>
      </trkpt>
      <trkpt lat="43.66721" lon="6.19872">
        <ele>807.8</ele>
        <time>2025-01-15T14:52:04.428Z</time>
      </trkpt>
      <trkpt lat="43.66721" lon="6.19872">
        <ele>807.8</ele>
        <time>2025-01-15T14:52:04.428Z</time>
      </trkpt>
      <trkpt lat="43.66721" lon="6.19872">
        <ele>807.8</ele>
        <time>2025-01-15T14:52:04.428Z</time>
      </trkpt>
      <trkpt lat="43.66721" lon="6.19872">
        <ele>807.8</ele>
        <time>2025-01-15T14:52:04.428Z</time>
      </trkpt>
      <trkpt lat="43.66721" lon="6.19872">
        <ele>807.8</ele>
        <time>2025-01-15T14:52:04.428Z</time>
      </trkpt>
      <trkpt lat="43.66721" lon="6.19872">
        <ele>807.8</ele>
        <time>2025-01-15T14:52:04.428Z</time>
      </trkpt>
      <trkpt lat="43.66721" lon="6.19872">
        <ele>807.8</ele>
        <time>2025-01-15T14:52:04.428Z</time>
      </trkpt>
      <trkpt lat="43.66721" lon="6.19872">
        <ele>807.8</ele>
        <time>2025-01-15T14:52:04.428Z</time>
      </trkpt>
      <trkpt lat="43.66721" lon="6.19872">
        <ele>807.8</ele>
        <time>2025-01-15T14:52:04.428Z</time>
      </trkpt>
      <trkpt lat="43.66722" lon="6.19872">
        <ele>807.8</ele>
        <time>2025-01-15T14:52:05.512Z</time>
      </trkpt>
      <trkpt lat="43.66722" lon="6.19872">
        <ele>807.8</ele>
        <time>2025-01-15T14:52:05.512Z</time>
      </trkpt>
      <trkpt lat="43.66722" lon="6.19872">
        <ele>807.8</ele>
        <time>2025-01-15T14:52:05.512Z</time>
      </trkpt>
      <trkpt lat="43.66722" lon="6.19872">
        <ele>807.8</ele>
        <time>2025-01-15T14:52:05.512Z</time>
      </trkpt>
      <trkpt lat="43.66722" lon="6.19872">
        <ele>807.8</ele>
        <time>2025-01-15T14:52:05.512Z</time>
      </trkpt>
      <trkpt lat="43.66722" lon="6.19872">
        <ele>807.8</ele>
        <time>2025-01-15T14:52:05.512Z</time>
      </trkpt>
      <trkpt lat="43.66722" lon="6.19872">
        <ele>807.8</ele>
        <time>2025-01-15T14:52:05.512Z</time>
      </trkpt>
      <trkpt lat="43.66722" lon="6.19872">
        <ele>807.8</ele>
        <time>2025-01-15T14:52:05.512Z</time>
      </trkpt>
      <trkpt lat="43.66722" lon="6.19872">
        <ele>807.8</ele>
        <time>2025-01-15T14:52:05.512Z</time>
      </trkpt>
      <trkpt lat="43.66722" lon="6.19872">
        <ele>807.8</ele>
        <time>2025-01-15T14:52:05.512Z</time>
      </trkpt>
      <trkpt lat="43.66722" lon="6.19872">
        <ele>807.8</ele>
        <time>2025-01-15T14:52:05.512Z</time>
      </trkpt>
      <trkpt lat="43.66722" lon="6.19872">
        <ele>807.8</ele>
        <time>2025-01-15T14:52:05.512Z</time>
      </trkpt>
      <trkpt lat="43.66722" lon="6.19872">
        <ele>807.8</ele>
        <time>2025-01-15T14:52:05.512Z</time>
      </trkpt>
      <trkpt lat="43.66722" lon="6.19872">
        <ele>807.8</ele>
        <time>2025-01-15T14:52:05.512Z</time>
      </trkpt>
      <trkpt lat="43.66722" lon="6.19872">
        <ele>807.8</ele>
        <time>2025-01-15T14:52:05.512Z</time>
      </trkpt>
      <trkpt lat="43.66722" lon="6.19872">
        <ele>807.8</ele>
        <time>2025-01-15T14:52:05.512Z</time>
      </trkpt>
      <trkpt lat="43.66722" lon="6.19872">
        <ele>807.8</ele>
        <time>2025-01-15T14:52:05.512Z</time>
      </trkpt>
      <trkpt lat="43.66722" lon="6.19872">
        <ele>807.8</ele>
        <time>2025-01-15T14:52:05.512Z</time>
      </trkpt>
      <trkpt lat="43.66722" lon="6.19872">
        <ele>807.8</ele>
        <time>2025-01-15T14:52:05.512Z</time>
      </trkpt>
      <trkpt lat="43.66722" lon="6.19872">
        <ele>807.8</ele>
        <time>2025-01-15T14:52:05.512Z</time>
      </trkpt>
      <trkpt lat="43.66722" lon="6.19872">
        <ele>807.8</ele>
        <time>2025-01-15T14:52:05.512Z</time>
      </trkpt>
      <trkpt lat="43.66722" lon="6.19872">
        <ele>807.8</ele>
        <time>2025-01-15T14:52:05.512Z</time>
      </trkpt>
      <trkpt lat="43.66722" lon="6.19872">
        <ele>807.8</ele>
        <time>2025-01-15T14:52:05.512Z</time>
      </trkpt>
      <trkpt lat="43.66722" lon="6.19872">
        <ele>807.8</ele>
        <time>2025-01-15T14:52:05.512Z</time>
      </trkpt>
      <trkpt lat="43.66722" lon="6.19872">
        <ele>807.8</ele>
        <time>2025-01-15T14:52:05.512Z</time>
      </trkpt>
      <trkpt lat="43.66722" lon="6.19872">
        <ele>807.8</ele>
        <time>2025-01-15T14:52:05.512Z</time>
      </trkpt>
      <trkpt lat="43.66722" lon="6.19872">
        <ele>807.8</ele>
        <time>2025-01-15T14:52:05.512Z</time>
      </trkpt>
      <trkpt lat="43.66722" lon="6.19872">
        <ele>807.8</ele>
        <time>2025-01-15T14:52:05.512Z</time>
      </trkpt>
      <trkpt lat="43.66722" lon="6.19872">
        <ele>807.8</ele>
        <time>2025-01-15T14:52:05.512Z</time>
      </trkpt>
      <trkpt lat="43.66722" lon="6.19872">
        <ele>807.8</ele>
        <time>2025-01-15T14:52:05.512Z</time>
      </trkpt>
      <trkpt lat="43.66722" lon="6.19872">
        <ele>807.8</ele>
        <time>2025-01-15T14:52:05.512Z</time>
      </trkpt>
      <trkpt lat="43.66722" lon="6.19872">
        <ele>807.8</ele>
        <time>2025-01-15T14:52:05.512Z</time>
      </trkpt>
      <trkpt lat="43.66722" lon="6.19872">
        <ele>807.8</ele>
        <time>2025-01-15T14:52:05.512Z</time>
      </trkpt>
      <trkpt lat="43.66722" lon="6.19872">
        <ele>807.8</ele>
        <time>2025-01-15T14:52:05.512Z</time>
      </trkpt>
      <trkpt lat="43.66722" lon="6.19872">
        <ele>807.8</ele>
        <time>2025-01-15T14:52:05.512Z</time>
      </trkpt>
      <trkpt lat="43.66722" lon="6.19872">
        <ele>807.8</ele>
        <time>2025-01-15T14:52:05.512Z</time>
      </trkpt>
      <trkpt lat="43.66722" lon="6.19872">
        <ele>807.8</ele>
        <time>2025-01-15T14:52:05.512Z</time>
      </trkpt>
      <trkpt lat="43.66722" lon="6.19872">
        <ele>807.8</ele>
        <time>2025-01-15T14:52:05.512Z</time>
      </trkpt>
      <trkpt lat="43.66722" lon="6.19872">
        <ele>807.8</ele>
        <time>2025-01-15T14:52:05.512Z</time>
      </trkpt>
      <trkpt lat="43.66722" lon="6.19872">
        <ele>807.8</ele>
        <time>2025-01-15T14:52:05.512Z</time>
      </trkpt>
      <trkpt lat="43.66722" lon="6.19872">
        <ele>807.8</ele>
        <time>2025-01-15T14:52:05.512Z</time>
      </trkpt>
      <trkpt lat="43.66722" lon="6.19872">
        <ele>807.8</ele>
        <time>2025-01-15T14:52:05.512Z</time>
      </trkpt>
      <trkpt lat="43.66722" lon="6.19872">
        <ele>807.8</ele>
        <time>2025-01-15T14:52:05.512Z</time>
      </trkpt>
      <trkpt lat="43.66722" lon="6.19872">
        <ele>807.8</ele>
        <time>2025-01-15T14:52:05.512Z</time>
      </trkpt>
      <trkpt lat="43.66722" lon="6.19872">
        <ele>807.8</ele>
        <time>2025-01-15T14:52:05.512Z</time>
      </trkpt>
      <trkpt lat="43.66722" lon="6.19872">
        <ele>807.8</ele>
        <time>2025-01-15T14:52:05.512Z</time>
      </trkpt>
      <trkpt lat="43.66722" lon="6.19872">
        <ele>807.8</ele>
        <time>2025-01-15T14:52:05.512Z</time>
      </trkpt>
      <trkpt lat="43.66722" lon="6.19872">
        <ele>807.8</ele>
        <time>2025-01-15T14:52:05.512Z</time>
      </trkpt>
      <trkpt lat="43.66722" lon="6.19872">
        <ele>807.8</ele>
        <time>2025-01-15T14:52:05.512Z</time>
      </trkpt>
      <trkpt lat="43.66722" lon="6.19872">
        <ele>807.8</ele>
        <time>2025-01-15T14:52:05.512Z</time>
      </trkpt>
      <trkpt lat="43.66722" lon="6.19872">
        <ele>807.8</ele>
        <time>2025-01-15T14:52:05.512Z</time>
      </trkpt>
      <trkpt lat="43.66722" lon="6.19872">
        <ele>807.8</ele>
        <time>2025-01-15T14:52:05.512Z</time>
      </trkpt>
      <trkpt lat="43.66722" lon="6.19872">
        <ele>807.8</ele>
        <time>2025-01-15T14:52:05.512Z</time>
      </trkpt>
      <trkpt lat="43.66722" lon="6.19872">
        <ele>807.8</ele>
        <time>2025-01-15T14:52:05.512Z</time>
      </trkpt>
      <trkpt lat="43.66722" lon="6.19872">
        <ele>807.8</ele>
        <time>2025-01-15T14:52:05.512Z</time>
      </trkpt>
      <trkpt lat="43.66722" lon="6.19872">
        <ele>807.8</ele>
        <time>2025-01-15T14:52:05.512Z</time>
      </trkpt>
      <trkpt lat="43.66722" lon="6.19872">
        <ele>807.8</ele>
        <time>2025-01-15T14:52:05.512Z</time>
      </trkpt>
      <trkpt lat="43.66722" lon="6.19872">
        <ele>807.8</ele>
        <time>2025-01-15T14:52:05.512Z</time>
      </trkpt>
      <trkpt lat="43.66721" lon="6.19873">
        <ele>807.6</ele>
        <time>2025-01-15T14:52:06.683Z</time>
      </trkpt>
      <trkpt lat="43.66721" lon="6.19873">
        <ele>807.6</ele>
        <time>2025-01-15T14:52:06.683Z</time>
      </trkpt>
      <trkpt lat="43.66721" lon="6.19873">
        <ele>807.6</ele>
        <time>2025-01-15T14:52:06.683Z</time>
      </trkpt>
      <trkpt lat="43.6672" lon="6.19873">
        <ele>807.6</ele>
        <time>2025-01-15T14:52:07.768Z</time>
      </trkpt>
      <trkpt lat="43.6672" lon="6.19873">
        <ele>807.6</ele>
        <time>2025-01-15T14:52:07.768Z</time>
      </trkpt>
      <trkpt lat="43.6672" lon="6.19873">
        <ele>807.6</ele>
        <time>2025-01-15T14:52:07.768Z</time>
      </trkpt>
      <trkpt lat="43.6672" lon="6.19873">
        <ele>807.6</ele>
        <time>2025-01-15T14:52:07.768Z</time>
      </trkpt>
      <trkpt lat="43.6672" lon="6.19873">
        <ele>807.6</ele>
        <time>2025-01-15T14:52:07.768Z</time>
      </trkpt>
      <trkpt lat="43.6672" lon="6.19873">
        <ele>807.6</ele>
        <time>2025-01-15T14:52:07.768Z</time>
      </trkpt>
      <trkpt lat="43.6672" lon="6.19873">
        <ele>807.6</ele>
        <time>2025-01-15T14:52:07.768Z</time>
      </trkpt>
      <trkpt lat="43.6672" lon="6.19872">
        <ele>807.7</ele>
        <time>2025-01-15T14:52:09.016Z</time>
      </trkpt>
      <trkpt lat="43.6672" lon="6.19871">
        <ele>807.8</ele>
        <time>2025-01-15T14:52:10.264Z</time>
      </trkpt>
      <trkpt lat="43.6672" lon="6.19871">
        <ele>807.8</ele>
        <time>2025-01-15T14:52:10.264Z</time>
      </trkpt>
      <trkpt lat="43.6672" lon="6.19871">
        <ele>807.8</ele>
        <time>2025-01-15T14:52:10.264Z</time>
      </trkpt>
      <trkpt lat="43.6672" lon="6.1987">
        <ele>807.9</ele>
        <time>2025-01-15T14:52:11.512Z</time>
      </trkpt>
      <trkpt lat="43.6672" lon="6.19869">
        <ele>808</ele>
        <time>2025-01-15T14:52:12.760Z</time>
      </trkpt>
      <trkpt lat="43.6672" lon="6.19869">
        <ele>808</ele>
        <time>2025-01-15T14:52:12.760Z</time>
      </trkpt>
      <trkpt lat="43.6672" lon="6.19869">
        <ele>808</ele>
        <time>2025-01-15T14:52:12.760Z</time>
      </trkpt>
      <trkpt lat="43.66719" lon="6.19868">
        <ele>808.1</ele>
        <time>2025-01-15T14:52:14.500Z</time>
      </trkpt>
      <trkpt lat="43.66718" lon="6.19868">
        <ele>808</ele>
        <time>2025-01-15T14:52:15.449Z</time>
      </trkpt>
      <trkpt lat="43.66717" lon="6.19867">
        <ele>808</ele>
        <time>2025-01-15T14:52:16.787Z</time>
      </trkpt>
      <trkpt lat="43.66717" lon="6.19867">
        <ele>808</ele>
        <time>2025-01-15T14:52:16.787Z</time>
      </trkpt>
      <trkpt lat="43.66717" lon="6.19867">
        <ele>808</ele>
        <time>2025-01-15T14:52:16.787Z</time>
      </trkpt>
      <trkpt lat="43.66716" lon="6.19867">
        <ele>808</ele>
        <time>2025-01-15T14:52:17.871Z</time>
      </trkpt>
      <trkpt lat="43.66715" lon="6.19866">
        <ele>808</ele>
        <time>2025-01-15T14:52:19.210Z</time>
      </trkpt>
      <trkpt lat="43.66714" lon="6.19865">
        <ele>808</ele>
        <time>2025-01-15T14:52:20.548Z</time>
      </trkpt>
      <trkpt lat="43.66712" lon="6.19863">
        <ele>808.1</ele>
        <time>2025-01-15T14:52:23.590Z</time>
      </trkpt>
      <trkpt lat="43.66712" lon="6.19863">
        <ele>808.1</ele>
        <time>2025-01-15T14:52:23.590Z</time>
      </trkpt>
      <trkpt lat="43.66712" lon="6.19861">
        <ele>808.3</ele>
        <time>2025-01-15T14:52:26.086Z</time>
      </trkpt>
      <trkpt lat="43.66711" lon="6.19861">
        <ele>808.2</ele>
        <time>2025-01-15T14:52:27.035Z</time>
      </trkpt>
      <trkpt lat="43.6671" lon="6.1986">
        <ele>808</ele>
        <time>2025-01-15T14:52:28.206Z</time>
      </trkpt>
      <trkpt lat="43.66709" lon="6.19859">
        <ele>807.9</ele>
        <time>2025-01-15T14:52:29.377Z</time>
      </trkpt>
      <trkpt lat="43.66708" lon="6.19858">
        <ele>807.7</ele>
        <time>2025-01-15T14:52:30.548Z</time>
      </trkpt>
      <trkpt lat="43.66707" lon="6.19858">
        <ele>807.6</ele>
        <time>2025-01-15T14:52:31.496Z</time>
      </trkpt>
      <trkpt lat="43.66706" lon="6.19858">
        <ele>807.5</ele>
        <time>2025-01-15T14:52:32.445Z</time>
      </trkpt>
      <trkpt lat="43.66705" lon="6.19858">
        <ele>807.5</ele>
        <time>2025-01-15T14:52:33.530Z</time>
      </trkpt>
      <trkpt lat="43.66704" lon="6.19858">
        <ele>807.4</ele>
        <time>2025-01-15T14:52:34.478Z</time>
      </trkpt>
      <trkpt lat="43.66704" lon="6.19857">
        <ele>807.3</ele>
        <time>2025-01-15T14:52:35.165Z</time>
      </trkpt>
      <trkpt lat="43.66703" lon="6.19856">
        <ele>807.1</ele>
        <time>2025-01-15T14:52:36.336Z</time>
      </trkpt>
      <trkpt lat="43.66702" lon="6.19856">
        <ele>807</ele>
        <time>2025-01-15T14:52:37.285Z</time>
      </trkpt>
      <trkpt lat="43.66702" lon="6.19855">
        <ele>806.9</ele>
        <time>2025-01-15T14:52:37.971Z</time>
      </trkpt>
      <trkpt lat="43.66702" lon="6.19855">
        <ele>806.9</ele>
        <time>2025-01-15T14:52:37.971Z</time>
      </trkpt>
      <trkpt lat="43.66702" lon="6.19855">
        <ele>806.9</ele>
        <time>2025-01-15T14:52:37.971Z</time>
      </trkpt>
      <trkpt lat="43.66702" lon="6.19855">
        <ele>806.9</ele>
        <time>2025-01-15T14:52:37.971Z</time>
      </trkpt>
      <trkpt lat="43.66701" lon="6.19855">
        <ele>806.9</ele>
        <time>2025-01-15T14:52:39.055Z</time>
      </trkpt>
      <trkpt lat="43.66701" lon="6.19855">
        <ele>806.9</ele>
        <time>2025-01-15T14:52:39.055Z</time>
      </trkpt>
      <trkpt lat="43.66701" lon="6.19855">
        <ele>806.9</ele>
        <time>2025-01-15T14:52:39.055Z</time>
      </trkpt>
      <trkpt lat="43.66701" lon="6.19855">
        <ele>806.9</ele>
        <time>2025-01-15T14:52:39.055Z</time>
      </trkpt>
      <trkpt lat="43.66701" lon="6.19855">
        <ele>806.9</ele>
        <time>2025-01-15T14:52:39.055Z</time>
      </trkpt>
      <trkpt lat="43.66701" lon="6.19855">
        <ele>806.9</ele>
        <time>2025-01-15T14:52:39.055Z</time>
      </trkpt>
      <trkpt lat="43.667" lon="6.19855">
        <ele>806.8</ele>
        <time>2025-01-15T14:52:40.004Z</time>
      </trkpt>
      <trkpt lat="43.667" lon="6.19855">
        <ele>806.8</ele>
        <time>2025-01-15T14:52:40.004Z</time>
      </trkpt>
      <trkpt lat="43.667" lon="6.19855">
        <ele>806.8</ele>
        <time>2025-01-15T14:52:40.004Z</time>
      </trkpt>
      <trkpt lat="43.667" lon="6.19854">
        <ele>806.7</ele>
        <time>2025-01-15T14:52:40.690Z</time>
      </trkpt>
      <trkpt lat="43.667" lon="6.19854">
        <ele>806.7</ele>
        <time>2025-01-15T14:52:40.690Z</time>
      </trkpt>
      <trkpt lat="43.667" lon="6.19854">
        <ele>806.7</ele>
        <time>2025-01-15T14:52:40.690Z</time>
      </trkpt>
      <trkpt lat="43.66699" lon="6.19854">
        <ele>806.6</ele>
        <time>2025-01-15T14:52:41.639Z</time>
      </trkpt>
      <trkpt lat="43.66699" lon="6.19854">
        <ele>806.6</ele>
        <time>2025-01-15T14:52:41.639Z</time>
      </trkpt>
      <trkpt lat="43.66698" lon="6.19853">
        <ele>806.4</ele>
        <time>2025-01-15T14:52:42.810Z</time>
      </trkpt>
      <trkpt lat="43.66697" lon="6.19852">
        <ele>806.2</ele>
        <time>2025-01-15T14:52:43.981Z</time>
      </trkpt>
      <trkpt lat="43.66697" lon="6.19851">
        <ele>806.1</ele>
        <time>2025-01-15T14:52:44.668Z</time>
      </trkpt>
      <trkpt lat="43.66696" lon="6.1985">
        <ele>805.9</ele>
        <time>2025-01-15T14:52:45.839Z</time>
      </trkpt>
      <trkpt lat="43.66696" lon="6.1985">
        <ele>805.9</ele>
        <time>2025-01-15T14:52:45.839Z</time>
      </trkpt>
      <trkpt lat="43.66695" lon="6.1985">
        <ele>805.8</ele>
        <time>2025-01-15T14:52:46.787Z</time>
      </trkpt>
      <trkpt lat="43.66695" lon="6.1985">
        <ele>805.8</ele>
        <time>2025-01-15T14:52:46.787Z</time>
      </trkpt>
      <trkpt lat="43.66695" lon="6.1985">
        <ele>805.8</ele>
        <time>2025-01-15T14:52:46.787Z</time>
      </trkpt>
      <trkpt lat="43.66694" lon="6.1985">
        <ele>805.7</ele>
        <time>2025-01-15T14:52:47.736Z</time>
      </trkpt>
      <trkpt lat="43.66693" lon="6.1985">
        <ele>805.5</ele>
        <time>2025-01-15T14:52:48.685Z</time>
      </trkpt>
      <trkpt lat="43.66692" lon="6.19849">
        <ele>805.2</ele>
        <time>2025-01-15T14:52:49.856Z</time>
      </trkpt>
      <trkpt lat="43.66688" lon="6.19842">
        <ele>803.6</ele>
        <time>2025-01-15T14:52:55.979Z</time>
      </trkpt>
      <trkpt lat="43.66685" lon="6.19842">
        <ele>803</ele>
        <time>2025-01-15T14:52:58.825Z</time>
      </trkpt>
      <trkpt lat="43.66687" lon="6.19845">
        <ele>803.7</ele>
        <time>2025-01-15T14:53:06.286Z</time>
      </trkpt>
      <trkpt lat="43.66691" lon="6.19849">
        <ele>804.9</ele>
        <time>2025-01-15T14:53:19.069Z</time>
      </trkpt>
      <trkpt lat="43.66695" lon="6.19852">
        <ele>806.1</ele>
        <time>2025-01-15T14:53:31.852Z</time>
      </trkpt>
      <trkpt lat="43.66699" lon="6.19856">
        <ele>806.8</ele>
        <time>2025-01-15T14:53:40.400Z</time>
      </trkpt>
      <trkpt lat="43.66704" lon="6.19859">
        <ele>807.4</ele>
        <time>2025-01-15T14:53:48.330Z</time>
      </trkpt>
      <trkpt lat="43.66708" lon="6.19863">
        <ele>807.8</ele>
        <time>2025-01-15T14:53:55.191Z</time>
      </trkpt>
      <trkpt lat="43.66712" lon="6.19866">
        <ele>807.8</ele>
        <time>2025-01-15T14:54:00.440Z</time>
      </trkpt>
      <trkpt lat="43.66716" lon="6.1987">
        <ele>807.7</ele>
        <time>2025-01-15T14:54:05.368Z</time>
      </trkpt>
      <trkpt lat="43.6672" lon="6.19873">
        <ele>807.6</ele>
        <time>2025-01-15T14:54:10.297Z</time>
      </trkpt>
      <trkpt lat="43.6672" lon="6.19872">
        <ele>807.7</ele>
        <time>2025-01-15T14:54:11.545Z</time>
      </trkpt>
      <trkpt lat="43.6672" lon="6.19872">
        <ele>807.7</ele>
        <time>2025-01-15T14:54:11.545Z</time>
      </trkpt>
      <trkpt lat="43.66723" lon="6.19871">
        <ele>807.8</ele>
        <time>2025-01-15T14:54:15.250Z</time>
      </trkpt>
      <trkpt lat="43.66724" lon="6.1987">
        <ele>807.8</ele>
        <time>2025-01-15T14:54:16.588Z</time>
      </trkpt>
      <trkpt lat="43.66724" lon="6.19869">
        <ele>807.9</ele>
        <time>2025-01-15T14:54:17.836Z</time>
      </trkpt>
      <trkpt lat="43.66725" lon="6.19868">
        <ele>807.9</ele>
        <time>2025-01-15T14:54:19.175Z</time>
      </trkpt>
      <trkpt lat="43.66725" lon="6.19867">
        <ele>808</ele>
        <time>2025-01-15T14:54:20.423Z</time>
      </trkpt>
      <trkpt lat="43.66726" lon="6.19865">
        <ele>808.1</ele>
        <time>2025-01-15T14:54:22.709Z</time>
      </trkpt>
      <trkpt lat="43.66727" lon="6.19864">
        <ele>808</ele>
        <time>2025-01-15T14:54:23.880Z</time>
      </trkpt>
      <trkpt lat="43.66727" lon="6.19863">
        <ele>808.1</ele>
        <time>2025-01-15T14:54:25.128Z</time>
      </trkpt>
      <trkpt lat="43.66728" lon="6.19862">
        <ele>808.1</ele>
        <time>2025-01-15T14:54:26.467Z</time>
      </trkpt>
      <trkpt lat="43.66728" lon="6.19862">
        <ele>808.1</ele>
        <time>2025-01-15T14:54:26.467Z</time>
      </trkpt>
      <trkpt lat="43.66728" lon="6.19861">
        <ele>808.2</ele>
        <time>2025-01-15T14:54:27.715Z</time>
      </trkpt>
      <trkpt lat="43.66728" lon="6.19861">
        <ele>808.2</ele>
        <time>2025-01-15T14:54:27.715Z</time>
      </trkpt>
      <trkpt lat="43.66728" lon="6.1986">
        <ele>808.1</ele>
        <time>2025-01-15T14:54:28.401Z</time>
      </trkpt>
      <trkpt lat="43.66728" lon="6.1986">
        <ele>808.1</ele>
        <time>2025-01-15T14:54:28.401Z</time>
      </trkpt>
      <trkpt lat="43.66728" lon="6.19859">
        <ele>808</ele>
        <time>2025-01-15T14:54:29.087Z</time>
      </trkpt>
      <trkpt lat="43.66727" lon="6.19856">
        <ele>807.9</ele>
        <time>2025-01-15T14:54:31.372Z</time>
      </trkpt>
      <trkpt lat="43.66726" lon="6.19853">
        <ele>807.9</ele>
        <time>2025-01-15T14:54:33.963Z</time>
      </trkpt>
      <trkpt lat="43.66726" lon="6.19851">
        <ele>807.7</ele>
        <time>2025-01-15T14:54:35.336Z</time>
      </trkpt>
      <trkpt lat="43.66727" lon="6.1985">
        <ele>807.5</ele>
        <time>2025-01-15T14:54:36.507Z</time>
      </trkpt>
      <trkpt lat="43.66727" lon="6.19849">
        <ele>807.4</ele>
        <time>2025-01-15T14:54:37.193Z</time>
      </trkpt>
      <trkpt lat="43.66728" lon="6.19849">
        <ele>807.3</ele>
        <time>2025-01-15T14:54:38.142Z</time>
      </trkpt>
      <trkpt lat="43.66728" lon="6.19848">
        <ele>807.2</ele>
        <time>2025-01-15T14:54:38.829Z</time>
      </trkpt>
      <trkpt lat="43.66728" lon="6.19848">
        <ele>807.2</ele>
        <time>2025-01-15T14:54:38.829Z</time>
      </trkpt>
      <trkpt lat="43.66728" lon="6.19848">
        <ele>807.2</ele>
        <time>2025-01-15T14:54:38.829Z</time>
      </trkpt>
      <trkpt lat="43.66728" lon="6.19848">
        <ele>807.2</ele>
        <time>2025-01-15T14:54:38.829Z</time>
      </trkpt>
      <trkpt lat="43.66728" lon="6.19848">
        <ele>807.2</ele>
        <time>2025-01-15T14:54:38.829Z</time>
      </trkpt>
      <trkpt lat="43.66728" lon="6.19848">
        <ele>807.2</ele>
        <time>2025-01-15T14:54:38.829Z</time>
      </trkpt>
      <trkpt lat="43.66728" lon="6.19848">
        <ele>807.2</ele>
        <time>2025-01-15T14:54:38.829Z</time>
      </trkpt>
      <trkpt lat="43.66728" lon="6.19849">
        <ele>807.3</ele>
        <time>2025-01-15T14:54:40.077Z</time>
      </trkpt>
      <trkpt lat="43.66728" lon="6.19849">
        <ele>807.3</ele>
        <time>2025-01-15T14:54:40.077Z</time>
      </trkpt>
      <trkpt lat="43.66728" lon="6.19848">
        <ele>807.2</ele>
        <time>2025-01-15T14:54:40.763Z</time>
      </trkpt>
      <trkpt lat="43.66728" lon="6.19846">
        <ele>807.1</ele>
        <time>2025-01-15T14:54:42.136Z</time>
      </trkpt>
      <trkpt lat="43.66728" lon="6.19845">
        <ele>807</ele>
        <time>2025-01-15T14:54:42.822Z</time>
      </trkpt>
      <trkpt lat="43.66728" lon="6.19844">
        <ele>806.9</ele>
        <time>2025-01-15T14:54:43.508Z</time>
      </trkpt>
      <trkpt lat="43.66728" lon="6.19843">
        <ele>806.9</ele>
        <time>2025-01-15T14:54:44.293Z</time>
      </trkpt>
      <trkpt lat="43.66728" lon="6.19842">
        <ele>806.8</ele>
        <time>2025-01-15T14:54:44.979Z</time>
      </trkpt>
      <trkpt lat="43.66728" lon="6.19841">
        <ele>806.7</ele>
        <time>2025-01-15T14:54:45.665Z</time>
      </trkpt>
      <trkpt lat="43.66728" lon="6.1984">
        <ele>806.6</ele>
        <time>2025-01-15T14:54:46.352Z</time>
      </trkpt>
      <trkpt lat="43.66728" lon="6.19839">
        <ele>806.6</ele>
        <time>2025-01-15T14:54:47.136Z</time>
      </trkpt>
      <trkpt lat="43.66728" lon="6.19837">
        <ele>806.4</ele>
        <time>2025-01-15T14:54:48.509Z</time>
      </trkpt>
      <trkpt lat="43.66728" lon="6.19836">
        <ele>806.4</ele>
        <time>2025-01-15T14:54:49.293Z</time>
      </trkpt>
      <trkpt lat="43.66728" lon="6.19834">
        <ele>806.2</ele>
        <time>2025-01-15T14:54:50.666Z</time>
      </trkpt>
      <trkpt lat="43.66729" lon="6.19833">
        <ele>806</ele>
        <time>2025-01-15T14:54:51.837Z</time>
      </trkpt>
      <trkpt lat="43.66729" lon="6.19832">
        <ele>805.8</ele>
        <time>2025-01-15T14:54:52.523Z</time>
      </trkpt>
      <trkpt lat="43.66729" lon="6.19831">
        <ele>805.7</ele>
        <time>2025-01-15T14:54:53.209Z</time>
      </trkpt>
      <trkpt lat="43.66729" lon="6.1983">
        <ele>805.5</ele>
        <time>2025-01-15T14:54:53.896Z</time>
      </trkpt>
      <trkpt lat="43.66729" lon="6.19828">
        <ele>805.2</ele>
        <time>2025-01-15T14:54:55.268Z</time>
      </trkpt>
      <trkpt lat="43.66729" lon="6.19827">
        <ele>805.1</ele>
        <time>2025-01-15T14:54:55.955Z</time>
      </trkpt>
      <trkpt lat="43.66729" lon="6.19826">
        <ele>804.9</ele>
        <time>2025-01-15T14:54:56.641Z</time>
      </trkpt>
      <trkpt lat="43.66729" lon="6.19824">
        <ele>804.6</ele>
        <time>2025-01-15T14:54:58.014Z</time>
      </trkpt>
      <trkpt lat="43.66729" lon="6.19823">
        <ele>804.4</ele>
        <time>2025-01-15T14:54:58.700Z</time>
      </trkpt>
      <trkpt lat="43.6673" lon="6.19822">
        <ele>804.2</ele>
        <time>2025-01-15T14:54:59.871Z</time>
      </trkpt>
      <trkpt lat="43.6673" lon="6.19821">
        <ele>804</ele>
        <time>2025-01-15T14:55:00.557Z</time>
      </trkpt>
      <trkpt lat="43.66729" lon="6.1982">
        <ele>804</ele>
        <time>2025-01-15T14:55:01.896Z</time>
      </trkpt>
      <trkpt lat="43.6673" lon="6.19819">
        <ele>803.7</ele>
        <time>2025-01-15T14:55:03.067Z</time>
      </trkpt>
      <trkpt lat="43.6673" lon="6.19818">
        <ele>803.6</ele>
        <time>2025-01-15T14:55:03.753Z</time>
      </trkpt>
      <trkpt lat="43.6673" lon="6.19817">
        <ele>803.4</ele>
        <time>2025-01-15T14:55:04.439Z</time>
      </trkpt>
      <trkpt lat="43.6673" lon="6.19816">
        <ele>803.3</ele>
        <time>2025-01-15T14:55:05.126Z</time>
      </trkpt>
      <trkpt lat="43.6673" lon="6.19816">
        <ele>803.3</ele>
        <time>2025-01-15T14:55:05.126Z</time>
      </trkpt>
      <trkpt lat="43.6673" lon="6.19816">
        <ele>803.3</ele>
        <time>2025-01-15T14:55:05.126Z</time>
      </trkpt>
      <trkpt lat="43.6673" lon="6.19816">
        <ele>803.3</ele>
        <time>2025-01-15T14:55:05.126Z</time>
      </trkpt>
      <trkpt lat="43.6673" lon="6.19816">
        <ele>803.3</ele>
        <time>2025-01-15T14:55:05.126Z</time>
      </trkpt>
      <trkpt lat="43.6673" lon="6.19816">
        <ele>803.3</ele>
        <time>2025-01-15T14:55:05.126Z</time>
      </trkpt>
      <trkpt lat="43.6673" lon="6.19816">
        <ele>803.3</ele>
        <time>2025-01-15T14:55:05.126Z</time>
      </trkpt>
      <trkpt lat="43.6673" lon="6.19816">
        <ele>803.3</ele>
        <time>2025-01-15T14:55:05.126Z</time>
      </trkpt>
      <trkpt lat="43.6673" lon="6.19817">
        <ele>803.4</ele>
        <time>2025-01-15T14:55:06.374Z</time>
      </trkpt>
      <trkpt lat="43.6673" lon="6.19816">
        <ele>803.3</ele>
        <time>2025-01-15T14:55:07.060Z</time>
      </trkpt>
      <trkpt lat="43.6673" lon="6.19815">
        <ele>803.1</ele>
        <time>2025-01-15T14:55:07.746Z</time>
      </trkpt>
      <trkpt lat="43.6673" lon="6.19814">
        <ele>803</ele>
        <time>2025-01-15T14:55:08.433Z</time>
      </trkpt>
      <trkpt lat="43.6673" lon="6.19813">
        <ele>802.8</ele>
        <time>2025-01-15T14:55:09.119Z</time>
      </trkpt>
      <trkpt lat="43.66731" lon="6.19813">
        <ele>802.8</ele>
        <time>2025-01-15T14:55:10.203Z</time>
      </trkpt>
      <trkpt lat="43.66731" lon="6.19812">
        <ele>802.6</ele>
        <time>2025-01-15T14:55:10.890Z</time>
      </trkpt>
      <trkpt lat="43.66732" lon="6.19812">
        <ele>802.6</ele>
        <time>2025-01-15T14:55:11.974Z</time>
      </trkpt>
      <trkpt lat="43.66732" lon="6.19812">
        <ele>802.6</ele>
        <time>2025-01-15T14:55:11.974Z</time>
      </trkpt>
      <trkpt lat="43.66732" lon="6.19812">
        <ele>802.6</ele>
        <time>2025-01-15T14:55:11.974Z</time>
      </trkpt>
      <trkpt lat="43.66733" lon="6.1981">
        <ele>802.2</ele>
        <time>2025-01-15T14:55:13.643Z</time>
      </trkpt>
      <trkpt lat="43.66733" lon="6.1981">
        <ele>802.2</ele>
        <time>2025-01-15T14:55:13.643Z</time>
      </trkpt>
      <trkpt lat="43.66733" lon="6.19809">
        <ele>802.1</ele>
        <time>2025-01-15T14:55:14.329Z</time>
      </trkpt>
      <trkpt lat="43.66733" lon="6.19807">
        <ele>801.8</ele>
        <time>2025-01-15T14:55:15.702Z</time>
      </trkpt>
      <trkpt lat="43.66733" lon="6.19806">
        <ele>801.7</ele>
        <time>2025-01-15T14:55:16.388Z</time>
      </trkpt>
      <trkpt lat="43.66733" lon="6.19805">
        <ele>801.6</ele>
        <time>2025-01-15T14:55:17.074Z</time>
      </trkpt>
      <trkpt lat="43.66733" lon="6.19804">
        <ele>801.4</ele>
        <time>2025-01-15T14:55:17.761Z</time>
      </trkpt>
      <trkpt lat="43.66731" lon="6.198">
        <ele>801.1</ele>
        <time>2025-01-15T14:55:21.098Z</time>
      </trkpt>
      <trkpt lat="43.66731" lon="6.19799">
        <ele>801</ele>
        <time>2025-01-15T14:55:21.784Z</time>
      </trkpt>
      <trkpt lat="43.66731" lon="6.19797">
        <ele>800.8</ele>
        <time>2025-01-15T14:55:23.157Z</time>
      </trkpt>
      <trkpt lat="43.66731" lon="6.19796">
        <ele>800.7</ele>
        <time>2025-01-15T14:55:23.843Z</time>
      </trkpt>
      <trkpt lat="43.66731" lon="6.19795">
        <ele>800.5</ele>
        <time>2025-01-15T14:55:24.530Z</time>
      </trkpt>
      <trkpt lat="43.66732" lon="6.19794">
        <ele>800.4</ele>
        <time>2025-01-15T14:55:25.701Z</time>
      </trkpt>
      <trkpt lat="43.66732" lon="6.19794">
        <ele>800.4</ele>
        <time>2025-01-15T14:55:25.701Z</time>
      </trkpt>
      <trkpt lat="43.66732" lon="6.19794">
        <ele>800.4</ele>
        <time>2025-01-15T14:55:25.701Z</time>
      </trkpt>
      <trkpt lat="43.66732" lon="6.19795">
        <ele>800.5</ele>
        <time>2025-01-15T14:55:26.949Z</time>
      </trkpt>
      <trkpt lat="43.66733" lon="6.19794">
        <ele>800.4</ele>
        <time>2025-01-15T14:55:28.120Z</time>
      </trkpt>
      <trkpt lat="43.66733" lon="6.19793">
        <ele>800.3</ele>
        <time>2025-01-15T14:55:28.806Z</time>
      </trkpt>
      <trkpt lat="43.66733" lon="6.19793">
        <ele>800.3</ele>
        <time>2025-01-15T14:55:28.806Z</time>
      </trkpt>
      <trkpt lat="43.66732" lon="6.1979">
        <ele>800</ele>
        <time>2025-01-15T14:55:31.073Z</time>
      </trkpt>
      <trkpt lat="43.66732" lon="6.1979">
        <ele>800</ele>
        <time>2025-01-15T14:55:31.073Z</time>
      </trkpt>
      <trkpt lat="43.66732" lon="6.19788">
        <ele>799.8</ele>
        <time>2025-01-15T14:55:32.446Z</time>
      </trkpt>
      <trkpt lat="43.66732" lon="6.19787">
        <ele>799.6</ele>
        <time>2025-01-15T14:55:33.132Z</time>
      </trkpt>
      <trkpt lat="43.66732" lon="6.19786">
        <ele>799.5</ele>
        <time>2025-01-15T14:55:33.818Z</time>
      </trkpt>
      <trkpt lat="43.66732" lon="6.19786">
        <ele>799.5</ele>
        <time>2025-01-15T14:55:33.818Z</time>
      </trkpt>
      <trkpt lat="43.66732" lon="6.19785">
        <ele>799.4</ele>
        <time>2025-01-15T14:55:34.505Z</time>
      </trkpt>
      <trkpt lat="43.66733" lon="6.19785">
        <ele>799.4</ele>
        <time>2025-01-15T14:55:35.589Z</time>
      </trkpt>
      <trkpt lat="43.66733" lon="6.19785">
        <ele>799.4</ele>
        <time>2025-01-15T14:55:35.589Z</time>
      </trkpt>
      <trkpt lat="43.66733" lon="6.19784">
        <ele>799.3</ele>
        <time>2025-01-15T14:55:36.275Z</time>
      </trkpt>
      <trkpt lat="43.66733" lon="6.19783">
        <ele>799.2</ele>
        <time>2025-01-15T14:55:36.962Z</time>
      </trkpt>
      <trkpt lat="43.66732" lon="6.19782">
        <ele>799.1</ele>
        <time>2025-01-15T14:55:38.133Z</time>
      </trkpt>
      <trkpt lat="43.66732" lon="6.19781">
        <ele>799</ele>
        <time>2025-01-15T14:55:38.819Z</time>
      </trkpt>
      <trkpt lat="43.66733" lon="6.19778">
        <ele>798.6</ele>
        <time>2025-01-15T14:55:41.086Z</time>
      </trkpt>
      <trkpt lat="43.66733" lon="6.19778">
        <ele>798.6</ele>
        <time>2025-01-15T14:55:41.086Z</time>
      </trkpt>
      <trkpt lat="43.66734" lon="6.19777">
        <ele>798.4</ele>
        <time>2025-01-15T14:55:42.257Z</time>
      </trkpt>
      <trkpt lat="43.66735" lon="6.19776">
        <ele>798.2</ele>
        <time>2025-01-15T14:55:43.428Z</time>
      </trkpt>
      <trkpt lat="43.66736" lon="6.19776">
        <ele>798.2</ele>
        <time>2025-01-15T14:55:44.512Z</time>
      </trkpt>
      <trkpt lat="43.66737" lon="6.19775">
        <ele>798</ele>
        <time>2025-01-15T14:55:45.683Z</time>
      </trkpt>
      <trkpt lat="43.66737" lon="6.19775">
        <ele>798</ele>
        <time>2025-01-15T14:55:45.683Z</time>
      </trkpt>
      <trkpt lat="43.66738" lon="6.19774">
        <ele>797.8</ele>
        <time>2025-01-15T14:55:46.854Z</time>
      </trkpt>
      <trkpt lat="43.66738" lon="6.19774">
        <ele>797.8</ele>
        <time>2025-01-15T14:55:46.854Z</time>
      </trkpt>
      <trkpt lat="43.66738" lon="6.19773">
        <ele>797.7</ele>
        <time>2025-01-15T14:55:47.541Z</time>
      </trkpt>
      <trkpt lat="43.66739" lon="6.19771">
        <ele>797.3</ele>
        <time>2025-01-15T14:55:49.209Z</time>
      </trkpt>
      <trkpt lat="43.66739" lon="6.1977">
        <ele>797.2</ele>
        <time>2025-01-15T14:55:49.896Z</time>
      </trkpt>
      <trkpt lat="43.66739" lon="6.19768">
        <ele>796.8</ele>
        <time>2025-01-15T14:55:51.268Z</time>
      </trkpt>
      <trkpt lat="43.6674" lon="6.19767">
        <ele>796.7</ele>
        <time>2025-01-15T14:55:52.439Z</time>
      </trkpt>
      <trkpt lat="43.6674" lon="6.19766">
        <ele>796.5</ele>
        <time>2025-01-15T14:55:53.126Z</time>
      </trkpt>
      <trkpt lat="43.6674" lon="6.19764">
        <ele>796.2</ele>
        <time>2025-01-15T14:55:54.498Z</time>
      </trkpt>
      <trkpt lat="43.6674" lon="6.19763">
        <ele>796</ele>
        <time>2025-01-15T14:55:55.185Z</time>
      </trkpt>
      <trkpt lat="43.6674" lon="6.19762">
        <ele>795.9</ele>
        <time>2025-01-15T14:55:55.871Z</time>
      </trkpt>
      <trkpt lat="43.6674" lon="6.19761">
        <ele>795.7</ele>
        <time>2025-01-15T14:55:56.557Z</time>
      </trkpt>
      <trkpt lat="43.66741" lon="6.19761">
        <ele>795.7</ele>
        <time>2025-01-15T14:55:57.642Z</time>
      </trkpt>
      <trkpt lat="43.66743" lon="6.1976">
        <ele>795.5</ele>
        <time>2025-01-15T14:55:59.660Z</time>
      </trkpt>
      <trkpt lat="43.66743" lon="6.1976">
        <ele>795.5</ele>
        <time>2025-01-15T14:55:59.660Z</time>
      </trkpt>
      <trkpt lat="43.66743" lon="6.1976">
        <ele>795.5</ele>
        <time>2025-01-15T14:55:59.660Z</time>
      </trkpt>
      <trkpt lat="43.66744" lon="6.19759">
        <ele>795.4</ele>
        <time>2025-01-15T14:56:00.831Z</time>
      </trkpt>
      <trkpt lat="43.66744" lon="6.19759">
        <ele>795.4</ele>
        <time>2025-01-15T14:56:00.831Z</time>
      </trkpt>
      <trkpt lat="43.66744" lon="6.19758">
        <ele>795.2</ele>
        <time>2025-01-15T14:56:01.517Z</time>
      </trkpt>
      <trkpt lat="43.66744" lon="6.19758">
        <ele>795.2</ele>
        <time>2025-01-15T14:56:01.517Z</time>
      </trkpt>
      <trkpt lat="43.66745" lon="6.19757">
        <ele>795.1</ele>
        <time>2025-01-15T14:56:02.688Z</time>
      </trkpt>
      <trkpt lat="43.66745" lon="6.19756">
        <ele>794.9</ele>
        <time>2025-01-15T14:56:03.374Z</time>
      </trkpt>
      <trkpt lat="43.66745" lon="6.19755">
        <ele>794.8</ele>
        <time>2025-01-15T14:56:04.061Z</time>
      </trkpt>
      <trkpt lat="43.66745" lon="6.19754">
        <ele>794.6</ele>
        <time>2025-01-15T14:56:04.747Z</time>
      </trkpt>
      <trkpt lat="43.66744" lon="6.19754">
        <ele>794.6</ele>
        <time>2025-01-15T14:56:05.831Z</time>
      </trkpt>
      <trkpt lat="43.66744" lon="6.19753">
        <ele>794.5</ele>
        <time>2025-01-15T14:56:06.518Z</time>
      </trkpt>
      <trkpt lat="43.66743" lon="6.19752">
        <ele>794.3</ele>
        <time>2025-01-15T14:56:07.689Z</time>
      </trkpt>
      <trkpt lat="43.66742" lon="6.19752">
        <ele>794.3</ele>
        <time>2025-01-15T14:56:08.773Z</time>
      </trkpt>
      <trkpt lat="43.66741" lon="6.19751">
        <ele>794.2</ele>
        <time>2025-01-15T14:56:09.944Z</time>
      </trkpt>
      <trkpt lat="43.66742" lon="6.1975">
        <ele>794</ele>
        <time>2025-01-15T14:56:11.115Z</time>
      </trkpt>
      <trkpt lat="43.66742" lon="6.1975">
        <ele>794</ele>
        <time>2025-01-15T14:56:11.115Z</time>
      </trkpt>
      <trkpt lat="43.66743" lon="6.1975">
        <ele>794</ele>
        <time>2025-01-15T14:56:12.199Z</time>
      </trkpt>
      <trkpt lat="43.66743" lon="6.19749">
        <ele>793.8</ele>
        <time>2025-01-15T14:56:12.886Z</time>
      </trkpt>
      <trkpt lat="43.66743" lon="6.19749">
        <ele>793.8</ele>
        <time>2025-01-15T14:56:12.886Z</time>
      </trkpt>
      <trkpt lat="43.66743" lon="6.19748">
        <ele>793.7</ele>
        <time>2025-01-15T14:56:13.572Z</time>
      </trkpt>
      <trkpt lat="43.66742" lon="6.19747">
        <ele>793.5</ele>
        <time>2025-01-15T14:56:14.743Z</time>
      </trkpt>
      <trkpt lat="43.66742" lon="6.19744">
        <ele>793</ele>
        <time>2025-01-15T14:56:16.802Z</time>
      </trkpt>
      <trkpt lat="43.66742" lon="6.19742">
        <ele>792.6</ele>
        <time>2025-01-15T14:56:18.175Z</time>
      </trkpt>
      <trkpt lat="43.66742" lon="6.19741">
        <ele>792.5</ele>
        <time>2025-01-15T14:56:18.861Z</time>
      </trkpt>
      <trkpt lat="43.66743" lon="6.1974">
        <ele>792.3</ele>
        <time>2025-01-15T14:56:20.032Z</time>
      </trkpt>
      <trkpt lat="43.66743" lon="6.19739">
        <ele>792.1</ele>
        <time>2025-01-15T14:56:20.718Z</time>
      </trkpt>
      <trkpt lat="43.66744" lon="6.19738">
        <ele>791.9</ele>
        <time>2025-01-15T14:56:21.889Z</time>
      </trkpt>
      <trkpt lat="43.66744" lon="6.19736">
        <ele>791.6</ele>
        <time>2025-01-15T14:56:23.262Z</time>
      </trkpt>
      <trkpt lat="43.66744" lon="6.19734">
        <ele>791.2</ele>
        <time>2025-01-15T14:56:24.635Z</time>
      </trkpt>
      <trkpt lat="43.66745" lon="6.19733">
        <ele>791.1</ele>
        <time>2025-01-15T14:56:25.806Z</time>
      </trkpt>
      <trkpt lat="43.66745" lon="6.19732">
        <ele>790.9</ele>
        <time>2025-01-15T14:56:26.492Z</time>
      </trkpt>
      <trkpt lat="43.66745" lon="6.19731">
        <ele>790.7</ele>
        <time>2025-01-15T14:56:27.178Z</time>
      </trkpt>
      <trkpt lat="43.66746" lon="6.1973">
        <ele>790.5</ele>
        <time>2025-01-15T14:56:28.349Z</time>
      </trkpt>
      <trkpt lat="43.66746" lon="6.1973">
        <ele>790.5</ele>
        <time>2025-01-15T14:56:28.349Z</time>
      </trkpt>
      <trkpt lat="43.66746" lon="6.19729">
        <ele>790.3</ele>
        <time>2025-01-15T14:56:29.036Z</time>
      </trkpt>
      <trkpt lat="43.66746" lon="6.19728">
        <ele>790.2</ele>
        <time>2025-01-15T14:56:29.722Z</time>
      </trkpt>
      <trkpt lat="43.66746" lon="6.19727">
        <ele>790</ele>
        <time>2025-01-15T14:56:30.408Z</time>
      </trkpt>
      <trkpt lat="43.66746" lon="6.19726">
        <ele>789.8</ele>
        <time>2025-01-15T14:56:31.095Z</time>
      </trkpt>
      <trkpt lat="43.66746" lon="6.19725">
        <ele>789.6</ele>
        <time>2025-01-15T14:56:31.781Z</time>
      </trkpt>
      <trkpt lat="43.66746" lon="6.19723">
        <ele>789.3</ele>
        <time>2025-01-15T14:56:33.154Z</time>
      </trkpt>
      <trkpt lat="43.66746" lon="6.19722">
        <ele>789.1</ele>
        <time>2025-01-15T14:56:33.840Z</time>
      </trkpt>
      <trkpt lat="43.66746" lon="6.19721">
        <ele>789</ele>
        <time>2025-01-15T14:56:34.526Z</time>
      </trkpt>
      <trkpt lat="43.66746" lon="6.1972">
        <ele>788.8</ele>
        <time>2025-01-15T14:56:35.213Z</time>
      </trkpt>
      <trkpt lat="43.66747" lon="6.19718">
        <ele>788.5</ele>
        <time>2025-01-15T14:56:36.881Z</time>
      </trkpt>
      <trkpt lat="43.66748" lon="6.19717">
        <ele>788.3</ele>
        <time>2025-01-15T14:56:38.052Z</time>
      </trkpt>
      <trkpt lat="43.66748" lon="6.19715">
        <ele>788</ele>
        <time>2025-01-15T14:56:39.425Z</time>
      </trkpt>
      <trkpt lat="43.66747" lon="6.19715">
        <ele>788.1</ele>
        <time>2025-01-15T14:56:40.930Z</time>
      </trkpt>
      <trkpt lat="43.66747" lon="6.19714">
        <ele>787.9</ele>
        <time>2025-01-15T14:56:41.616Z</time>
      </trkpt>
      <trkpt lat="43.66747" lon="6.19713">
        <ele>787.8</ele>
        <time>2025-01-15T14:56:42.303Z</time>
      </trkpt>
      <trkpt lat="43.66746" lon="6.19712">
        <ele>787.7</ele>
        <time>2025-01-15T14:56:43.474Z</time>
      </trkpt>
      <trkpt lat="43.66746" lon="6.19711">
        <ele>787.5</ele>
        <time>2025-01-15T14:56:44.160Z</time>
      </trkpt>
      <trkpt lat="43.66747" lon="6.19711">
        <ele>787.5</ele>
        <time>2025-01-15T14:56:45.244Z</time>
      </trkpt>
      <trkpt lat="43.66747" lon="6.1971">
        <ele>787.3</ele>
        <time>2025-01-15T14:56:45.931Z</time>
      </trkpt>
      <trkpt lat="43.66747" lon="6.19709">
        <ele>787.2</ele>
        <time>2025-01-15T14:56:46.617Z</time>
      </trkpt>
      <trkpt lat="43.66747" lon="6.19708">
        <ele>787.1</ele>
        <time>2025-01-15T14:56:47.303Z</time>
      </trkpt>
      <trkpt lat="43.66747" lon="6.19706">
        <ele>786.8</ele>
        <time>2025-01-15T14:56:48.676Z</time>
      </trkpt>
      <trkpt lat="43.66747" lon="6.19705">
        <ele>786.6</ele>
        <time>2025-01-15T14:56:49.362Z</time>
      </trkpt>
      <trkpt lat="43.66747" lon="6.19703">
        <ele>786.3</ele>
        <time>2025-01-15T14:56:50.735Z</time>
      </trkpt>
      <trkpt lat="43.66748" lon="6.19702">
        <ele>786.2</ele>
        <time>2025-01-15T14:56:51.906Z</time>
      </trkpt>
      <trkpt lat="43.66748" lon="6.19702">
        <ele>786.2</ele>
        <time>2025-01-15T14:56:51.906Z</time>
      </trkpt>
      <trkpt lat="43.66748" lon="6.19701">
        <ele>786</ele>
        <time>2025-01-15T14:56:52.592Z</time>
      </trkpt>
      <trkpt lat="43.66748" lon="6.197">
        <ele>785.9</ele>
        <time>2025-01-15T14:56:53.279Z</time>
      </trkpt>
      <trkpt lat="43.66748" lon="6.19699">
        <ele>785.7</ele>
        <time>2025-01-15T14:56:53.965Z</time>
      </trkpt>
      <trkpt lat="43.66748" lon="6.19698">
        <ele>785.6</ele>
        <time>2025-01-15T14:56:54.651Z</time>
      </trkpt>
      <trkpt lat="43.66748" lon="6.19697">
        <ele>785.4</ele>
        <time>2025-01-15T14:56:55.338Z</time>
      </trkpt>
      <trkpt lat="43.66748" lon="6.19696">
        <ele>785.3</ele>
        <time>2025-01-15T14:56:56.024Z</time>
      </trkpt>
      <trkpt lat="43.66748" lon="6.19695">
        <ele>785.2</ele>
        <time>2025-01-15T14:56:56.710Z</time>
      </trkpt>
      <trkpt lat="43.66748" lon="6.19695">
        <ele>785.2</ele>
        <time>2025-01-15T14:56:56.710Z</time>
      </trkpt>
      <trkpt lat="43.66748" lon="6.19694">
        <ele>785</ele>
        <time>2025-01-15T14:56:57.397Z</time>
      </trkpt>
      <trkpt lat="43.66748" lon="6.19693">
        <ele>784.9</ele>
        <time>2025-01-15T14:56:58.083Z</time>
      </trkpt>
      <trkpt lat="43.66749" lon="6.19692">
        <ele>784.8</ele>
        <time>2025-01-15T14:56:59.254Z</time>
      </trkpt>
      <trkpt lat="43.66749" lon="6.19691">
        <ele>784.7</ele>
        <time>2025-01-15T14:56:59.940Z</time>
      </trkpt>
      <trkpt lat="43.66749" lon="6.1969">
        <ele>784.6</ele>
        <time>2025-01-15T14:57:00.627Z</time>
      </trkpt>
      <trkpt lat="43.66749" lon="6.19689">
        <ele>784.5</ele>
        <time>2025-01-15T14:57:01.313Z</time>
      </trkpt>
      <trkpt lat="43.66749" lon="6.19688">
        <ele>784.3</ele>
        <time>2025-01-15T14:57:01.999Z</time>
      </trkpt>
      <trkpt lat="43.6675" lon="6.19687">
        <ele>784.2</ele>
        <time>2025-01-15T14:57:03.170Z</time>
      </trkpt>
      <trkpt lat="43.66751" lon="6.19687">
        <ele>784.1</ele>
        <time>2025-01-15T14:57:04.119Z</time>
      </trkpt>
      <trkpt lat="43.66752" lon="6.19687">
        <ele>784</ele>
        <time>2025-01-15T14:57:05.068Z</time>
      </trkpt>
      <trkpt lat="43.66753" lon="6.19686">
        <ele>783.8</ele>
        <time>2025-01-15T14:57:06.239Z</time>
      </trkpt>
      <trkpt lat="43.66753" lon="6.19685">
        <ele>783.7</ele>
        <time>2025-01-15T14:57:06.925Z</time>
      </trkpt>
      <trkpt lat="43.66753" lon="6.19684">
        <ele>783.5</ele>
        <time>2025-01-15T14:57:07.612Z</time>
      </trkpt>
      <trkpt lat="43.66753" lon="6.19682">
        <ele>783.3</ele>
        <time>2025-01-15T14:57:08.984Z</time>
      </trkpt>
      <trkpt lat="43.66753" lon="6.19681">
        <ele>783.2</ele>
        <time>2025-01-15T14:57:09.671Z</time>
      </trkpt>
      <trkpt lat="43.66753" lon="6.1968">
        <ele>783.1</ele>
        <time>2025-01-15T14:57:10.357Z</time>
      </trkpt>
      <trkpt lat="43.66753" lon="6.19679">
        <ele>783</ele>
        <time>2025-01-15T14:57:11.043Z</time>
      </trkpt>
      <trkpt lat="43.66753" lon="6.19678">
        <ele>782.9</ele>
        <time>2025-01-15T14:57:11.730Z</time>
      </trkpt>
      <trkpt lat="43.66753" lon="6.19677">
        <ele>782.8</ele>
        <time>2025-01-15T14:57:12.416Z</time>
      </trkpt>
      <trkpt lat="43.66753" lon="6.19676">
        <ele>782.7</ele>
        <time>2025-01-15T14:57:13.102Z</time>
      </trkpt>
      <trkpt lat="43.66753" lon="6.19675">
        <ele>782.6</ele>
        <time>2025-01-15T14:57:13.788Z</time>
      </trkpt>
      <trkpt lat="43.66752" lon="6.19673">
        <ele>782.5</ele>
        <time>2025-01-15T14:57:15.457Z</time>
      </trkpt>
      <trkpt lat="43.66752" lon="6.19672">
        <ele>782.4</ele>
        <time>2025-01-15T14:57:16.143Z</time>
      </trkpt>
      <trkpt lat="43.66752" lon="6.1967">
        <ele>782.1</ele>
        <time>2025-01-15T14:57:17.516Z</time>
      </trkpt>
      <trkpt lat="43.66752" lon="6.19669">
        <ele>782</ele>
        <time>2025-01-15T14:57:18.202Z</time>
      </trkpt>
      <trkpt lat="43.66751" lon="6.19668">
        <ele>782</ele>
        <time>2025-01-15T14:57:19.541Z</time>
      </trkpt>
      <trkpt lat="43.66751" lon="6.19667">
        <ele>781.9</ele>
        <time>2025-01-15T14:57:20.227Z</time>
      </trkpt>
      <trkpt lat="43.66751" lon="6.19666">
        <ele>781.8</ele>
        <time>2025-01-15T14:57:20.913Z</time>
      </trkpt>
      <trkpt lat="43.66751" lon="6.19665">
        <ele>781.8</ele>
        <time>2025-01-15T14:57:21.698Z</time>
      </trkpt>
      <trkpt lat="43.66751" lon="6.19663">
        <ele>781.6</ele>
        <time>2025-01-15T14:57:23.070Z</time>
      </trkpt>
      <trkpt lat="43.66751" lon="6.19661">
        <ele>781.5</ele>
        <time>2025-01-15T14:57:24.443Z</time>
      </trkpt>
      <trkpt lat="43.66752" lon="6.1966">
        <ele>781.3</ele>
        <time>2025-01-15T14:57:25.614Z</time>
      </trkpt>
      <trkpt lat="43.66753" lon="6.19659">
        <ele>781.1</ele>
        <time>2025-01-15T14:57:26.785Z</time>
      </trkpt>
      <trkpt lat="43.66753" lon="6.19657">
        <ele>780.9</ele>
        <time>2025-01-15T14:57:28.158Z</time>
      </trkpt>
      <trkpt lat="43.66753" lon="6.19655">
        <ele>780.7</ele>
        <time>2025-01-15T14:57:29.530Z</time>
      </trkpt>
      <trkpt lat="43.66753" lon="6.19655">
        <ele>780.7</ele>
        <time>2025-01-15T14:57:29.530Z</time>
      </trkpt>
      <trkpt lat="43.66753" lon="6.19653">
        <ele>780.6</ele>
        <time>2025-01-15T14:57:30.903Z</time>
      </trkpt>
      <trkpt lat="43.66754" lon="6.19652">
        <ele>780.4</ele>
        <time>2025-01-15T14:57:32.074Z</time>
      </trkpt>
      <trkpt lat="43.66754" lon="6.19651">
        <ele>780.3</ele>
        <time>2025-01-15T14:57:32.760Z</time>
      </trkpt>
      <trkpt lat="43.66754" lon="6.19651">
        <ele>780.3</ele>
        <time>2025-01-15T14:57:32.760Z</time>
      </trkpt>
      <trkpt lat="43.66754" lon="6.1965">
        <ele>780.2</ele>
        <time>2025-01-15T14:57:33.447Z</time>
      </trkpt>
      <trkpt lat="43.66754" lon="6.19648">
        <ele>780</ele>
        <time>2025-01-15T14:57:34.819Z</time>
      </trkpt>
      <trkpt lat="43.66754" lon="6.19647">
        <ele>779.9</ele>
        <time>2025-01-15T14:57:35.506Z</time>
      </trkpt>
      <trkpt lat="43.66754" lon="6.19646">
        <ele>779.9</ele>
        <time>2025-01-15T14:57:36.290Z</time>
      </trkpt>
      <trkpt lat="43.66755" lon="6.19645">
        <ele>779.6</ele>
        <time>2025-01-15T14:57:37.461Z</time>
      </trkpt>
      <trkpt lat="43.66755" lon="6.19643">
        <ele>779.4</ele>
        <time>2025-01-15T14:57:38.834Z</time>
      </trkpt>
      <trkpt lat="43.66755" lon="6.19642">
        <ele>779.4</ele>
        <time>2025-01-15T14:57:39.618Z</time>
      </trkpt>
      <trkpt lat="43.66756" lon="6.19641">
        <ele>779.1</ele>
        <time>2025-01-15T14:57:40.789Z</time>
      </trkpt>
      <trkpt lat="43.66756" lon="6.19639">
        <ele>778.9</ele>
        <time>2025-01-15T14:57:42.162Z</time>
      </trkpt>
      <trkpt lat="43.66756" lon="6.19638">
        <ele>778.8</ele>
        <time>2025-01-15T14:57:42.848Z</time>
      </trkpt>
      <trkpt lat="43.66756" lon="6.19636">
        <ele>778.5</ele>
        <time>2025-01-15T14:57:44.221Z</time>
      </trkpt>
      <trkpt lat="43.66757" lon="6.19635">
        <ele>778.2</ele>
        <time>2025-01-15T14:57:45.392Z</time>
      </trkpt>
      <trkpt lat="43.66757" lon="6.19634">
        <ele>778.1</ele>
        <time>2025-01-15T14:57:46.078Z</time>
      </trkpt>
      <trkpt lat="43.66757" lon="6.19633">
        <ele>777.9</ele>
        <time>2025-01-15T14:57:46.764Z</time>
      </trkpt>
      <trkpt lat="43.66757" lon="6.19633">
        <ele>777.9</ele>
        <time>2025-01-15T14:57:46.764Z</time>
      </trkpt>
      <trkpt lat="43.66757" lon="6.19632">
        <ele>777.8</ele>
        <time>2025-01-15T14:57:47.451Z</time>
      </trkpt>
      <trkpt lat="43.66757" lon="6.19632">
        <ele>777.8</ele>
        <time>2025-01-15T14:57:47.451Z</time>
      </trkpt>
      <trkpt lat="43.66758" lon="6.19631">
        <ele>777.5</ele>
        <time>2025-01-15T14:57:48.622Z</time>
      </trkpt>
      <trkpt lat="43.66758" lon="6.19631">
        <ele>777.5</ele>
        <time>2025-01-15T14:57:48.622Z</time>
      </trkpt>
      <trkpt lat="43.66758" lon="6.19631">
        <ele>777.5</ele>
        <time>2025-01-15T14:57:48.622Z</time>
      </trkpt>
      <trkpt lat="43.66758" lon="6.19628">
        <ele>777.1</ele>
        <time>2025-01-15T14:57:50.681Z</time>
      </trkpt>
      <trkpt lat="43.66758" lon="6.19628">
        <ele>777.1</ele>
        <time>2025-01-15T14:57:50.681Z</time>
      </trkpt>
      <trkpt lat="43.66759" lon="6.19627">
        <ele>776.8</ele>
        <time>2025-01-15T14:57:51.852Z</time>
      </trkpt>
      <trkpt lat="43.66759" lon="6.19626">
        <ele>776.7</ele>
        <time>2025-01-15T14:57:52.538Z</time>
      </trkpt>
      <trkpt lat="43.66759" lon="6.19625">
        <ele>776.5</ele>
        <time>2025-01-15T14:57:53.224Z</time>
      </trkpt>
      <trkpt lat="43.66759" lon="6.19624">
        <ele>776.4</ele>
        <time>2025-01-15T14:57:53.911Z</time>
      </trkpt>
      <trkpt lat="43.66759" lon="6.19624">
        <ele>776.4</ele>
        <time>2025-01-15T14:57:53.911Z</time>
      </trkpt>
      <trkpt lat="43.66759" lon="6.19623">
        <ele>776.3</ele>
        <time>2025-01-15T14:57:54.597Z</time>
      </trkpt>
      <trkpt lat="43.66759" lon="6.19621">
        <ele>776</ele>
        <time>2025-01-15T14:57:55.970Z</time>
      </trkpt>
      <trkpt lat="43.6676" lon="6.1962">
        <ele>775.7</ele>
        <time>2025-01-15T14:57:57.141Z</time>
      </trkpt>
      <trkpt lat="43.6676" lon="6.19618">
        <ele>775.5</ele>
        <time>2025-01-15T14:57:58.513Z</time>
      </trkpt>
      <trkpt lat="43.66759" lon="6.19617">
        <ele>775.5</ele>
        <time>2025-01-15T14:57:59.852Z</time>
      </trkpt>
      <trkpt lat="43.66759" lon="6.19615">
        <ele>775.2</ele>
        <time>2025-01-15T14:58:01.224Z</time>
      </trkpt>
      <trkpt lat="43.66759" lon="6.19612">
        <ele>774.8</ele>
        <time>2025-01-15T14:58:03.283Z</time>
      </trkpt>
      <trkpt lat="43.66758" lon="6.19611">
        <ele>774.8</ele>
        <time>2025-01-15T14:58:04.622Z</time>
      </trkpt>
      <trkpt lat="43.66758" lon="6.1961">
        <ele>774.7</ele>
        <time>2025-01-15T14:58:05.308Z</time>
      </trkpt>
      <trkpt lat="43.66758" lon="6.19608">
        <ele>774.4</ele>
        <time>2025-01-15T14:58:06.681Z</time>
      </trkpt>
      <trkpt lat="43.66758" lon="6.19607">
        <ele>774.3</ele>
        <time>2025-01-15T14:58:07.367Z</time>
      </trkpt>
      <trkpt lat="43.66758" lon="6.19606">
        <ele>774.2</ele>
        <time>2025-01-15T14:58:08.053Z</time>
      </trkpt>
      <trkpt lat="43.66758" lon="6.19606">
        <ele>774.2</ele>
        <time>2025-01-15T14:58:08.053Z</time>
      </trkpt>
      <trkpt lat="43.66758" lon="6.19603">
        <ele>773.8</ele>
        <time>2025-01-15T14:58:10.112Z</time>
      </trkpt>
      <trkpt lat="43.66758" lon="6.19603">
        <ele>773.8</ele>
        <time>2025-01-15T14:58:10.112Z</time>
      </trkpt>
      <trkpt lat="43.66759" lon="6.19603">
        <ele>773.6</ele>
        <time>2025-01-15T14:58:11.061Z</time>
      </trkpt>
      <trkpt lat="43.66759" lon="6.19603">
        <ele>773.6</ele>
        <time>2025-01-15T14:58:11.061Z</time>
      </trkpt>
      <trkpt lat="43.6676" lon="6.19602">
        <ele>773.4</ele>
        <time>2025-01-15T14:58:12.232Z</time>
      </trkpt>
      <trkpt lat="43.6676" lon="6.196">
        <ele>773.1</ele>
        <time>2025-01-15T14:58:13.605Z</time>
      </trkpt>
      <trkpt lat="43.66761" lon="6.19599">
        <ele>772.8</ele>
        <time>2025-01-15T14:58:14.776Z</time>
      </trkpt>
      <trkpt lat="43.66762" lon="6.19598">
        <ele>772.6</ele>
        <time>2025-01-15T14:58:15.947Z</time>
      </trkpt>
      <trkpt lat="43.66763" lon="6.19598">
        <ele>772.5</ele>
        <time>2025-01-15T14:58:16.895Z</time>
      </trkpt>
      <trkpt lat="43.66764" lon="6.19597">
        <ele>772.2</ele>
        <time>2025-01-15T14:58:18.066Z</time>
      </trkpt>
      <trkpt lat="43.66764" lon="6.19596">
        <ele>772.1</ele>
        <time>2025-01-15T14:58:18.753Z</time>
      </trkpt>
      <trkpt lat="43.66765" lon="6.19595">
        <ele>771.8</ele>
        <time>2025-01-15T14:58:19.924Z</time>
      </trkpt>
      <trkpt lat="43.66765" lon="6.19595">
        <ele>771.8</ele>
        <time>2025-01-15T14:58:19.924Z</time>
      </trkpt>
      <trkpt lat="43.66765" lon="6.19594">
        <ele>771.7</ele>
        <time>2025-01-15T14:58:20.610Z</time>
      </trkpt>
      <trkpt lat="43.66766" lon="6.19593">
        <ele>771.5</ele>
        <time>2025-01-15T14:58:21.781Z</time>
      </trkpt>
      <trkpt lat="43.66766" lon="6.19592">
        <ele>771.3</ele>
        <time>2025-01-15T14:58:22.467Z</time>
      </trkpt>
      <trkpt lat="43.66766" lon="6.19591">
        <ele>771.2</ele>
        <time>2025-01-15T14:58:23.154Z</time>
      </trkpt>
      <trkpt lat="43.66767" lon="6.1959">
        <ele>771</ele>
        <time>2025-01-15T14:58:24.325Z</time>
      </trkpt>
      <trkpt lat="43.66767" lon="6.19588">
        <ele>770.7</ele>
        <time>2025-01-15T14:58:25.697Z</time>
      </trkpt>
      <trkpt lat="43.66767" lon="6.19587">
        <ele>770.6</ele>
        <time>2025-01-15T14:58:26.384Z</time>
      </trkpt>
      <trkpt lat="43.66767" lon="6.19586">
        <ele>770.5</ele>
        <time>2025-01-15T14:58:27.070Z</time>
      </trkpt>
      <trkpt lat="43.66767" lon="6.19584">
        <ele>770.2</ele>
        <time>2025-01-15T14:58:28.443Z</time>
      </trkpt>
      <trkpt lat="43.66767" lon="6.19583">
        <ele>770.1</ele>
        <time>2025-01-15T14:58:29.129Z</time>
      </trkpt>
      <trkpt lat="43.66767" lon="6.19582">
        <ele>770</ele>
        <time>2025-01-15T14:58:29.815Z</time>
      </trkpt>
      <trkpt lat="43.66767" lon="6.19581">
        <ele>769.9</ele>
        <time>2025-01-15T14:58:30.502Z</time>
      </trkpt>
      <trkpt lat="43.66767" lon="6.19579">
        <ele>769.6</ele>
        <time>2025-01-15T14:58:31.874Z</time>
      </trkpt>
      <trkpt lat="43.66767" lon="6.19579">
        <ele>769.6</ele>
        <time>2025-01-15T14:58:31.874Z</time>
      </trkpt>
      <trkpt lat="43.66767" lon="6.19578">
        <ele>769.5</ele>
        <time>2025-01-15T14:58:32.561Z</time>
      </trkpt>
      <trkpt lat="43.66767" lon="6.19577">
        <ele>769.3</ele>
        <time>2025-01-15T14:58:33.247Z</time>
      </trkpt>
      <trkpt lat="43.66767" lon="6.19577">
        <ele>769.3</ele>
        <time>2025-01-15T14:58:33.247Z</time>
      </trkpt>
      <trkpt lat="43.66767" lon="6.19577">
        <ele>769.3</ele>
        <time>2025-01-15T14:58:33.247Z</time>
      </trkpt>
      <trkpt lat="43.66766" lon="6.19578">
        <ele>769.6</ele>
        <time>2025-01-15T14:58:36.443Z</time>
      </trkpt>
      <trkpt lat="43.66766" lon="6.19579">
        <ele>769.7</ele>
        <time>2025-01-15T14:58:37.691Z</time>
      </trkpt>
      <trkpt lat="43.66766" lon="6.19579">
        <ele>769.7</ele>
        <time>2025-01-15T14:58:37.691Z</time>
      </trkpt>
      <trkpt lat="43.66766" lon="6.19579">
        <ele>769.7</ele>
        <time>2025-01-15T14:58:37.691Z</time>
      </trkpt>
      <trkpt lat="43.66765" lon="6.19579">
        <ele>769.8</ele>
        <time>2025-01-15T14:58:39.196Z</time>
      </trkpt>
      <trkpt lat="43.66765" lon="6.19579">
        <ele>769.8</ele>
        <time>2025-01-15T14:58:39.196Z</time>
      </trkpt>
      <trkpt lat="43.66765" lon="6.19579">
        <ele>769.8</ele>
        <time>2025-01-15T14:58:39.196Z</time>
      </trkpt>
      <trkpt lat="43.66765" lon="6.19579">
        <ele>769.8</ele>
        <time>2025-01-15T14:58:39.196Z</time>
      </trkpt>
      <trkpt lat="43.66765" lon="6.19578">
        <ele>769.7</ele>
        <time>2025-01-15T14:58:39.882Z</time>
      </trkpt>
      <trkpt lat="43.66765" lon="6.19578">
        <ele>769.7</ele>
        <time>2025-01-15T14:58:39.882Z</time>
      </trkpt>
      <trkpt lat="43.66765" lon="6.19578">
        <ele>769.7</ele>
        <time>2025-01-15T14:58:39.882Z</time>
      </trkpt>
      <trkpt lat="43.66766" lon="6.19577">
        <ele>769.5</ele>
        <time>2025-01-15T14:58:41.053Z</time>
      </trkpt>
      <trkpt lat="43.66767" lon="6.19577">
        <ele>769.3</ele>
        <time>2025-01-15T14:58:42.002Z</time>
      </trkpt>
      <trkpt lat="43.66767" lon="6.19577">
        <ele>769.3</ele>
        <time>2025-01-15T14:58:42.002Z</time>
      </trkpt>
      <trkpt lat="43.66768" lon="6.19577">
        <ele>769.2</ele>
        <time>2025-01-15T14:58:42.951Z</time>
      </trkpt>
      <trkpt lat="43.66768" lon="6.19577">
        <ele>769.2</ele>
        <time>2025-01-15T14:58:42.951Z</time>
      </trkpt>
      <trkpt lat="43.66769" lon="6.19577">
        <ele>769.1</ele>
        <time>2025-01-15T14:58:43.900Z</time>
      </trkpt>
      <trkpt lat="43.6677" lon="6.19577">
        <ele>769</ele>
        <time>2025-01-15T14:58:44.848Z</time>
      </trkpt>
      <trkpt lat="43.66771" lon="6.19577">
        <ele>768.9</ele>
        <time>2025-01-15T14:58:45.797Z</time>
      </trkpt>
      <trkpt lat="43.66771" lon="6.19576">
        <ele>768.7</ele>
        <time>2025-01-15T14:58:46.484Z</time>
      </trkpt>
      <trkpt lat="43.66773" lon="6.19576">
        <ele>768.5</ele>
        <time>2025-01-15T14:58:48.381Z</time>
      </trkpt>
      <trkpt lat="43.66774" lon="6.19576">
        <ele>768.4</ele>
        <time>2025-01-15T14:58:49.330Z</time>
      </trkpt>
      <trkpt lat="43.66775" lon="6.19576">
        <ele>768.3</ele>
        <time>2025-01-15T14:58:50.279Z</time>
      </trkpt>
      <trkpt lat="43.66775" lon="6.19576">
        <ele>768.3</ele>
        <time>2025-01-15T14:58:50.279Z</time>
      </trkpt>
      <trkpt lat="43.66776" lon="6.19576">
        <ele>768.2</ele>
        <time>2025-01-15T14:58:51.228Z</time>
      </trkpt>
      <trkpt lat="43.66777" lon="6.19576">
        <ele>768</ele>
        <time>2025-01-15T14:58:52.176Z</time>
      </trkpt>
      <trkpt lat="43.66777" lon="6.19577">
        <ele>768.2</ele>
        <time>2025-01-15T14:58:54.325Z</time>
      </trkpt>
      <trkpt lat="43.66778" lon="6.19577">
        <ele>768.1</ele>
        <time>2025-01-15T14:58:55.274Z</time>
      </trkpt>
      <trkpt lat="43.66779" lon="6.19577">
        <ele>768</ele>
        <time>2025-01-15T14:58:56.223Z</time>
      </trkpt>
      <trkpt lat="43.6678" lon="6.19577">
        <ele>767.9</ele>
        <time>2025-01-15T14:58:57.172Z</time>
      </trkpt>
      <trkpt lat="43.66781" lon="6.19577">
        <ele>767.8</ele>
        <time>2025-01-15T14:58:58.120Z</time>
      </trkpt>
      <trkpt lat="43.66782" lon="6.19576">
        <ele>767.6</ele>
        <time>2025-01-15T14:58:59.291Z</time>
      </trkpt>
      <trkpt lat="43.66784" lon="6.19575">
        <ele>767.3</ele>
        <time>2025-01-15T14:59:01.309Z</time>
      </trkpt>
      <trkpt lat="43.66784" lon="6.19575">
        <ele>767.3</ele>
        <time>2025-01-15T14:59:01.309Z</time>
      </trkpt>
      <trkpt lat="43.66785" lon="6.19574">
        <ele>767.1</ele>
        <time>2025-01-15T14:59:02.480Z</time>
      </trkpt>
      <trkpt lat="43.66786" lon="6.19574">
        <ele>767</ele>
        <time>2025-01-15T14:59:03.429Z</time>
      </trkpt>
      <trkpt lat="43.66787" lon="6.19573">
        <ele>766.8</ele>
        <time>2025-01-15T14:59:04.600Z</time>
      </trkpt>
      <trkpt lat="43.66787" lon="6.19572">
        <ele>766.6</ele>
        <time>2025-01-15T14:59:05.287Z</time>
      </trkpt>
      <trkpt lat="43.66787" lon="6.19572">
        <ele>766.6</ele>
        <time>2025-01-15T14:59:05.287Z</time>
      </trkpt>
      <trkpt lat="43.66787" lon="6.1957">
        <ele>766.4</ele>
        <time>2025-01-15T14:59:06.659Z</time>
      </trkpt>
      <trkpt lat="43.66786" lon="6.19569">
        <ele>766.4</ele>
        <time>2025-01-15T14:59:07.997Z</time>
      </trkpt>
      <trkpt lat="43.66786" lon="6.19568">
        <ele>766.2</ele>
        <time>2025-01-15T14:59:08.684Z</time>
      </trkpt>
      <trkpt lat="43.66785" lon="6.19567">
        <ele>766.2</ele>
        <time>2025-01-15T14:59:10.022Z</time>
        <extensions>
          <visugpx:TrkExtension xmlns:visugpx="https://www.visugpx.com/editgpx/">
            <visugpx:node>25</visugpx:node>
            </visugpx:TrkExtension>
        </extensions>
      </trkpt>
      <trkpt lat="43.66787" lon="6.19566">
        <ele>765.9</ele>
        <time>2025-01-15T14:59:12.040Z</time>
      </trkpt>
      <trkpt lat="43.66786" lon="6.19564">
        <ele>765.7</ele>
        <time>2025-01-15T14:59:13.709Z</time>
      </trkpt>
      <trkpt lat="43.66784" lon="6.19558">
        <ele>765</ele>
        <time>2025-01-15T14:59:18.761Z</time>
      </trkpt>
      <trkpt lat="43.66781" lon="6.19551">
        <ele>764.1</ele>
        <time>2025-01-15T14:59:23.814Z</time>
      </trkpt>
      <trkpt lat="43.66779" lon="6.19547">
        <ele>763.4</ele>
        <time>2025-01-15T14:59:27.151Z</time>
      </trkpt>
      <trkpt lat="43.66775" lon="6.1954">
        <ele>762.6</ele>
        <time>2025-01-15T14:59:33.546Z</time>
      </trkpt>
      <trkpt lat="43.66771" lon="6.19532">
        <ele>761.9</ele>
        <time>2025-01-15T14:59:39.942Z</time>
      </trkpt>
      <trkpt lat="43.66767" lon="6.19525">
        <ele>761.5</ele>
        <time>2025-01-15T14:59:46.064Z</time>
      </trkpt>
      <trkpt lat="43.66763" lon="6.19518">
        <ele>761.1</ele>
        <time>2025-01-15T14:59:52.186Z</time>
      </trkpt>
      <trkpt lat="43.66761" lon="6.19512">
        <ele>760.4</ele>
        <time>2025-01-15T14:59:56.721Z</time>
      </trkpt>
      <trkpt lat="43.66758" lon="6.19505">
        <ele>759.7</ele>
        <time>2025-01-15T15:00:02.305Z</time>
      </trkpt>
      <trkpt lat="43.66756" lon="6.19499">
        <ele>759</ele>
        <time>2025-01-15T15:00:06.839Z</time>
      </trkpt>
      <trkpt lat="43.66754" lon="6.19493">
        <ele>758.6</ele>
        <time>2025-01-15T15:00:11.373Z</time>
      </trkpt>
      <trkpt lat="43.66752" lon="6.19485">
        <ele>758.1</ele>
        <time>2025-01-15T15:00:17.182Z</time>
      </trkpt>
      <trkpt lat="43.66751" lon="6.19476">
        <ele>757.2</ele>
        <time>2025-01-15T15:00:23.432Z</time>
      </trkpt>
      <trkpt lat="43.6675" lon="6.19468">
        <ele>757</ele>
        <time>2025-01-15T15:00:29.178Z</time>
      </trkpt>
      <trkpt lat="43.6675" lon="6.19464">
        <ele>757</ele>
        <time>2025-01-15T15:00:32.316Z</time>
      </trkpt>
      <trkpt lat="43.6675" lon="6.19458">
        <ele>757</ele>
        <time>2025-01-15T15:00:37.022Z</time>
      </trkpt>
      <trkpt lat="43.66749" lon="6.19449">
        <ele>757</ele>
        <time>2025-01-15T15:00:44.164Z</time>
      </trkpt>
      <trkpt lat="43.66749" lon="6.19444">
        <ele>756.9</ele>
        <time>2025-01-15T15:00:47.771Z</time>
      </trkpt>
      <trkpt lat="43.66749" lon="6.19442">
        <ele>756.9</ele>
        <time>2025-01-15T15:00:49.340Z</time>
      </trkpt>
      <trkpt lat="43.66747" lon="6.19432">
        <ele>756.3</ele>
        <time>2025-01-15T15:00:56.461Z</time>
      </trkpt>
      <trkpt lat="43.66745" lon="6.19421">
        <ele>755.7</ele>
        <time>2025-01-15T15:01:04.245Z</time>
      </trkpt>
      <trkpt lat="43.66742" lon="6.19411">
        <ele>754.9</ele>
        <time>2025-01-15T15:01:11.870Z</time>
      </trkpt>
      <trkpt lat="43.66738" lon="6.19401">
        <ele>754</ele>
        <time>2025-01-15T15:01:19.494Z</time>
      </trkpt>
      <trkpt lat="43.66735" lon="6.19396">
        <ele>753.2</ele>
        <time>2025-01-15T15:01:24.086Z</time>
      </trkpt>
      <trkpt lat="43.66732" lon="6.19391">
        <ele>752.2</ele>
        <time>2025-01-15T15:01:28.678Z</time>
      </trkpt>
      <trkpt lat="43.66729" lon="6.19385">
        <ele>751.2</ele>
        <time>2025-01-15T15:01:33.270Z</time>
      </trkpt>
      <trkpt lat="43.66726" lon="6.1938">
        <ele>750</ele>
        <time>2025-01-15T15:01:37.862Z</time>
      </trkpt>
      <trkpt lat="43.66724" lon="6.19378">
        <ele>749.3</ele>
        <time>2025-01-15T15:01:40.204Z</time>
      </trkpt>
      <trkpt lat="43.66722" lon="6.19378">
        <ele>748.7</ele>
        <time>2025-01-15T15:01:42.101Z</time>
      </trkpt>
      <trkpt lat="43.66717" lon="6.19378">
        <ele>747</ele>
        <time>2025-01-15T15:01:46.845Z</time>
      </trkpt>
      <trkpt lat="43.66715" lon="6.19379">
        <ele>746.4</ele>
        <time>2025-01-15T15:01:48.863Z</time>
      </trkpt>
      <trkpt lat="43.66707" lon="6.19383">
        <ele>744.2</ele>
        <time>2025-01-15T15:01:56.935Z</time>
      </trkpt>
      <trkpt lat="43.66703" lon="6.19388">
        <ele>743.6</ele>
        <time>2025-01-15T15:02:01.828Z</time>
      </trkpt>
      <trkpt lat="43.66699" lon="6.19392">
        <ele>742.7</ele>
        <time>2025-01-15T15:02:06.721Z</time>
      </trkpt>
      <trkpt lat="43.66693" lon="6.19401">
        <ele>741.3</ele>
        <time>2025-01-15T15:02:14.872Z</time>
      </trkpt>
      <trkpt lat="43.66687" lon="6.19409">
        <ele>739.7</ele>
        <time>2025-01-15T15:02:23.023Z</time>
      </trkpt>
      <trkpt lat="43.66681" lon="6.19416">
        <ele>737.9</ele>
        <time>2025-01-15T15:02:30.635Z</time>
      </trkpt>
      <trkpt lat="43.66674" lon="6.19422">
        <ele>736.3</ele>
        <time>2025-01-15T15:02:38.247Z</time>
      </trkpt>
      <trkpt lat="43.66672" lon="6.19424">
        <ele>735.8</ele>
        <time>2025-01-15T15:02:40.589Z</time>
      </trkpt>
      <trkpt lat="43.66666" lon="6.19432">
        <ele>734.3</ele>
        <time>2025-01-15T15:02:48.264Z</time>
      </trkpt>
      <trkpt lat="43.6666" lon="6.19439">
        <ele>732.9</ele>
        <time>2025-01-15T15:02:55.939Z</time>
      </trkpt>
      <trkpt lat="43.66656" lon="6.19443">
        <ele>731.8</ele>
        <time>2025-01-15T15:03:00.722Z</time>
      </trkpt>
      <trkpt lat="43.66652" lon="6.19447">
        <ele>731</ele>
        <time>2025-01-15T15:03:05.506Z</time>
      </trkpt>
      <trkpt lat="43.66647" lon="6.1945">
        <ele>730.4</ele>
        <time>2025-01-15T15:03:10.290Z</time>
      </trkpt>
      <trkpt lat="43.66643" lon="6.19454">
        <ele>729.8</ele>
        <time>2025-01-15T15:03:15.074Z</time>
      </trkpt>
      <trkpt lat="43.66639" lon="6.19457">
        <ele>729.1</ele>
        <time>2025-01-15T15:03:19.601Z</time>
      </trkpt>
      <trkpt lat="43.66635" lon="6.1946">
        <ele>728.7</ele>
        <time>2025-01-15T15:03:24.129Z</time>
      </trkpt>
      <trkpt lat="43.6663" lon="6.19463">
        <ele>728.3</ele>
        <time>2025-01-15T15:03:28.657Z</time>
      </trkpt>
      <trkpt lat="43.66626" lon="6.19466">
        <ele>727.8</ele>
        <time>2025-01-15T15:03:33.184Z</time>
      </trkpt>
      <trkpt lat="43.66621" lon="6.19469">
        <ele>726.9</ele>
        <time>2025-01-15T15:03:38.678Z</time>
      </trkpt>
      <trkpt lat="43.66615" lon="6.19471">
        <ele>725.8</ele>
        <time>2025-01-15T15:03:44.171Z</time>
      </trkpt>
      <trkpt lat="43.6661" lon="6.19473">
        <ele>724.8</ele>
        <time>2025-01-15T15:03:49.567Z</time>
      </trkpt>
      <trkpt lat="43.66604" lon="6.19475">
        <ele>723.8</ele>
        <time>2025-01-15T15:03:54.963Z</time>
      </trkpt>
      <trkpt lat="43.666" lon="6.19476">
        <ele>722.9</ele>
        <time>2025-01-15T15:03:58.820Z</time>
      </trkpt>
      <trkpt lat="43.66594" lon="6.19479">
        <ele>721.6</ele>
        <time>2025-01-15T15:04:05.221Z</time>
      </trkpt>
      <trkpt lat="43.66587" lon="6.19481">
        <ele>720.3</ele>
        <time>2025-01-15T15:04:11.623Z</time>
      </trkpt>
      <trkpt lat="43.6658" lon="6.19483">
        <ele>718.6</ele>
        <time>2025-01-15T15:04:18.405Z</time>
      </trkpt>
      <trkpt lat="43.66576" lon="6.19486">
        <ele>717.9</ele>
        <time>2025-01-15T15:04:22.722Z</time>
      </trkpt>
      <trkpt lat="43.66572" lon="6.19491">
        <ele>717.3</ele>
        <time>2025-01-15T15:04:27.839Z</time>
      </trkpt>
      <trkpt lat="43.66568" lon="6.19496">
        <ele>716.6</ele>
        <time>2025-01-15T15:04:32.956Z</time>
      </trkpt>
      <trkpt lat="43.66563" lon="6.19505">
        <ele>715.6</ele>
        <time>2025-01-15T15:04:40.744Z</time>
      </trkpt>
      <trkpt lat="43.66562" lon="6.19505">
        <ele>715.2</ele>
        <time>2025-01-15T15:04:41.693Z</time>
      </trkpt>
      <trkpt lat="43.6656" lon="6.19511">
        <ele>714.4</ele>
        <time>2025-01-15T15:04:46.446Z</time>
      </trkpt>
      <trkpt lat="43.66557" lon="6.19517">
        <ele>713.6</ele>
        <time>2025-01-15T15:04:51.198Z</time>
      </trkpt>
      <trkpt lat="43.66555" lon="6.19523">
        <ele>712.7</ele>
        <time>2025-01-15T15:04:55.950Z</time>
      </trkpt>
      <trkpt lat="43.66552" lon="6.19529">
        <ele>711.9</ele>
        <time>2025-01-15T15:05:00.703Z</time>
      </trkpt>
      <trkpt lat="43.6655" lon="6.19535">
        <ele>711.3</ele>
        <time>2025-01-15T15:05:05.455Z</time>
      </trkpt>
      <trkpt lat="43.66547" lon="6.19541">
        <ele>710.8</ele>
        <time>2025-01-15T15:05:10.207Z</time>
      </trkpt>
      <trkpt lat="43.66544" lon="6.19546">
        <ele>710.3</ele>
        <time>2025-01-15T15:05:14.666Z</time>
      </trkpt>
      <trkpt lat="43.66543" lon="6.19547">
        <ele>710.2</ele>
        <time>2025-01-15T15:05:15.837Z</time>
      </trkpt>
      <trkpt lat="43.6654" lon="6.19549">
        <ele>709.7</ele>
        <time>2025-01-15T15:05:18.997Z</time>
        <extensions>
          <visugpx:TrkExtension xmlns:visugpx="https://www.visugpx.com/editgpx/">
            <visugpx:node>26</visugpx:node>
            </visugpx:TrkExtension>
        </extensions>
      </trkpt>
      <trkpt lat="43.66539" lon="6.1955">
        <ele>709.5</ele>
        <time>2025-01-15T15:05:20.168Z</time>
      </trkpt>
      <trkpt lat="43.66535" lon="6.1955">
        <ele>708.7</ele>
        <time>2025-01-15T15:05:23.963Z</time>
      </trkpt>
      <trkpt lat="43.66529" lon="6.19545">
        <ele>706.8</ele>
        <time>2025-01-15T15:05:30.611Z</time>
      </trkpt>
      <trkpt lat="43.66525" lon="6.19541">
        <ele>705.7</ele>
        <time>2025-01-15T15:05:35.295Z</time>
      </trkpt>
      <trkpt lat="43.66522" lon="6.19536">
        <ele>704.6</ele>
        <time>2025-01-15T15:05:39.753Z</time>
      </trkpt>
      <trkpt lat="43.66516" lon="6.1953">
        <ele>703.1</ele>
        <time>2025-01-15T15:05:46.779Z</time>
      </trkpt>
      <trkpt lat="43.66512" lon="6.19527">
        <ele>702.2</ele>
        <time>2025-01-15T15:05:51.097Z</time>
      </trkpt>
      <trkpt lat="43.66508" lon="6.19524">
        <ele>701.6</ele>
        <time>2025-01-15T15:05:55.415Z</time>
      </trkpt>
      <trkpt lat="43.66504" lon="6.19523">
        <ele>701</ele>
        <time>2025-01-15T15:05:59.272Z</time>
      </trkpt>
      <trkpt lat="43.66503" lon="6.19523">
        <ele>700.9</ele>
        <time>2025-01-15T15:06:00.221Z</time>
      </trkpt>
      <trkpt lat="43.665" lon="6.19523">
        <ele>700.5</ele>
        <time>2025-01-15T15:06:03.067Z</time>
      </trkpt>
      <trkpt lat="43.66495" lon="6.19524">
        <ele>699.9</ele>
        <time>2025-01-15T15:06:07.860Z</time>
      </trkpt>
      <trkpt lat="43.66491" lon="6.19526">
        <ele>699.5</ele>
        <time>2025-01-15T15:06:11.896Z</time>
      </trkpt>
      <trkpt lat="43.66487" lon="6.1953">
        <ele>699.5</ele>
        <time>2025-01-15T15:06:17.250Z</time>
      </trkpt>
      <trkpt lat="43.66483" lon="6.19534">
        <ele>699.5</ele>
        <time>2025-01-15T15:06:22.603Z</time>
      </trkpt>
      <trkpt lat="43.66477" lon="6.19541">
        <ele>699.6</ele>
        <time>2025-01-15T15:06:31.212Z</time>
      </trkpt>
      <trkpt lat="43.66471" lon="6.19547">
        <ele>699.5</ele>
        <time>2025-01-15T15:06:39.154Z</time>
      </trkpt>
      <trkpt lat="43.66466" lon="6.19553">
        <ele>699.5</ele>
        <time>2025-01-15T15:06:46.540Z</time>
      </trkpt>
      <trkpt lat="43.66461" lon="6.19559">
        <ele>699.4</ele>
        <time>2025-01-15T15:06:53.603Z</time>
      </trkpt>
      <trkpt lat="43.66455" lon="6.19565">
        <ele>699.2</ele>
        <time>2025-01-15T15:07:00.362Z</time>
      </trkpt>
      <trkpt lat="43.6645" lon="6.19571">
        <ele>698.9</ele>
        <time>2025-01-15T15:07:06.835Z</time>
      </trkpt>
      <trkpt lat="43.66445" lon="6.19575">
        <ele>698.3</ele>
        <time>2025-01-15T15:07:12.113Z</time>
      </trkpt>
      <trkpt lat="43.66441" lon="6.19579">
        <ele>697.7</ele>
        <time>2025-01-15T15:07:17.390Z</time>
      </trkpt>
      <trkpt lat="43.66436" lon="6.19583">
        <ele>697.1</ele>
        <time>2025-01-15T15:07:22.667Z</time>
      </trkpt>
      <trkpt lat="43.66431" lon="6.19587">
        <ele>696.5</ele>
        <time>2025-01-15T15:07:27.944Z</time>
      </trkpt>
      <trkpt lat="43.66428" lon="6.19592">
        <ele>696.2</ele>
        <time>2025-01-15T15:07:32.479Z</time>
      </trkpt>
      <trkpt lat="43.66424" lon="6.19596">
        <ele>695.7</ele>
        <time>2025-01-15T15:07:37.014Z</time>
      </trkpt>
      <trkpt lat="43.66421" lon="6.19599">
        <ele>695.2</ele>
        <time>2025-01-15T15:07:40.528Z</time>
      </trkpt>
      <trkpt lat="43.66416" lon="6.19607">
        <ele>694.4</ele>
        <time>2025-01-15T15:07:47.858Z</time>
      </trkpt>
      <trkpt lat="43.6641" lon="6.19614">
        <ele>693.7</ele>
        <time>2025-01-15T15:07:55.188Z</time>
      </trkpt>
      <trkpt lat="43.66406" lon="6.19621">
        <ele>693.1</ele>
        <time>2025-01-15T15:08:01.363Z</time>
      </trkpt>
      <trkpt lat="43.66401" lon="6.19627">
        <ele>692.4</ele>
        <time>2025-01-15T15:08:07.538Z</time>
      </trkpt>
      <trkpt lat="43.66397" lon="6.19633">
        <ele>691.6</ele>
        <time>2025-01-15T15:08:13.470Z</time>
      </trkpt>
      <trkpt lat="43.66392" lon="6.19639">
        <ele>690.8</ele>
        <time>2025-01-15T15:08:19.402Z</time>
      </trkpt>
      <trkpt lat="43.66389" lon="6.19644">
        <ele>690.4</ele>
        <time>2025-01-15T15:08:23.861Z</time>
      </trkpt>
      <trkpt lat="43.66385" lon="6.19649">
        <ele>690</ele>
        <time>2025-01-15T15:08:28.573Z</time>
      </trkpt>
      <trkpt lat="43.66382" lon="6.19653">
        <ele>689.7</ele>
        <time>2025-01-15T15:08:33.284Z</time>
      </trkpt>
      <trkpt lat="43.66378" lon="6.19658">
        <ele>689.3</ele>
        <time>2025-01-15T15:08:37.996Z</time>
      </trkpt>
      <trkpt lat="43.66374" lon="6.19662">
        <ele>689</ele>
        <time>2025-01-15T15:08:42.707Z</time>
      </trkpt>
      <trkpt lat="43.66369" lon="6.19668">
        <ele>688.5</ele>
        <time>2025-01-15T15:08:48.990Z</time>
      </trkpt>
      <trkpt lat="43.66363" lon="6.19673">
        <ele>687.6</ele>
        <time>2025-01-15T15:08:55.637Z</time>
      </trkpt>
      <trkpt lat="43.66364" lon="6.19674">
        <ele>687.8</ele>
        <time>2025-01-15T15:08:57.963Z</time>
        <extensions>
          <visugpx:TrkExtension xmlns:visugpx="https://www.visugpx.com/editgpx/">
            <visugpx:node>27</visugpx:node>
            </visugpx:TrkExtension>
        </extensions>
      </trkpt>
      <trkpt lat="43.66363" lon="6.19673">
        <ele>687.6</ele>
        <time>2025-01-15T15:08:59.134Z</time>
      </trkpt>
      <trkpt lat="43.66359" lon="6.19676">
        <ele>687.1</ele>
        <time>2025-01-15T15:09:03.452Z</time>
      </trkpt>
      <trkpt lat="43.66356" lon="6.19678">
        <ele>686.7</ele>
        <time>2025-01-15T15:09:06.612Z</time>
      </trkpt>
      <trkpt lat="43.66351" lon="6.19678">
        <ele>686.1</ele>
        <time>2025-01-15T15:09:11.356Z</time>
      </trkpt>
      <trkpt lat="43.66349" lon="6.19675">
        <ele>685.7</ele>
        <time>2025-01-15T15:09:14.156Z</time>
      </trkpt>
      <trkpt lat="43.6635" lon="6.19667">
        <ele>685.4</ele>
        <time>2025-01-15T15:09:19.728Z</time>
      </trkpt>
      <trkpt lat="43.66352" lon="6.19656">
        <ele>684.9</ele>
        <time>2025-01-15T15:09:27.513Z</time>
      </trkpt>
      <trkpt lat="43.66355" lon="6.19646">
        <ele>684.6</ele>
        <time>2025-01-15T15:09:35.081Z</time>
      </trkpt>
      <trkpt lat="43.66358" lon="6.19636">
        <ele>684.4</ele>
        <time>2025-01-15T15:09:42.941Z</time>
      </trkpt>
      <trkpt lat="43.6636" lon="6.19629">
        <ele>684.4</ele>
        <time>2025-01-15T15:09:48.936Z</time>
      </trkpt>
      <trkpt lat="43.66362" lon="6.19622">
        <ele>684.4</ele>
        <time>2025-01-15T15:09:54.932Z</time>
      </trkpt>
      <trkpt lat="43.66363" lon="6.19614">
        <ele>684.5</ele>
        <time>2025-01-15T15:10:01.274Z</time>
      </trkpt>
      <trkpt lat="43.66365" lon="6.19607">
        <ele>684.4</ele>
        <time>2025-01-15T15:10:06.948Z</time>
      </trkpt>
      <trkpt lat="43.66367" lon="6.19601">
        <ele>684.4</ele>
        <time>2025-01-15T15:10:12.250Z</time>
      </trkpt>
      <trkpt lat="43.6637" lon="6.19595">
        <ele>684.3</ele>
        <time>2025-01-15T15:10:17.231Z</time>
      </trkpt>
      <trkpt lat="43.66372" lon="6.19589">
        <ele>684.3</ele>
        <time>2025-01-15T15:10:22.533Z</time>
      </trkpt>
      <trkpt lat="43.66374" lon="6.19583">
        <ele>684.3</ele>
        <time>2025-01-15T15:10:27.834Z</time>
      </trkpt>
      <trkpt lat="43.66377" lon="6.19572">
        <ele>683.8</ele>
        <time>2025-01-15T15:10:35.903Z</time>
      </trkpt>
      <trkpt lat="43.66379" lon="6.19561">
        <ele>683.1</ele>
        <time>2025-01-15T15:10:43.688Z</time>
      </trkpt>
      <trkpt lat="43.6638" lon="6.19554">
        <ele>682.6</ele>
        <time>2025-01-15T15:10:48.922Z</time>
      </trkpt>
      <trkpt lat="43.66381" lon="6.19546">
        <ele>682.2</ele>
        <time>2025-01-15T15:10:54.157Z</time>
      </trkpt>
      <trkpt lat="43.66382" lon="6.19539">
        <ele>681.8</ele>
        <time>2025-01-15T15:10:59.054Z</time>
      </trkpt>
      <trkpt lat="43.66383" lon="6.19532">
        <ele>681.5</ele>
        <time>2025-01-15T15:11:03.951Z</time>
      </trkpt>
      <trkpt lat="43.66384" lon="6.19524">
        <ele>681.2</ele>
        <time>2025-01-15T15:11:09.524Z</time>
      </trkpt>
      <trkpt lat="43.66385" lon="6.19518">
        <ele>681.1</ele>
        <time>2025-01-15T15:11:14.035Z</time>
      </trkpt>
      <trkpt lat="43.66384" lon="6.1951">
        <ele>680.7</ele>
        <time>2025-01-15T15:11:19.607Z</time>
      </trkpt>
      <trkpt lat="43.66383" lon="6.19503">
        <ele>680.3</ele>
        <time>2025-01-15T15:11:24.505Z</time>
      </trkpt>
      <trkpt lat="43.66381" lon="6.19495">
        <ele>679.7</ele>
        <time>2025-01-15T15:11:30.314Z</time>
      </trkpt>
      <trkpt lat="43.66379" lon="6.19487">
        <ele>679.1</ele>
        <time>2025-01-15T15:11:36.124Z</time>
      </trkpt>
      <trkpt lat="43.66377" lon="6.1948">
        <ele>678.6</ele>
        <time>2025-01-15T15:11:41.290Z</time>
      </trkpt>
      <trkpt lat="43.66377" lon="6.19474">
        <ele>678.3</ele>
        <time>2025-01-15T15:11:45.751Z</time>
      </trkpt>
      <trkpt lat="43.66377" lon="6.19467">
        <ele>678</ele>
        <time>2025-01-15T15:11:50.213Z</time>
      </trkpt>
      <trkpt lat="43.66378" lon="6.19457">
        <ele>677.5</ele>
        <time>2025-01-15T15:11:57.435Z</time>
      </trkpt>
      <trkpt lat="43.66378" lon="6.19446">
        <ele>676.9</ele>
        <time>2025-01-15T15:12:04.657Z</time>
      </trkpt>
      <trkpt lat="43.66378" lon="6.19437">
        <ele>676.5</ele>
        <time>2025-01-15T15:12:11.178Z</time>
      </trkpt>
      <trkpt lat="43.66378" lon="6.19427">
        <ele>676.2</ele>
        <time>2025-01-15T15:12:17.716Z</time>
      </trkpt>
      <trkpt lat="43.66378" lon="6.19418">
        <ele>675.9</ele>
        <time>2025-01-15T15:12:24.254Z</time>
      </trkpt>
      <trkpt lat="43.66378" lon="6.19408">
        <ele>675.4</ele>
        <time>2025-01-15T15:12:30.775Z</time>
      </trkpt>
      <trkpt lat="43.66378" lon="6.19399">
        <ele>674.9</ele>
        <time>2025-01-15T15:12:36.952Z</time>
      </trkpt>
      <trkpt lat="43.66378" lon="6.1939">
        <ele>674.5</ele>
        <time>2025-01-15T15:12:43.130Z</time>
      </trkpt>
      <trkpt lat="43.66379" lon="6.19381">
        <ele>674.1</ele>
        <time>2025-01-15T15:12:49.549Z</time>
      </trkpt>
      <trkpt lat="43.6638" lon="6.19372">
        <ele>673.7</ele>
        <time>2025-01-15T15:12:55.968Z</time>
      </trkpt>
      <trkpt lat="43.66381" lon="6.19362">
        <ele>673.2</ele>
        <time>2025-01-15T15:13:02.388Z</time>
      </trkpt>
      <trkpt lat="43.66382" lon="6.19353">
        <ele>672.5</ele>
        <time>2025-01-15T15:13:08.807Z</time>
      </trkpt>
      <trkpt lat="43.66384" lon="6.19346">
        <ele>671.9</ele>
        <time>2025-01-15T15:13:13.973Z</time>
      </trkpt>
      <trkpt lat="43.66386" lon="6.19339">
        <ele>671.4</ele>
        <time>2025-01-15T15:13:19.139Z</time>
      </trkpt>
      <trkpt lat="43.66388" lon="6.19331">
        <ele>670.7</ele>
        <time>2025-01-15T15:13:24.811Z</time>
      </trkpt>
      <trkpt lat="43.66389" lon="6.19323">
        <ele>670.3</ele>
        <time>2025-01-15T15:13:30.483Z</time>
      </trkpt>
      <trkpt lat="43.66391" lon="6.19316">
        <ele>669.9</ele>
        <time>2025-01-15T15:13:35.649Z</time>
      </trkpt>
      <trkpt lat="43.66391" lon="6.19306">
        <ele>669.2</ele>
        <time>2025-01-15T15:13:42.513Z</time>
      </trkpt>
      <trkpt lat="43.66391" lon="6.19297">
        <ele>668.2</ele>
        <time>2025-01-15T15:13:49.033Z</time>
      </trkpt>
      <trkpt lat="43.66391" lon="6.19287">
        <ele>667.1</ele>
        <time>2025-01-15T15:13:55.554Z</time>
      </trkpt>
      <trkpt lat="43.66391" lon="6.19278">
        <ele>666.1</ele>
        <time>2025-01-15T15:14:02.074Z</time>
      </trkpt>
      <trkpt lat="43.66391" lon="6.19268">
        <ele>665.4</ele>
        <time>2025-01-15T15:14:08.595Z</time>
        <extensions>
          <visugpx:TrkExtension xmlns:visugpx="https://www.visugpx.com/editgpx/">
            <visugpx:node>28</visugpx:node>
            </visugpx:TrkExtension>
        </extensions>
      </trkpt>
      <trkpt lat="43.66392" lon="6.19259">
        <ele>664.7</ele>
        <time>2025-01-15T15:14:15.132Z</time>
      </trkpt>
      <trkpt lat="43.66392" lon="6.19249">
        <ele>664</ele>
        <time>2025-01-15T15:14:21.670Z</time>
      </trkpt>
      <trkpt lat="43.66392" lon="6.19238">
        <ele>662.9</ele>
        <time>2025-01-15T15:14:29.220Z</time>
      </trkpt>
      <trkpt lat="43.66393" lon="6.1923">
        <ele>662.1</ele>
        <time>2025-01-15T15:14:34.792Z</time>
      </trkpt>
      <trkpt lat="43.66395" lon="6.19223">
        <ele>661.5</ele>
        <time>2025-01-15T15:14:39.958Z</time>
      </trkpt>
      <trkpt lat="43.66396" lon="6.19215">
        <ele>661</ele>
        <time>2025-01-15T15:14:45.531Z</time>
      </trkpt>
      <trkpt lat="43.66399" lon="6.19206">
        <ele>660.6</ele>
        <time>2025-01-15T15:14:52.332Z</time>
      </trkpt>
      <trkpt lat="43.66402" lon="6.19197">
        <ele>660.1</ele>
        <time>2025-01-15T15:14:59.134Z</time>
      </trkpt>
      <trkpt lat="43.66405" lon="6.1919">
        <ele>659.8</ele>
        <time>2025-01-15T15:15:04.601Z</time>
      </trkpt>
      <trkpt lat="43.66408" lon="6.19183">
        <ele>659.5</ele>
        <time>2025-01-15T15:15:10.068Z</time>
      </trkpt>
      <trkpt lat="43.6641" lon="6.19176">
        <ele>659.2</ele>
        <time>2025-01-15T15:15:15.536Z</time>
      </trkpt>
      <trkpt lat="43.66413" lon="6.19169">
        <ele>658.9</ele>
        <time>2025-01-15T15:15:21.003Z</time>
      </trkpt>
      <trkpt lat="43.66415" lon="6.19163">
        <ele>658.8</ele>
        <time>2025-01-15T15:15:25.812Z</time>
      </trkpt>
      <trkpt lat="43.66418" lon="6.19158">
        <ele>658.8</ele>
        <time>2025-01-15T15:15:30.940Z</time>
      </trkpt>
      <trkpt lat="43.6642" lon="6.19152">
        <ele>658.7</ele>
        <time>2025-01-15T15:15:35.749Z</time>
      </trkpt>
      <trkpt lat="43.66422" lon="6.19146">
        <ele>658.7</ele>
        <time>2025-01-15T15:15:40.877Z</time>
      </trkpt>
      <trkpt lat="43.66425" lon="6.19138">
        <ele>658.6</ele>
        <time>2025-01-15T15:15:47.622Z</time>
      </trkpt>
      <trkpt lat="43.66427" lon="6.19127">
        <ele>658.5</ele>
        <time>2025-01-15T15:15:56.194Z</time>
      </trkpt>
      <trkpt lat="43.66428" lon="6.19121">
        <ele>658.4</ele>
        <time>2025-01-15T15:16:01.002Z</time>
      </trkpt>
      <trkpt lat="43.66428" lon="6.19114">
        <ele>658.3</ele>
        <time>2025-01-15T15:16:05.810Z</time>
      </trkpt>
      <trkpt lat="43.66431" lon="6.19103">
        <ele>658.3</ele>
        <time>2025-01-15T15:16:15.230Z</time>
      </trkpt>
      <trkpt lat="43.66433" lon="6.19091">
        <ele>658.3</ele>
        <time>2025-01-15T15:16:24.649Z</time>
      </trkpt>
      <trkpt lat="43.66435" lon="6.19081">
        <ele>658.2</ele>
        <time>2025-01-15T15:16:32.463Z</time>
      </trkpt>
      <trkpt lat="43.66437" lon="6.19071">
        <ele>658</ele>
        <time>2025-01-15T15:16:39.970Z</time>
      </trkpt>
      <trkpt lat="43.66439" lon="6.19064">
        <ele>657.9</ele>
        <time>2025-01-15T15:16:45.553Z</time>
      </trkpt>
      <trkpt lat="43.66442" lon="6.19057">
        <ele>657.9</ele>
        <time>2025-01-15T15:16:51.935Z</time>
      </trkpt>
      <trkpt lat="43.66446" lon="6.19049">
        <ele>657.9</ele>
        <time>2025-01-15T15:16:59.564Z</time>
      </trkpt>
      <trkpt lat="43.66449" lon="6.19042">
        <ele>658</ele>
        <time>2025-01-15T15:17:06.292Z</time>
      </trkpt>
      <trkpt lat="43.66451" lon="6.19032">
        <ele>657.9</ele>
        <time>2025-01-15T15:17:14.106Z</time>
      </trkpt>
      <trkpt lat="43.66453" lon="6.19024">
        <ele>657.7</ele>
        <time>2025-01-15T15:17:20.123Z</time>
      </trkpt>
      <trkpt lat="43.66454" lon="6.19017">
        <ele>657.5</ele>
        <time>2025-01-15T15:17:25.104Z</time>
      </trkpt>
      <trkpt lat="43.66455" lon="6.1901">
        <ele>657.3</ele>
        <time>2025-01-15T15:17:30.086Z</time>
      </trkpt>
      <trkpt lat="43.66456" lon="6.19002">
        <ele>657</ele>
        <time>2025-01-15T15:17:35.703Z</time>
      </trkpt>
      <trkpt lat="43.66458" lon="6.18994">
        <ele>656.6</ele>
        <time>2025-01-15T15:17:41.321Z</time>
      </trkpt>
      <trkpt lat="43.66459" lon="6.18986">
        <ele>656.3</ele>
        <time>2025-01-15T15:17:46.938Z</time>
      </trkpt>
      <trkpt lat="43.6646" lon="6.18978">
        <ele>656</ele>
        <time>2025-01-15T15:17:52.556Z</time>
      </trkpt>
      <trkpt lat="43.66461" lon="6.18967">
        <ele>655.6</ele>
        <time>2025-01-15T15:18:00.165Z</time>
      </trkpt>
      <trkpt lat="43.66462" lon="6.18956">
        <ele>655.3</ele>
        <time>2025-01-15T15:18:07.936Z</time>
      </trkpt>
      <trkpt lat="43.66462" lon="6.18948">
        <ele>655</ele>
        <time>2025-01-15T15:18:13.427Z</time>
      </trkpt>
      <trkpt lat="43.66462" lon="6.18941">
        <ele>654.8</ele>
        <time>2025-01-15T15:18:18.303Z</time>
      </trkpt>
      <trkpt lat="43.66463" lon="6.18935">
        <ele>654.7</ele>
        <time>2025-01-15T15:18:22.815Z</time>
      </trkpt>
      <trkpt lat="43.66463" lon="6.18929">
        <ele>654.4</ele>
        <time>2025-01-15T15:18:26.933Z</time>
      </trkpt>
      <trkpt lat="43.66464" lon="6.1892">
        <ele>654.2</ele>
        <time>2025-01-15T15:18:33.450Z</time>
      </trkpt>
      <trkpt lat="43.66465" lon="6.18913">
        <ele>654.1</ele>
        <time>2025-01-15T15:18:38.726Z</time>
      </trkpt>
      <trkpt lat="43.66467" lon="6.18901">
        <ele>654</ele>
        <time>2025-01-15T15:18:48.060Z</time>
      </trkpt>
      <trkpt lat="43.66468" lon="6.18895">
        <ele>653.9</ele>
        <time>2025-01-15T15:18:52.571Z</time>
      </trkpt>
      <trkpt lat="43.66468" lon="6.18887">
        <ele>653.6</ele>
        <time>2025-01-15T15:18:58.405Z</time>
      </trkpt>
      <trkpt lat="43.66468" lon="6.18878">
        <ele>653.3</ele>
        <time>2025-01-15T15:19:04.239Z</time>
      </trkpt>
      <trkpt lat="43.66467" lon="6.18874">
        <ele>653.1</ele>
        <time>2025-01-15T15:19:07.144Z</time>
      </trkpt>
      <trkpt lat="43.66467" lon="6.18871">
        <ele>653</ele>
        <time>2025-01-15T15:19:09.203Z</time>
      </trkpt>
      <trkpt lat="43.66467" lon="6.18863">
        <ele>652.7</ele>
        <time>2025-01-15T15:19:14.694Z</time>
      </trkpt>
      <trkpt lat="43.66465" lon="6.18855">
        <ele>652.3</ele>
        <time>2025-01-15T15:19:20.504Z</time>
      </trkpt>
      <trkpt lat="43.66463" lon="6.18847">
        <ele>651.8</ele>
        <time>2025-01-15T15:19:26.313Z</time>
      </trkpt>
      <trkpt lat="43.66461" lon="6.18839">
        <ele>651.4</ele>
        <time>2025-01-15T15:19:32.123Z</time>
      </trkpt>
      <trkpt lat="43.6646" lon="6.18833">
        <ele>651.1</ele>
        <time>2025-01-15T15:19:36.480Z</time>
      </trkpt>
      <trkpt lat="43.66458" lon="6.18827">
        <ele>650.7</ele>
        <time>2025-01-15T15:19:40.837Z</time>
      </trkpt>
      <trkpt lat="43.66457" lon="6.18819">
        <ele>650.4</ele>
        <time>2025-01-15T15:19:46.509Z</time>
      </trkpt>
      <trkpt lat="43.66455" lon="6.18811">
        <ele>650</ele>
        <time>2025-01-15T15:19:52.182Z</time>
      </trkpt>
      <trkpt lat="43.66455" lon="6.18802">
        <ele>649.6</ele>
        <time>2025-01-15T15:19:58.359Z</time>
      </trkpt>
      <trkpt lat="43.66455" lon="6.18791">
        <ele>649.2</ele>
        <time>2025-01-15T15:20:05.909Z</time>
      </trkpt>
      <trkpt lat="43.66454" lon="6.18783">
        <ele>648.9</ele>
        <time>2025-01-15T15:20:11.481Z</time>
      </trkpt>
      <trkpt lat="43.66454" lon="6.18775">
        <ele>648.5</ele>
        <time>2025-01-15T15:20:16.972Z</time>
      </trkpt>
      <trkpt lat="43.66452" lon="6.18767">
        <ele>647.9</ele>
        <time>2025-01-15T15:20:22.781Z</time>
      </trkpt>
      <trkpt lat="43.66451" lon="6.18761">
        <ele>647.3</ele>
        <time>2025-01-15T15:20:27.464Z</time>
      </trkpt>
      <trkpt lat="43.66449" lon="6.18754">
        <ele>646.8</ele>
        <time>2025-01-15T15:20:32.147Z</time>
      </trkpt>
      <trkpt lat="43.66444" lon="6.18745">
        <ele>645.8</ele>
        <time>2025-01-15T15:20:39.936Z</time>
      </trkpt>
      <trkpt lat="43.66441" lon="6.18739">
        <ele>645.4</ele>
        <time>2025-01-15T15:20:44.942Z</time>
      </trkpt>
      <trkpt lat="43.66438" lon="6.18733">
        <ele>644.9</ele>
        <time>2025-01-15T15:20:49.948Z</time>
      </trkpt>
      <trkpt lat="43.66434" lon="6.18727">
        <ele>644.4</ele>
        <time>2025-01-15T15:20:55.548Z</time>
      </trkpt>
      <trkpt lat="43.6643" lon="6.18721">
        <ele>643.9</ele>
        <time>2025-01-15T15:21:01.149Z</time>
      </trkpt>
      <trkpt lat="43.66426" lon="6.18716">
        <ele>643.4</ele>
        <time>2025-01-15T15:21:06.265Z</time>
        <extensions>
          <visugpx:TrkExtension xmlns:visugpx="https://www.visugpx.com/editgpx/">
            <visugpx:node>30</visugpx:node>
            </visugpx:TrkExtension>
        </extensions>
      </trkpt>
      <trkpt lat="43.6642" lon="6.18709">
        <ele>642.7</ele>
        <time>2025-01-15T15:21:13.715Z</time>
      </trkpt>
      <trkpt lat="43.66416" lon="6.18702">
        <ele>642.2</ele>
        <time>2025-01-15T15:21:19.837Z</time>
      </trkpt>
      <trkpt lat="43.66412" lon="6.18692">
        <ele>641.5</ele>
        <time>2025-01-15T15:21:27.680Z</time>
      </trkpt>
      <trkpt lat="43.6641" lon="6.1868">
        <ele>640.6</ele>
        <time>2025-01-15T15:21:36.133Z</time>
      </trkpt>
      <trkpt lat="43.66409" lon="6.18671">
        <ele>640</ele>
        <time>2025-01-15T15:21:42.382Z</time>
      </trkpt>
      <trkpt lat="43.66408" lon="6.18665">
        <ele>639.7</ele>
        <time>2025-01-15T15:21:46.739Z</time>
      </trkpt>
      <trkpt lat="43.66406" lon="6.18659">
        <ele>639.8</ele>
        <time>2025-01-15T15:21:52.069Z</time>
      </trkpt>
      <trkpt lat="43.66402" lon="6.18652">
        <ele>639.7</ele>
        <time>2025-01-15T15:21:58.744Z</time>
      </trkpt>
      <trkpt lat="43.664" lon="6.18648">
        <ele>639.7</ele>
        <time>2025-01-15T15:22:02.558Z</time>
      </trkpt>
      <trkpt lat="43.66396" lon="6.18642">
        <ele>639.5</ele>
        <time>2025-01-15T15:22:08.337Z</time>
      </trkpt>
      <trkpt lat="43.6639" lon="6.18635">
        <ele>638.9</ele>
        <time>2025-01-15T15:22:15.786Z</time>
      </trkpt>
      <trkpt lat="43.66383" lon="6.18628">
        <ele>638.3</ele>
        <time>2025-01-15T15:22:23.983Z</time>
      </trkpt>
      <trkpt lat="43.66379" lon="6.18622">
        <ele>637.9</ele>
        <time>2025-01-15T15:22:29.459Z</time>
      </trkpt>
      <trkpt lat="43.66375" lon="6.18617">
        <ele>637.6</ele>
        <time>2025-01-15T15:22:34.934Z</time>
      </trkpt>
      <trkpt lat="43.66371" lon="6.18611">
        <ele>637.4</ele>
        <time>2025-01-15T15:22:40.571Z</time>
      </trkpt>
      <trkpt lat="43.66367" lon="6.18605">
        <ele>637.3</ele>
        <time>2025-01-15T15:22:46.507Z</time>
      </trkpt>
      <trkpt lat="43.66364" lon="6.18598">
        <ele>637.1</ele>
        <time>2025-01-15T15:22:52.327Z</time>
      </trkpt>
      <trkpt lat="43.66361" lon="6.18591">
        <ele>637</ele>
        <time>2025-01-15T15:22:58.448Z</time>
      </trkpt>
      <trkpt lat="43.66357" lon="6.18584">
        <ele>636.7</ele>
        <time>2025-01-15T15:23:04.085Z</time>
      </trkpt>
      <trkpt lat="43.66354" lon="6.18578">
        <ele>636.5</ele>
        <time>2025-01-15T15:23:09.905Z</time>
      </trkpt>
      <trkpt lat="43.66351" lon="6.18571">
        <ele>636.3</ele>
        <time>2025-01-15T15:23:15.726Z</time>
      </trkpt>
      <trkpt lat="43.66348" lon="6.18564">
        <ele>636</ele>
        <time>2025-01-15T15:23:21.363Z</time>
      </trkpt>
      <trkpt lat="43.66344" lon="6.18557">
        <ele>635.8</ele>
        <time>2025-01-15T15:23:27.183Z</time>
      </trkpt>
      <trkpt lat="43.66341" lon="6.1855">
        <ele>635.6</ele>
        <time>2025-01-15T15:23:33.004Z</time>
      </trkpt>
      <trkpt lat="43.66339" lon="6.18543">
        <ele>635.4</ele>
        <time>2025-01-15T15:23:38.173Z</time>
      </trkpt>
      <trkpt lat="43.66336" lon="6.18537">
        <ele>635.2</ele>
        <time>2025-01-15T15:23:43.343Z</time>
      </trkpt>
      <trkpt lat="43.66334" lon="6.1853">
        <ele>635</ele>
        <time>2025-01-15T15:23:48.513Z</time>
      </trkpt>
      <trkpt lat="43.66331" lon="6.18524">
        <ele>634.9</ele>
        <time>2025-01-15T15:23:53.979Z</time>
      </trkpt>
      <trkpt lat="43.66329" lon="6.18517">
        <ele>634.8</ele>
        <time>2025-01-15T15:23:59.445Z</time>
      </trkpt>
      <trkpt lat="43.66326" lon="6.18511">
        <ele>634.8</ele>
        <time>2025-01-15T15:24:05.231Z</time>
      </trkpt>
      <trkpt lat="43.66324" lon="6.18504">
        <ele>634.7</ele>
        <time>2025-01-15T15:24:10.697Z</time>
      </trkpt>
      <trkpt lat="43.66322" lon="6.18498">
        <ele>634.6</ele>
        <time>2025-01-15T15:24:16.163Z</time>
      </trkpt>
      <trkpt lat="43.66319" lon="6.18491">
        <ele>634.5</ele>
        <time>2025-01-15T15:24:21.629Z</time>
      </trkpt>
      <trkpt lat="43.66317" lon="6.18484">
        <ele>634.4</ele>
        <time>2025-01-15T15:24:27.095Z</time>
      </trkpt>
      <trkpt lat="43.66314" lon="6.18478">
        <ele>634.3</ele>
        <time>2025-01-15T15:24:32.561Z</time>
      </trkpt>
      <trkpt lat="43.66312" lon="6.18471">
        <ele>634.2</ele>
        <time>2025-01-15T15:24:38.027Z</time>
      </trkpt>
      <trkpt lat="43.66309" lon="6.18465">
        <ele>633.9</ele>
        <time>2025-01-15T15:24:43.091Z</time>
      </trkpt>
      <trkpt lat="43.66307" lon="6.18458">
        <ele>633.6</ele>
        <time>2025-01-15T15:24:48.154Z</time>
      </trkpt>
      <trkpt lat="43.66304" lon="6.18452">
        <ele>633.2</ele>
        <time>2025-01-15T15:24:53.217Z</time>
      </trkpt>
      <trkpt lat="43.66302" lon="6.18445">
        <ele>632.8</ele>
        <time>2025-01-15T15:24:58.281Z</time>
      </trkpt>
      <trkpt lat="43.66303" lon="6.18439">
        <ele>632.6</ele>
        <time>2025-01-15T15:25:02.507Z</time>
      </trkpt>
      <trkpt lat="43.66304" lon="6.18428">
        <ele>632.3</ele>
        <time>2025-01-15T15:25:10.278Z</time>
      </trkpt>
      <trkpt lat="43.66304" lon="6.18417">
        <ele>631.9</ele>
        <time>2025-01-15T15:25:17.828Z</time>
      </trkpt>
      <trkpt lat="43.66303" lon="6.18408">
        <ele>632.1</ele>
        <time>2025-01-15T15:25:25.685Z</time>
      </trkpt>
      <trkpt lat="43.66302" lon="6.18401">
        <ele>632.2</ele>
        <time>2025-01-15T15:25:31.630Z</time>
      </trkpt>
      <trkpt lat="43.66301" lon="6.18394">
        <ele>632.4</ele>
        <time>2025-01-15T15:25:37.955Z</time>
      </trkpt>
      <trkpt lat="43.66299" lon="6.18382">
        <ele>632.1</ele>
        <time>2025-01-15T15:25:46.682Z</time>
      </trkpt>
      <trkpt lat="43.66296" lon="6.18372">
        <ele>631.6</ele>
        <time>2025-01-15T15:25:54.112Z</time>
      </trkpt>
      <trkpt lat="43.66294" lon="6.18364">
        <ele>631.2</ele>
        <time>2025-01-15T15:25:59.922Z</time>
      </trkpt>
      <trkpt lat="43.66292" lon="6.18356">
        <ele>631</ele>
        <time>2025-01-15T15:26:05.938Z</time>
      </trkpt>
      <trkpt lat="43.66291" lon="6.1835">
        <ele>630.9</ele>
        <time>2025-01-15T15:26:10.599Z</time>
      </trkpt>
      <trkpt lat="43.66289" lon="6.18344">
        <ele>630.8</ele>
        <time>2025-01-15T15:26:15.261Z</time>
      </trkpt>
      <trkpt lat="43.66288" lon="6.18338">
        <ele>630.7</ele>
        <time>2025-01-15T15:26:19.922Z</time>
      </trkpt>
      <trkpt lat="43.66286" lon="6.18332">
        <ele>630.6</ele>
        <time>2025-01-15T15:26:24.583Z</time>
      </trkpt>
      <trkpt lat="43.66283" lon="6.18322">
        <ele>630.4</ele>
        <time>2025-01-15T15:26:32.442Z</time>
      </trkpt>
      <trkpt lat="43.66282" lon="6.18316">
        <ele>630.3</ele>
        <time>2025-01-15T15:26:37.475Z</time>
      </trkpt>
      <trkpt lat="43.6628" lon="6.18309">
        <ele>630.2</ele>
        <time>2025-01-15T15:26:42.507Z</time>
      </trkpt>
      <trkpt lat="43.66278" lon="6.183">
        <ele>629.8</ele>
        <time>2025-01-15T15:26:48.969Z</time>
      </trkpt>
      <trkpt lat="43.66278" lon="6.18289">
        <ele>629.4</ele>
        <time>2025-01-15T15:26:56.519Z</time>
      </trkpt>
      <trkpt lat="43.66278" lon="6.18278">
        <ele>629</ele>
        <time>2025-01-15T15:27:04.070Z</time>
      </trkpt>
      <trkpt lat="43.66279" lon="6.18266">
        <ele>628.6</ele>
        <time>2025-01-15T15:27:12.361Z</time>
      </trkpt>
      <trkpt lat="43.6628" lon="6.18254">
        <ele>628.2</ele>
        <time>2025-01-15T15:27:20.652Z</time>
      </trkpt>
      <trkpt lat="43.66281" lon="6.18244">
        <ele>627.9</ele>
        <time>2025-01-15T15:27:27.885Z</time>
      </trkpt>
      <trkpt lat="43.66283" lon="6.18234">
        <ele>627.7</ele>
        <time>2025-01-15T15:27:35.408Z</time>
      </trkpt>
      <trkpt lat="43.66284" lon="6.18223">
        <ele>627.5</ele>
        <time>2025-01-15T15:27:42.931Z</time>
      </trkpt>
      <trkpt lat="43.66285" lon="6.18213">
        <ele>627.3</ele>
        <time>2025-01-15T15:27:50.453Z</time>
      </trkpt>
      <trkpt lat="43.66286" lon="6.18201">
        <ele>627.1</ele>
        <time>2025-01-15T15:27:59.293Z</time>
      </trkpt>
      <trkpt lat="43.66286" lon="6.18195">
        <ele>627</ele>
        <time>2025-01-15T15:28:03.682Z</time>
      </trkpt>
      <trkpt lat="43.66286" lon="6.18189">
        <ele>627.1</ele>
        <time>2025-01-15T15:28:09.159Z</time>
      </trkpt>
      <trkpt lat="43.66285" lon="6.18182">
        <ele>627.2</ele>
        <time>2025-01-15T15:28:14.636Z</time>
      </trkpt>
      <trkpt lat="43.66284" lon="6.18174">
        <ele>627.3</ele>
        <time>2025-01-15T15:28:21.351Z</time>
      </trkpt>
      <trkpt lat="43.66281" lon="6.18164">
        <ele>627.3</ele>
        <time>2025-01-15T15:28:29.843Z</time>
      </trkpt>
      <trkpt lat="43.66277" lon="6.18154">
        <ele>627.4</ele>
        <time>2025-01-15T15:28:39.149Z</time>
      </trkpt>
      <trkpt lat="43.66273" lon="6.18144">
        <ele>627.5</ele>
        <time>2025-01-15T15:28:48.456Z</time>
      </trkpt>
      <trkpt lat="43.6627" lon="6.18137">
        <ele>627.4</ele>
        <time>2025-01-15T15:28:54.601Z</time>
      </trkpt>
      <trkpt lat="43.66267" lon="6.1813">
        <ele>627.2</ele>
        <time>2025-01-15T15:29:00.446Z</time>
      </trkpt>
      <trkpt lat="43.66264" lon="6.18123">
        <ele>627</ele>
        <time>2025-01-15T15:29:06.290Z</time>
      </trkpt>
      <trkpt lat="43.66261" lon="6.18116">
        <ele>626.8</ele>
        <time>2025-01-15T15:29:12.135Z</time>
      </trkpt>
      <trkpt lat="43.66258" lon="6.18108">
        <ele>626.6</ele>
        <time>2025-01-15T15:29:17.980Z</time>
      </trkpt>
      <trkpt lat="43.66255" lon="6.18101">
        <ele>626.4</ele>
        <time>2025-01-15T15:29:23.825Z</time>
      </trkpt>
      <trkpt lat="43.66252" lon="6.18094">
        <ele>626.1</ele>
        <time>2025-01-15T15:29:29.484Z</time>
      </trkpt>
      <trkpt lat="43.66249" lon="6.18087">
        <ele>626</ele>
        <time>2025-01-15T15:29:35.629Z</time>
      </trkpt>
      <trkpt lat="43.66246" lon="6.1808">
        <ele>625.8</ele>
        <time>2025-01-15T15:29:41.643Z</time>
      </trkpt>
      <trkpt lat="43.66243" lon="6.18072">
        <ele>625.6</ele>
        <time>2025-01-15T15:29:47.657Z</time>
      </trkpt>
      <trkpt lat="43.6624" lon="6.18065">
        <ele>625.4</ele>
        <time>2025-01-15T15:29:53.671Z</time>
      </trkpt>
      <trkpt lat="43.66237" lon="6.18058">
        <ele>625.1</ele>
        <time>2025-01-15T15:29:59.478Z</time>
      </trkpt>
      <trkpt lat="43.66234" lon="6.1805">
        <ele>624.8</ele>
        <time>2025-01-15T15:30:05.286Z</time>
      </trkpt>
      <trkpt lat="43.66231" lon="6.18043">
        <ele>624.6</ele>
        <time>2025-01-15T15:30:11.300Z</time>
      </trkpt>
      <trkpt lat="43.66228" lon="6.18035">
        <ele>624.4</ele>
        <time>2025-01-15T15:30:17.314Z</time>
      </trkpt>
      <trkpt lat="43.66225" lon="6.18028">
        <ele>624.2</ele>
        <time>2025-01-15T15:30:23.328Z</time>
      </trkpt>
      <trkpt lat="43.66224" lon="6.18023">
        <ele>624.1</ele>
        <time>2025-01-15T15:30:27.082Z</time>
      </trkpt>
      <trkpt lat="43.66222" lon="6.18018">
        <ele>624</ele>
        <time>2025-01-15T15:30:31.246Z</time>
      </trkpt>
      <trkpt lat="43.66219" lon="6.18012">
        <ele>623.8</ele>
        <time>2025-01-15T15:30:36.351Z</time>
      </trkpt>
      <trkpt lat="43.66215" lon="6.18005">
        <ele>623.5</ele>
        <time>2025-01-15T15:30:42.474Z</time>
      </trkpt>
      <trkpt lat="43.66215" lon="6.18005">
        <ele>623.5</ele>
        <time>2025-01-15T15:30:42.474Z</time>
      </trkpt>
      <trkpt lat="43.6621" lon="6.17998">
        <ele>623.1</ele>
        <time>2025-01-15T15:30:49.226Z</time>
      </trkpt>
      <trkpt lat="43.66207" lon="6.17991">
        <ele>622.8</ele>
        <time>2025-01-15T15:30:54.811Z</time>
      </trkpt>
      <trkpt lat="43.66204" lon="6.17983">
        <ele>622.5</ele>
        <time>2025-01-15T15:31:00.996Z</time>
      </trkpt>
      <trkpt lat="43.66201" lon="6.17974">
        <ele>622.3</ele>
        <time>2025-01-15T15:31:08.140Z</time>
      </trkpt>
      <trkpt lat="43.66201" lon="6.17968">
        <ele>622.1</ele>
        <time>2025-01-15T15:31:12.628Z</time>
      </trkpt>
      <trkpt lat="43.66201" lon="6.17961">
        <ele>621.9</ele>
        <time>2025-01-15T15:31:17.117Z</time>
      </trkpt>
      <trkpt lat="43.66201" lon="6.17954">
        <ele>621.7</ele>
        <time>2025-01-15T15:31:21.993Z</time>
      </trkpt>
      <trkpt lat="43.662" lon="6.17945">
        <ele>621.4</ele>
        <time>2025-01-15T15:31:28.243Z</time>
      </trkpt>
      <trkpt lat="43.66199" lon="6.17938">
        <ele>621.3</ele>
        <time>2025-01-15T15:31:33.520Z</time>
      </trkpt>
      <trkpt lat="43.66197" lon="6.17931">
        <ele>621.2</ele>
        <time>2025-01-15T15:31:39.103Z</time>
      </trkpt>
      <trkpt lat="43.66192" lon="6.17923">
        <ele>620.9</ele>
        <time>2025-01-15T15:31:46.474Z</time>
      </trkpt>
      <trkpt lat="43.66186" lon="6.17914">
        <ele>620.7</ele>
        <time>2025-01-15T15:31:55.439Z</time>
      </trkpt>
      <trkpt lat="43.6618" lon="6.17905">
        <ele>620.5</ele>
        <time>2025-01-15T15:32:04.403Z</time>
      </trkpt>
      <trkpt lat="43.66175" lon="6.17896">
        <ele>620.3</ele>
        <time>2025-01-15T15:32:12.671Z</time>
      </trkpt>
      <trkpt lat="43.6617" lon="6.17887">
        <ele>620.1</ele>
        <time>2025-01-15T15:32:20.939Z</time>
      </trkpt>
      <trkpt lat="43.66167" lon="6.17882">
        <ele>620</ele>
        <time>2025-01-15T15:32:26.219Z</time>
      </trkpt>
      <trkpt lat="43.66163" lon="6.17877">
        <ele>619.8</ele>
        <time>2025-01-15T15:32:31.204Z</time>
      </trkpt>
      <trkpt lat="43.6616" lon="6.17871">
        <ele>619.6</ele>
        <time>2025-01-15T15:32:36.189Z</time>
      </trkpt>
      <trkpt lat="43.66156" lon="6.17866">
        <ele>619.5</ele>
        <time>2025-01-15T15:32:41.469Z</time>
        <extensions>
          <visugpx:TrkExtension xmlns:visugpx="https://www.visugpx.com/editgpx/">
            <visugpx:node>33</visugpx:node>
            </visugpx:TrkExtension>
        </extensions>
      </trkpt>
      <trkpt lat="43.66151" lon="6.17859">
        <ele>619.5</ele>
        <time>2025-01-15T15:32:49.186Z</time>
      </trkpt>
      <trkpt lat="43.66145" lon="6.17851">
        <ele>619.6</ele>
        <time>2025-01-15T15:32:58.965Z</time>
      </trkpt>
      <trkpt lat="43.66138" lon="6.17843">
        <ele>619.6</ele>
        <time>2025-01-15T15:33:08.402Z</time>
      </trkpt>
      <trkpt lat="43.66132" lon="6.17834">
        <ele>619.5</ele>
        <time>2025-01-15T15:33:17.677Z</time>
      </trkpt>
      <trkpt lat="43.6613" lon="6.17829">
        <ele>619.4</ele>
        <time>2025-01-15T15:33:22.454Z</time>
      </trkpt>
      <trkpt lat="43.66127" lon="6.17823">
        <ele>619.3</ele>
        <time>2025-01-15T15:33:27.230Z</time>
      </trkpt>
      <trkpt lat="43.66125" lon="6.17815">
        <ele>619.3</ele>
        <time>2025-01-15T15:33:34.242Z</time>
      </trkpt>
      <trkpt lat="43.66123" lon="6.17806">
        <ele>619.4</ele>
        <time>2025-01-15T15:33:41.599Z</time>
      </trkpt>
      <trkpt lat="43.66121" lon="6.17798">
        <ele>619.4</ele>
        <time>2025-01-15T15:33:48.610Z</time>
      </trkpt>
      <trkpt lat="43.66119" lon="6.17789">
        <ele>619.3</ele>
        <time>2025-01-15T15:33:55.299Z</time>
      </trkpt>
      <trkpt lat="43.66118" lon="6.17782">
        <ele>619.2</ele>
        <time>2025-01-15T15:34:01.082Z</time>
      </trkpt>
      <trkpt lat="43.66116" lon="6.17774">
        <ele>619.2</ele>
        <time>2025-01-15T15:34:07.186Z</time>
      </trkpt>
      <trkpt lat="43.66115" lon="6.17765">
        <ele>619.1</ele>
        <time>2025-01-15T15:34:13.860Z</time>
      </trkpt>
      <trkpt lat="43.66114" lon="6.17757">
        <ele>619.1</ele>
        <time>2025-01-15T15:34:20.856Z</time>
      </trkpt>
      <trkpt lat="43.66112" lon="6.17748">
        <ele>619</ele>
        <time>2025-01-15T15:34:27.530Z</time>
      </trkpt>
      <trkpt lat="43.66111" lon="6.17739">
        <ele>619</ele>
        <time>2025-01-15T15:34:34.526Z</time>
      </trkpt>
      <trkpt lat="43.66109" lon="6.17731">
        <ele>618.9</ele>
        <time>2025-01-15T15:34:41.029Z</time>
      </trkpt>
      <trkpt lat="43.66107" lon="6.17723">
        <ele>618.9</ele>
        <time>2025-01-15T15:34:47.854Z</time>
      </trkpt>
      <trkpt lat="43.66105" lon="6.17714">
        <ele>619</ele>
        <time>2025-01-15T15:34:55.026Z</time>
      </trkpt>
      <trkpt lat="43.66103" lon="6.17706">
        <ele>619.1</ele>
        <time>2025-01-15T15:35:02.197Z</time>
      </trkpt>
      <trkpt lat="43.66102" lon="6.17699">
        <ele>619.2</ele>
        <time>2025-01-15T15:35:08.142Z</time>
      </trkpt>
      <trkpt lat="43.66101" lon="6.17692">
        <ele>619.3</ele>
        <time>2025-01-15T15:35:14.217Z</time>
      </trkpt>
      <trkpt lat="43.66099" lon="6.17685">
        <ele>619.3</ele>
        <time>2025-01-15T15:35:19.944Z</time>
      </trkpt>
      <trkpt lat="43.66098" lon="6.17675">
        <ele>619.4</ele>
        <time>2025-01-15T15:35:28.207Z</time>
      </trkpt>
      <trkpt lat="43.66098" lon="6.17668">
        <ele>619.5</ele>
        <time>2025-01-15T15:35:33.858Z</time>
      </trkpt>
      <trkpt lat="43.66098" lon="6.17662">
        <ele>619.5</ele>
        <time>2025-01-15T15:35:39.160Z</time>
      </trkpt>
      <trkpt lat="43.66097" lon="6.17655">
        <ele>619.5</ele>
        <time>2025-01-15T15:35:44.462Z</time>
      </trkpt>
      <trkpt lat="43.66097" lon="6.17648">
        <ele>619.5</ele>
        <time>2025-01-15T15:35:49.764Z</time>
      </trkpt>
      <trkpt lat="43.66097" lon="6.1764">
        <ele>619.5</ele>
        <time>2025-01-15T15:35:56.040Z</time>
      </trkpt>
      <trkpt lat="43.66097" lon="6.17632">
        <ele>619.5</ele>
        <time>2025-01-15T15:36:02.316Z</time>
      </trkpt>
      <trkpt lat="43.66097" lon="6.17624">
        <ele>619.5</ele>
        <time>2025-01-15T15:36:08.591Z</time>
      </trkpt>
      <trkpt lat="43.66097" lon="6.17616">
        <ele>619.5</ele>
        <time>2025-01-15T15:36:14.867Z</time>
      </trkpt>
      <trkpt lat="43.66097" lon="6.17606">
        <ele>619.5</ele>
        <time>2025-01-15T15:36:23.122Z</time>
      </trkpt>
      <trkpt lat="43.66096" lon="6.17595">
        <ele>619.5</ele>
        <time>2025-01-15T15:36:31.376Z</time>
      </trkpt>
      <trkpt lat="43.66095" lon="6.17589">
        <ele>619.4</ele>
        <time>2025-01-15T15:36:36.027Z</time>
      </trkpt>
      <trkpt lat="43.66095" lon="6.17583">
        <ele>619.4</ele>
        <time>2025-01-15T15:36:40.997Z</time>
      </trkpt>
      <trkpt lat="43.66094" lon="6.17576">
        <ele>619.4</ele>
        <time>2025-01-15T15:36:45.967Z</time>
      </trkpt>
      <trkpt lat="43.66093" lon="6.1757">
        <ele>619.3</ele>
        <time>2025-01-15T15:36:50.618Z</time>
      </trkpt>
      <trkpt lat="43.66092" lon="6.17564">
        <ele>619.3</ele>
        <time>2025-01-15T15:36:55.831Z</time>
      </trkpt>
      <trkpt lat="43.66091" lon="6.17557">
        <ele>619.3</ele>
        <time>2025-01-15T15:37:01.044Z</time>
      </trkpt>
      <trkpt lat="43.6609" lon="6.17551">
        <ele>619.2</ele>
        <time>2025-01-15T15:37:05.705Z</time>
      </trkpt>
      <trkpt lat="43.66088" lon="6.17545">
        <ele>619.2</ele>
        <time>2025-01-15T15:37:10.685Z</time>
      </trkpt>
      <trkpt lat="43.66085" lon="6.17537">
        <ele>619.1</ele>
        <time>2025-01-15T15:37:17.431Z</time>
      </trkpt>
      <trkpt lat="43.66083" lon="6.17531">
        <ele>619</ele>
        <time>2025-01-15T15:37:22.472Z</time>
      </trkpt>
      <trkpt lat="43.66081" lon="6.17525">
        <ele>618.7</ele>
        <time>2025-01-15T15:37:27.163Z</time>
      </trkpt>
      <trkpt lat="43.66079" lon="6.17518">
        <ele>618.4</ele>
        <time>2025-01-15T15:37:31.854Z</time>
      </trkpt>
      <trkpt lat="43.66077" lon="6.17512">
        <ele>618.1</ele>
        <time>2025-01-15T15:37:36.545Z</time>
      </trkpt>
      <trkpt lat="43.66076" lon="6.17503">
        <ele>617.8</ele>
        <time>2025-01-15T15:37:43.257Z</time>
      </trkpt>
      <trkpt lat="43.66074" lon="6.17493">
        <ele>617.7</ele>
        <time>2025-01-15T15:37:50.561Z</time>
      </trkpt>
      <trkpt lat="43.66073" lon="6.17487">
        <ele>617.6</ele>
        <time>2025-01-15T15:37:55.223Z</time>
      </trkpt>
      <trkpt lat="43.66071" lon="6.17481">
        <ele>617.6</ele>
        <time>2025-01-15T15:38:00.202Z</time>
      </trkpt>
      <trkpt lat="43.6607" lon="6.1747">
        <ele>617.5</ele>
        <time>2025-01-15T15:38:08.574Z</time>
      </trkpt>
      <trkpt lat="43.66069" lon="6.1746">
        <ele>617.3</ele>
        <time>2025-01-15T15:38:15.864Z</time>
      </trkpt>
      <trkpt lat="43.66068" lon="6.17452">
        <ele>617.1</ele>
        <time>2025-01-15T15:38:21.611Z</time>
      </trkpt>
      <trkpt lat="43.66068" lon="6.17446">
        <ele>617</ele>
        <time>2025-01-15T15:38:26.000Z</time>
      </trkpt>
    </trkseg>
  </trk>
</gpx>